<?xml version='1.0' encoding='UTF-8'?><gpx version="1.1" creator="JPX - https://github.com/jenetics/jpx" xmlns="http://www.topografix.com/GPX/1/1"><trk><trkseg><trkpt lat="42.7035823" lon="13.6354247"><ele>682.0</ele><time>2026-05-02T07:51:28.502Z</time></trkpt><trkpt lat="42.7036338" lon="13.6353226"><ele>682.0</ele><time>2026-05-02T07:51:32.502Z</time></trkpt><trkpt lat="42.7036915" lon="13.6352155"><ele>682.0</ele><time>2026-05-02T07:51:35.501Z</time></trkpt><trkpt lat="42.7037314" lon="13.6351465"><ele>682.0</ele><time>2026-05-02T07:51:37.5Z</time></trkpt><trkpt lat="42.7037811" lon="13.6350441"><ele>682.0</ele><time>2026-05-02T07:51:40.502Z</time></trkpt><trkpt lat="42.7038289" lon="13.6349516"><ele>682.0</ele><time>2026-05-02T07:51:43.501Z</time></trkpt><trkpt lat="42.7038964" lon="13.6348798"><ele>685.0</ele><time>2026-05-02T07:51:46.502Z</time></trkpt><trkpt lat="42.7039555" lon="13.6348475"><ele>688.0</ele><time>2026-05-02T07:51:48.501Z</time></trkpt><trkpt lat="42.7040265" lon="13.6348411"><ele>691.0</ele><time>2026-05-02T07:51:50.501Z</time></trkpt><trkpt lat="42.7041063" lon="13.6348381"><ele>694.0</ele><time>2026-05-02T07:51:52.502Z</time></trkpt><trkpt lat="42.7041909" lon="13.6348325"><ele>697.0</ele><time>2026-05-02T07:51:54.502Z</time></trkpt><trkpt lat="42.7042744" lon="13.6348353"><ele>700.0</ele><time>2026-05-02T07:51:56.501Z</time></trkpt><trkpt lat="42.7043559" lon="13.6348411"><ele>697.1666666666667</ele><time>2026-05-02T07:51:58.5Z</time></trkpt><trkpt lat="42.7044341" lon="13.6348483"><ele>694.3333333333334</ele><time>2026-05-02T07:52:00.501Z</time></trkpt><trkpt lat="42.7045162" lon="13.6348469"><ele>691.5</ele><time>2026-05-02T07:52:02.501Z</time></trkpt><trkpt lat="42.7045889" lon="13.6348223"><ele>688.6666666666666</ele><time>2026-05-02T07:52:04.501Z</time></trkpt><trkpt lat="42.7046682" lon="13.6347875"><ele>685.8333333333333</ele><time>2026-05-02T07:52:06.5Z</time></trkpt><trkpt lat="42.7047405" lon="13.6347253"><ele>683.0</ele><time>2026-05-02T07:52:08.502Z</time></trkpt><trkpt lat="42.7047551" lon="13.6346007"><ele>683.0</ele><time>2026-05-02T07:52:10.501Z</time></trkpt><trkpt lat="42.7047614" lon="13.6344926"><ele>683.0</ele><time>2026-05-02T07:52:12.502Z</time></trkpt><trkpt lat="42.7047858" lon="13.6343841"><ele>683.0</ele><time>2026-05-02T07:52:14.502Z</time></trkpt><trkpt lat="42.7048158" lon="13.6342811"><ele>683.0</ele><time>2026-05-02T07:52:16.5Z</time></trkpt><trkpt lat="42.7048425" lon="13.634171"><ele>683.0</ele><time>2026-05-02T07:52:18.5Z</time></trkpt><trkpt lat="42.7048668" lon="13.6340615"><ele>683.0</ele><time>2026-05-02T07:52:20.5Z</time></trkpt><trkpt lat="42.7049066" lon="13.6339631"><ele>686.0</ele><time>2026-05-02T07:52:22.5Z</time></trkpt><trkpt lat="42.7049546" lon="13.6339011"><ele>689.0</ele><time>2026-05-02T07:52:24.501Z</time></trkpt><trkpt lat="42.7050102" lon="13.6338326"><ele>692.0</ele><time>2026-05-02T07:52:26.501Z</time></trkpt><trkpt lat="42.7050682" lon="13.6337732"><ele>695.0</ele><time>2026-05-02T07:52:28.501Z</time></trkpt><trkpt lat="42.7051346" lon="13.6337166"><ele>698.0</ele><time>2026-05-02T07:52:30.502Z</time></trkpt><trkpt lat="42.7052042" lon="13.6336727"><ele>701.0</ele><time>2026-05-02T07:52:32.5Z</time></trkpt><trkpt lat="42.7052592" lon="13.6336016"><ele>704.0</ele><time>2026-05-02T07:52:34.501Z</time></trkpt><trkpt lat="42.7053104" lon="13.6335026"><ele>704.0</ele><time>2026-05-02T07:52:37.5Z</time></trkpt><trkpt lat="42.7053424" lon="13.6334025"><ele>704.0</ele><time>2026-05-02T07:52:39.501Z</time></trkpt><trkpt lat="42.7053669" lon="13.6333011"><ele>704.0</ele><time>2026-05-02T07:52:41.501Z</time></trkpt><trkpt lat="42.7053839" lon="13.6332095"><ele>704.0</ele><time>2026-05-02T07:52:43.502Z</time></trkpt><trkpt lat="42.7054068" lon="13.6331228"><ele>704.0</ele><time>2026-05-02T07:52:45.501Z</time></trkpt><trkpt lat="42.705442" lon="13.633033"><ele>704.0</ele><time>2026-05-02T07:52:47.5Z</time></trkpt><trkpt lat="42.7054902" lon="13.6329579"><ele>704.0</ele><time>2026-05-02T07:52:49.5Z</time></trkpt><trkpt lat="42.7055465" lon="13.632892"><ele>704.0</ele><time>2026-05-02T07:52:51.5Z</time></trkpt><trkpt lat="42.7056013" lon="13.632823"><ele>704.0</ele><time>2026-05-02T07:52:53.501Z</time></trkpt><trkpt lat="42.705658" lon="13.632765"><ele>704.0</ele><time>2026-05-02T07:52:55.5Z</time></trkpt><trkpt lat="42.705709" lon="13.632708"><ele>704.0</ele><time>2026-05-02T07:52:57.5Z</time></trkpt><trkpt lat="42.7057645" lon="13.6326553"><ele>704.0</ele><time>2026-05-02T07:52:59.5Z</time></trkpt><trkpt lat="42.7058219" lon="13.6325911"><ele>704.0</ele><time>2026-05-02T07:53:01.499Z</time></trkpt><trkpt lat="42.7058645" lon="13.6325069"><ele>704.0</ele><time>2026-05-02T07:53:03.499Z</time></trkpt><trkpt lat="42.7058732" lon="13.632413"><ele>706.0</ele><time>2026-05-02T07:53:05.501Z</time></trkpt><trkpt lat="42.7058454" lon="13.6323231"><ele>708.0</ele><time>2026-05-02T07:53:07.499Z</time></trkpt><trkpt lat="42.7058005" lon="13.632228"><ele>710.0</ele><time>2026-05-02T07:53:09.5Z</time></trkpt><trkpt lat="42.7057407" lon="13.632165"><ele>712.0</ele><time>2026-05-02T07:53:11.5Z</time></trkpt><trkpt lat="42.7056629" lon="13.6321295"><ele>714.0</ele><time>2026-05-02T07:53:13.499Z</time></trkpt><trkpt lat="42.7055826" lon="13.632152"><ele>716.0</ele><time>2026-05-02T07:53:15.5Z</time></trkpt><trkpt lat="42.7055191" lon="13.6322248"><ele>716.0</ele><time>2026-05-02T07:53:17.499Z</time></trkpt><trkpt lat="42.7054511" lon="13.6322776"><ele>716.0</ele><time>2026-05-02T07:53:19.5Z</time></trkpt><trkpt lat="42.7053656" lon="13.6323286"><ele>716.0</ele><time>2026-05-02T07:53:21.501Z</time></trkpt><trkpt lat="42.7052806" lon="13.6323654"><ele>716.0</ele><time>2026-05-02T07:53:23.5Z</time></trkpt><trkpt lat="42.7052144" lon="13.6324323"><ele>716.0</ele><time>2026-05-02T07:53:25.5Z</time></trkpt><trkpt lat="42.7051559" lon="13.6324822"><ele>716.0</ele><time>2026-05-02T07:53:27.501Z</time></trkpt><trkpt lat="42.7051029" lon="13.6325744"><ele>717.1666666666666</ele><time>2026-05-02T07:53:29.5Z</time></trkpt><trkpt lat="42.705055" lon="13.6326657"><ele>718.3333333333333</ele><time>2026-05-02T07:53:31.5Z</time></trkpt><trkpt lat="42.7050104" lon="13.6327674"><ele>719.5</ele><time>2026-05-02T07:53:33.501Z</time></trkpt><trkpt lat="42.704971" lon="13.6328633"><ele>720.6666666666666</ele><time>2026-05-02T07:53:35.499Z</time></trkpt><trkpt lat="42.7049215" lon="13.6329613"><ele>721.8333333333334</ele><time>2026-05-02T07:53:37.499Z</time></trkpt><trkpt lat="42.7048535" lon="13.6330293"><ele>723.0</ele><time>2026-05-02T07:53:39.499Z</time></trkpt><trkpt lat="42.7047838" lon="13.6331013"><ele>723.0</ele><time>2026-05-02T07:53:41.499Z</time></trkpt><trkpt lat="42.704723" lon="13.6331741"><ele>723.0</ele><time>2026-05-02T07:53:43.501Z</time></trkpt><trkpt lat="42.7046588" lon="13.6332298"><ele>723.0</ele><time>2026-05-02T07:53:45.5Z</time></trkpt><trkpt lat="42.7046071" lon="13.6332818"><ele>723.0</ele><time>2026-05-02T07:53:47.5Z</time></trkpt><trkpt lat="42.7045433" lon="13.6333653"><ele>723.0</ele><time>2026-05-02T07:53:50.5Z</time></trkpt><trkpt lat="42.7044904" lon="13.6334445"><ele>723.0</ele><time>2026-05-02T07:53:52.5Z</time></trkpt><trkpt lat="42.7044503" lon="13.6335451"><ele>723.0</ele><time>2026-05-02T07:53:54.501Z</time></trkpt><trkpt lat="42.7044167" lon="13.63363"><ele>723.0</ele><time>2026-05-02T07:53:56.5Z</time></trkpt><trkpt lat="42.7043678" lon="13.6337081"><ele>723.0</ele><time>2026-05-02T07:53:58.5Z</time></trkpt><trkpt lat="42.704297" lon="13.6337934"><ele>723.0</ele><time>2026-05-02T07:54:01.5Z</time></trkpt><trkpt lat="42.7042332" lon="13.6337821"><ele>723.0</ele><time>2026-05-02T07:54:03.501Z</time></trkpt><trkpt lat="42.7041878" lon="13.6337179"><ele>723.0</ele><time>2026-05-02T07:54:05.499Z</time></trkpt><trkpt lat="42.7041884" lon="13.6335963"><ele>726.1666666666666</ele><time>2026-05-02T07:54:08.501Z</time></trkpt><trkpt lat="42.7042315" lon="13.6335234"><ele>729.3333333333334</ele><time>2026-05-02T07:54:10.499Z</time></trkpt><trkpt lat="42.7042889" lon="13.6334691"><ele>732.5</ele><time>2026-05-02T07:54:12.5Z</time></trkpt><trkpt lat="42.7043487" lon="13.6333798"><ele>735.6666666666667</ele><time>2026-05-02T07:54:15.499Z</time></trkpt><trkpt lat="42.7043749" lon="13.6332592"><ele>738.8333333333334</ele><time>2026-05-02T07:54:18.5Z</time></trkpt><trkpt lat="42.7043801" lon="13.6331706"><ele>742.0</ele><time>2026-05-02T07:54:20.499Z</time></trkpt><trkpt lat="42.7043683" lon="13.6330841"><ele>742.0</ele><time>2026-05-02T07:54:22.501Z</time></trkpt><trkpt lat="42.7043567" lon="13.6329626"><ele>742.0</ele><time>2026-05-02T07:54:25.5Z</time></trkpt><trkpt lat="42.7043581" lon="13.6328736"><ele>742.0</ele><time>2026-05-02T07:54:27.5Z</time></trkpt><trkpt lat="42.704358" lon="13.6327869"><ele>742.0</ele><time>2026-05-02T07:54:29.501Z</time></trkpt><trkpt lat="42.7043539" lon="13.6326915"><ele>742.0</ele><time>2026-05-02T07:54:31.499Z</time></trkpt><trkpt lat="42.7043516" lon="13.6325928"><ele>742.0</ele><time>2026-05-02T07:54:33.499Z</time></trkpt><trkpt lat="42.7043615" lon="13.6325028"><ele>742.0</ele><time>2026-05-02T07:54:35.5Z</time></trkpt><trkpt lat="42.7043897" lon="13.632417"><ele>741.1666666666667</ele><time>2026-05-02T07:54:37.499Z</time></trkpt><trkpt lat="42.7044366" lon="13.6323349"><ele>740.3333333333334</ele><time>2026-05-02T07:54:39.5Z</time></trkpt><trkpt lat="42.7044913" lon="13.6322623"><ele>739.5</ele><time>2026-05-02T07:54:41.5Z</time></trkpt><trkpt lat="42.7045504" lon="13.6321938"><ele>738.6666666666666</ele><time>2026-05-02T07:54:43.5Z</time></trkpt><trkpt lat="42.7046103" lon="13.6321245"><ele>737.8333333333333</ele><time>2026-05-02T07:54:45.5Z</time></trkpt><trkpt lat="42.7046676" lon="13.6320515"><ele>737.0</ele><time>2026-05-02T07:54:47.5Z</time></trkpt><trkpt lat="42.7047181" lon="13.6319835"><ele>739.0000000000001</ele><time>2026-05-02T07:54:49.501Z</time></trkpt><trkpt lat="42.7047708" lon="13.6319165"><ele>741.0</ele><time>2026-05-02T07:54:51.5Z</time></trkpt><trkpt lat="42.704821" lon="13.6318451"><ele>743.0</ele><time>2026-05-02T07:54:53.5Z</time></trkpt><trkpt lat="42.7048727" lon="13.6317789"><ele>745.0</ele><time>2026-05-02T07:54:55.499Z</time></trkpt><trkpt lat="42.7049265" lon="13.6317127"><ele>747.0</ele><time>2026-05-02T07:54:57.5Z</time></trkpt><trkpt lat="42.7049819" lon="13.6316427"><ele>749.0000000000001</ele><time>2026-05-02T07:54:59.499Z</time></trkpt><trkpt lat="42.7050336" lon="13.6315722"><ele>751.0</ele><time>2026-05-02T07:55:01.5Z</time></trkpt><trkpt lat="42.7050843" lon="13.6314998"><ele>751.0000000000001</ele><time>2026-05-02T07:55:03.499Z</time></trkpt><trkpt lat="42.7051373" lon="13.6314294"><ele>751.0</ele><time>2026-05-02T07:55:05.5Z</time></trkpt><trkpt lat="42.7051893" lon="13.6313584"><ele>751.0</ele><time>2026-05-02T07:55:07.5Z</time></trkpt><trkpt lat="42.7052409" lon="13.6312885"><ele>751.0</ele><time>2026-05-02T07:55:09.499Z</time></trkpt><trkpt lat="42.7052893" lon="13.6312192"><ele>751.0</ele><time>2026-05-02T07:55:11.5Z</time></trkpt><trkpt lat="42.7053331" lon="13.6311495"><ele>751.0000000000001</ele><time>2026-05-02T07:55:13.499Z</time></trkpt><trkpt lat="42.7053638" lon="13.631064"><ele>751.0</ele><time>2026-05-02T07:55:15.501Z</time></trkpt><trkpt lat="42.7053763" lon="13.6309639"><ele>751.8333333333334</ele><time>2026-05-02T07:55:17.5Z</time></trkpt><trkpt lat="42.7053653" lon="13.6308674"><ele>752.6666666666667</ele><time>2026-05-02T07:55:20.5Z</time></trkpt><trkpt lat="42.7054183" lon="13.6308121"><ele>753.5</ele><time>2026-05-02T07:55:28.499Z</time></trkpt><trkpt lat="42.7054902" lon="13.6308007"><ele>754.3333333333334</ele><time>2026-05-02T07:55:30.5Z</time></trkpt><trkpt lat="42.7055573" lon="13.6307582"><ele>755.1666666666666</ele><time>2026-05-02T07:55:32.499Z</time></trkpt><trkpt lat="42.7056372" lon="13.6307419"><ele>756.0</ele><time>2026-05-02T07:55:34.499Z</time></trkpt><trkpt lat="42.7057567" lon="13.6307109"><ele>756.0</ele><time>2026-05-02T07:55:36.5Z</time></trkpt><trkpt lat="42.7058741" lon="13.6307017"><ele>756.0</ele><time>2026-05-02T07:55:38.5Z</time></trkpt><trkpt lat="42.7059893" lon="13.6306307"><ele>756.0</ele><time>2026-05-02T07:55:40.499Z</time></trkpt><trkpt lat="42.7060389" lon="13.6305749"><ele>756.0</ele><time>2026-05-02T07:55:41.499Z</time></trkpt><trkpt lat="42.706148" lon="13.6305069"><ele>756.0</ele><time>2026-05-02T07:55:43.5Z</time></trkpt><trkpt lat="42.7062235" lon="13.6304067"><ele>751.1999999999999</ele><time>2026-05-02T07:55:45.5Z</time></trkpt><trkpt lat="42.7062914" lon="13.6303009"><ele>746.4</ele><time>2026-05-02T07:55:47.5Z</time></trkpt><trkpt lat="42.7063239" lon="13.6302186"><ele>741.6</ele><time>2026-05-02T07:55:48.499Z</time></trkpt><trkpt lat="42.7063715" lon="13.6300884"><ele>736.8</ele><time>2026-05-02T07:55:50.501Z</time></trkpt><trkpt lat="42.7063616" lon="13.6299319"><ele>732.0</ele><time>2026-05-02T07:55:52.501Z</time></trkpt><trkpt lat="42.7063253" lon="13.629778"><ele>732.0</ele><time>2026-05-02T07:55:54.5Z</time></trkpt><trkpt lat="42.7062992" lon="13.6296503"><ele>732.0</ele><time>2026-05-02T07:55:55.5Z</time></trkpt><trkpt lat="42.7062583" lon="13.6295705"><ele>732.0</ele><time>2026-05-02T07:55:56.5Z</time></trkpt><trkpt lat="42.7062052" lon="13.6295205"><ele>732.0</ele><time>2026-05-02T07:55:57.499Z</time></trkpt><trkpt lat="42.7061652" lon="13.6294297"><ele>732.0</ele><time>2026-05-02T07:55:58.499Z</time></trkpt><trkpt lat="42.7061091" lon="13.6292758"><ele>732.0</ele><time>2026-05-02T07:56:00.5Z</time></trkpt><trkpt lat="42.7060829" lon="13.6291125"><ele>736.0</ele><time>2026-05-02T07:56:02.501Z</time></trkpt><trkpt lat="42.7060628" lon="13.6289783"><ele>740.0</ele><time>2026-05-02T07:56:04.499Z</time></trkpt><trkpt lat="42.7060587" lon="13.6288375"><ele>744.0</ele><time>2026-05-02T07:56:06.499Z</time></trkpt><trkpt lat="42.7060419" lon="13.6286684"><ele>748.0</ele><time>2026-05-02T07:56:08.5Z</time></trkpt><trkpt lat="42.7060387" lon="13.6285683"><ele>752.0</ele><time>2026-05-02T07:56:09.5Z</time></trkpt><trkpt lat="42.7060421" lon="13.628473"><ele>752.0</ele><time>2026-05-02T07:56:10.5Z</time></trkpt><trkpt lat="42.7060388" lon="13.6283252"><ele>752.0</ele><time>2026-05-02T07:56:12.5Z</time></trkpt><trkpt lat="42.7060192" lon="13.6282253"><ele>752.0</ele><time>2026-05-02T07:56:14.501Z</time></trkpt><trkpt lat="42.7060166" lon="13.6281159"><ele>752.0</ele><time>2026-05-02T07:56:17.5Z</time></trkpt><trkpt lat="42.7059643" lon="13.6280395"><ele>752.0</ele><time>2026-05-02T07:56:31.501Z</time></trkpt><trkpt lat="42.7058935" lon="13.6279511"><ele>752.0</ele><time>2026-05-02T07:56:33.5Z</time></trkpt><trkpt lat="42.7057952" lon="13.6278408"><ele>749.6</ele><time>2026-05-02T07:56:35.501Z</time></trkpt><trkpt lat="42.7056906" lon="13.6277414"><ele>747.2</ele><time>2026-05-02T07:56:37.5Z</time></trkpt><trkpt lat="42.7056401" lon="13.6276784"><ele>744.8</ele><time>2026-05-02T07:56:38.499Z</time></trkpt><trkpt lat="42.7056063" lon="13.6275901"><ele>742.4</ele><time>2026-05-02T07:56:39.5Z</time></trkpt><trkpt lat="42.7055631" lon="13.6274299"><ele>740.0</ele><time>2026-05-02T07:56:41.5Z</time></trkpt><trkpt lat="42.7055682" lon="13.6273223"><ele>740.0</ele><time>2026-05-02T07:56:42.499Z</time></trkpt><trkpt lat="42.7056112" lon="13.6271407"><ele>740.0</ele><time>2026-05-02T07:56:44.498Z</time></trkpt><trkpt lat="42.7056363" lon="13.6270238"><ele>740.0</ele><time>2026-05-02T07:56:45.5Z</time></trkpt><trkpt lat="42.705643" lon="13.6268441"><ele>740.0</ele><time>2026-05-02T07:56:47.5Z</time></trkpt><trkpt lat="42.7056446" lon="13.6267257"><ele>740.0</ele><time>2026-05-02T07:56:48.5Z</time></trkpt><trkpt lat="42.7056481" lon="13.6266246"><ele>738.2</ele><time>2026-05-02T07:56:49.498Z</time></trkpt><trkpt lat="42.705649" lon="13.6265343"><ele>736.4</ele><time>2026-05-02T07:56:50.499Z</time></trkpt><trkpt lat="42.7056505" lon="13.626439"><ele>734.5999999999999</ele><time>2026-05-02T07:56:51.499Z</time></trkpt><trkpt lat="42.70566" lon="13.6262944"><ele>732.8</ele><time>2026-05-02T07:56:53.499Z</time></trkpt><trkpt lat="42.7056815" lon="13.6261404"><ele>731.0</ele><time>2026-05-02T07:56:55.498Z</time></trkpt><trkpt lat="42.7056989" lon="13.6259914"><ele>731.0</ele><time>2026-05-02T07:56:57.498Z</time></trkpt><trkpt lat="42.7057105" lon="13.6258422"><ele>731.0</ele><time>2026-05-02T07:56:59.499Z</time></trkpt><trkpt lat="42.7057325" lon="13.6256766"><ele>731.0</ele><time>2026-05-02T07:57:01.499Z</time></trkpt><trkpt lat="42.7057087" lon="13.6255809"><ele>731.0</ele><time>2026-05-02T07:57:03.499Z</time></trkpt><trkpt lat="42.7056807" lon="13.6254447"><ele>731.0</ele><time>2026-05-02T07:57:05.499Z</time></trkpt><trkpt lat="42.7056461" lon="13.6253247"><ele>730.0</ele><time>2026-05-02T07:57:07.499Z</time></trkpt><trkpt lat="42.7056466" lon="13.6252072"><ele>729.0</ele><time>2026-05-02T07:57:09.499Z</time></trkpt><trkpt lat="42.7056315" lon="13.6250761"><ele>728.0</ele><time>2026-05-02T07:57:11.5Z</time></trkpt><trkpt lat="42.705598" lon="13.6249391"><ele>727.0</ele><time>2026-05-02T07:57:13.498Z</time></trkpt><trkpt lat="42.7055495" lon="13.6248232"><ele>726.0</ele><time>2026-05-02T07:57:15.499Z</time></trkpt><trkpt lat="42.7055414" lon="13.6247295"><ele>726.0</ele><time>2026-05-02T07:57:16.5Z</time></trkpt><trkpt lat="42.7054819" lon="13.6246159"><ele>726.0</ele><time>2026-05-02T07:57:18.499Z</time></trkpt><trkpt lat="42.7054579" lon="13.6244926"><ele>726.0</ele><time>2026-05-02T07:57:20.5Z</time></trkpt><trkpt lat="42.7054009" lon="13.6243989"><ele>726.0</ele><time>2026-05-02T07:57:22.498Z</time></trkpt><trkpt lat="42.7053601" lon="13.6242791"><ele>726.0</ele><time>2026-05-02T07:57:24.499Z</time></trkpt><trkpt lat="42.7053161" lon="13.6241691"><ele>725.1999999999999</ele><time>2026-05-02T07:57:26.499Z</time></trkpt><trkpt lat="42.7052521" lon="13.6240496"><ele>724.4</ele><time>2026-05-02T07:57:28.499Z</time></trkpt><trkpt lat="42.7052208" lon="13.6239291"><ele>723.6</ele><time>2026-05-02T07:57:30.5Z</time></trkpt><trkpt lat="42.7051936" lon="13.6237814"><ele>722.8</ele><time>2026-05-02T07:57:32.499Z</time></trkpt><trkpt lat="42.7051625" lon="13.6236296"><ele>722.0</ele><time>2026-05-02T07:57:34.499Z</time></trkpt><trkpt lat="42.7051355" lon="13.6234752"><ele>729.0</ele><time>2026-05-02T07:57:36.498Z</time></trkpt><trkpt lat="42.705121" lon="13.6233413"><ele>736.0</ele><time>2026-05-02T07:57:38.499Z</time></trkpt><trkpt lat="42.7051026" lon="13.6231959"><ele>743.0</ele><time>2026-05-02T07:57:40.499Z</time></trkpt><trkpt lat="42.7050574" lon="13.6230725"><ele>750.0</ele><time>2026-05-02T07:57:42.5Z</time></trkpt><trkpt lat="42.7050224" lon="13.6229204"><ele>757.0</ele><time>2026-05-02T07:57:44.5Z</time></trkpt><trkpt lat="42.7049842" lon="13.6227802"><ele>757.0</ele><time>2026-05-02T07:57:46.498Z</time></trkpt><trkpt lat="42.7049497" lon="13.6226379"><ele>757.0</ele><time>2026-05-02T07:57:48.499Z</time></trkpt><trkpt lat="42.7049336" lon="13.6224928"><ele>757.0</ele><time>2026-05-02T07:57:50.499Z</time></trkpt><trkpt lat="42.7049124" lon="13.6223749"><ele>757.0</ele><time>2026-05-02T07:57:52.499Z</time></trkpt><trkpt lat="42.704887" lon="13.622296"><ele>757.0</ele><time>2026-05-02T07:57:54.499Z</time></trkpt><trkpt lat="42.7048845" lon="13.6221887"><ele>757.0</ele><time>2026-05-02T07:58:11.499Z</time></trkpt><trkpt lat="42.7048633" lon="13.6220668"><ele>757.3333333333334</ele><time>2026-05-02T07:58:14.499Z</time></trkpt><trkpt lat="42.7048454" lon="13.6219401"><ele>757.6666666666667</ele><time>2026-05-02T07:58:17.499Z</time></trkpt><trkpt lat="42.7048266" lon="13.6218384"><ele>758.0</ele><time>2026-05-02T07:58:19.498Z</time></trkpt><trkpt lat="42.7048068" lon="13.6217382"><ele>758.3333333333334</ele><time>2026-05-02T07:58:21.5Z</time></trkpt><trkpt lat="42.7047784" lon="13.6216364"><ele>758.6666666666666</ele><time>2026-05-02T07:58:23.5Z</time></trkpt><trkpt lat="42.7047466" lon="13.6215399"><ele>759.0</ele><time>2026-05-02T07:58:25.5Z</time></trkpt><trkpt lat="42.7047283" lon="13.6214333"><ele>759.0</ele><time>2026-05-02T07:58:27.499Z</time></trkpt><trkpt lat="42.7047101" lon="13.6213342"><ele>759.0</ele><time>2026-05-02T07:58:29.499Z</time></trkpt><trkpt lat="42.7046758" lon="13.6212434"><ele>759.0</ele><time>2026-05-02T07:58:31.498Z</time></trkpt><trkpt lat="42.7046511" lon="13.6211604"><ele>759.0</ele><time>2026-05-02T07:58:33.498Z</time></trkpt><trkpt lat="42.7046311" lon="13.6210722"><ele>759.0</ele><time>2026-05-02T07:58:35.5Z</time></trkpt><trkpt lat="42.7045986" lon="13.6209536"><ele>759.0</ele><time>2026-05-02T07:58:38.5Z</time></trkpt><trkpt lat="42.7045617" lon="13.6208613"><ele>760.3333333333334</ele><time>2026-05-02T07:58:40.499Z</time></trkpt><trkpt lat="42.7045266" lon="13.6207717"><ele>761.6666666666666</ele><time>2026-05-02T07:58:43.5Z</time></trkpt><trkpt lat="42.7044872" lon="13.6206548"><ele>763.0</ele><time>2026-05-02T07:58:47.499Z</time></trkpt><trkpt lat="42.7044647" lon="13.6205582"><ele>764.3333333333333</ele><time>2026-05-02T07:58:50.499Z</time></trkpt><trkpt lat="42.7044341" lon="13.6204687"><ele>765.6666666666666</ele><time>2026-05-02T07:58:54.499Z</time></trkpt><trkpt lat="42.7043928" lon="13.6203812"><ele>767.0</ele><time>2026-05-02T07:58:57.499Z</time></trkpt><trkpt lat="42.7043593" lon="13.6203074"><ele>770.4285714285714</ele><time>2026-05-02T07:58:59.498Z</time></trkpt><trkpt lat="42.7043363" lon="13.6202269"><ele>773.8571428571429</ele><time>2026-05-02T07:59:01.498Z</time></trkpt><trkpt lat="42.7043477" lon="13.6201067"><ele>777.2857142857142</ele><time>2026-05-02T07:59:04.499Z</time></trkpt><trkpt lat="42.7043514" lon="13.620012"><ele>780.7142857142858</ele><time>2026-05-02T07:59:06.498Z</time></trkpt><trkpt lat="42.7043728" lon="13.6199271"><ele>784.1428571428571</ele><time>2026-05-02T07:59:09.499Z</time></trkpt><trkpt lat="42.7042964" lon="13.6199091"><ele>787.5714285714286</ele><time>2026-05-02T07:59:33.5Z</time></trkpt><trkpt lat="42.7042673" lon="13.6198264"><ele>791.0</ele><time>2026-05-02T07:59:36.499Z</time></trkpt><trkpt lat="42.7042535" lon="13.6197248"><ele>791.0000000000001</ele><time>2026-05-02T07:59:38.498Z</time></trkpt><trkpt lat="42.7042335" lon="13.6196181"><ele>791.0</ele><time>2026-05-02T07:59:40.499Z</time></trkpt><trkpt lat="42.7042135" lon="13.619513"><ele>791.0</ele><time>2026-05-02T07:59:43.498Z</time></trkpt><trkpt lat="42.7041581" lon="13.6194487"><ele>791.0</ele><time>2026-05-02T07:59:46.499Z</time></trkpt><trkpt lat="42.7041291" lon="13.619372"><ele>791.0000000000001</ele><time>2026-05-02T07:59:48.499Z</time></trkpt><trkpt lat="42.7041135" lon="13.6192661"><ele>791.0</ele><time>2026-05-02T07:59:51.499Z</time></trkpt><trkpt lat="42.704065" lon="13.6191822"><ele>791.5000000000001</ele><time>2026-05-02T07:59:53.499Z</time></trkpt><trkpt lat="42.7040027" lon="13.6191288"><ele>792.0</ele><time>2026-05-02T07:59:56.498Z</time></trkpt><trkpt lat="42.703934" lon="13.6190625"><ele>792.5</ele><time>2026-05-02T07:59:59.499Z</time></trkpt><trkpt lat="42.7038804" lon="13.6189854"><ele>793.0</ele><time>2026-05-02T08:00:02.5Z</time></trkpt><trkpt lat="42.7038321" lon="13.618886"><ele>793.5000000000001</ele><time>2026-05-02T08:00:05.499Z</time></trkpt><trkpt lat="42.7037839" lon="13.6188294"><ele>794.0</ele><time>2026-05-02T08:00:07.499Z</time></trkpt><trkpt lat="42.7037272" lon="13.6187664"><ele>794.0000000000001</ele><time>2026-05-02T08:00:10.498Z</time></trkpt><trkpt lat="42.7036752" lon="13.6187011"><ele>794.0</ele><time>2026-05-02T08:00:13.5Z</time></trkpt><trkpt lat="42.7036197" lon="13.6186257"><ele>794.0</ele><time>2026-05-02T08:00:17.5Z</time></trkpt><trkpt lat="42.7035389" lon="13.6186016"><ele>794.0</ele><time>2026-05-02T08:00:20.498Z</time></trkpt><trkpt lat="42.7034783" lon="13.6185654"><ele>794.0000000000001</ele><time>2026-05-02T08:00:22.499Z</time></trkpt><trkpt lat="42.7034073" lon="13.6184749"><ele>794.0</ele><time>2026-05-02T08:00:25.499Z</time></trkpt><trkpt lat="42.7033503" lon="13.618392"><ele>796.8333333333334</ele><time>2026-05-02T08:00:28.5Z</time></trkpt><trkpt lat="42.7033074" lon="13.6183262"><ele>799.6666666666667</ele><time>2026-05-02T08:00:30.499Z</time></trkpt><trkpt lat="42.7032499" lon="13.6182572"><ele>802.5</ele><time>2026-05-02T08:00:33.499Z</time></trkpt><trkpt lat="42.7031728" lon="13.618174"><ele>805.3333333333333</ele><time>2026-05-02T08:02:12.497Z</time></trkpt><trkpt lat="42.7030992" lon="13.6181261"><ele>808.1666666666666</ele><time>2026-05-02T08:02:15.497Z</time></trkpt><trkpt lat="42.7030305" lon="13.6180834"><ele>811.0</ele><time>2026-05-02T08:02:19.498Z</time></trkpt><trkpt lat="42.702974" lon="13.6180428"><ele>811.0</ele><time>2026-05-02T08:02:21.497Z</time></trkpt><trkpt lat="42.7029068" lon="13.6179689"><ele>811.0</ele><time>2026-05-02T08:02:24.498Z</time></trkpt><trkpt lat="42.7028662" lon="13.6179024"><ele>811.0</ele><time>2026-05-02T08:02:27.497Z</time></trkpt><trkpt lat="42.7028269" lon="13.6178251"><ele>811.0</ele><time>2026-05-02T08:02:30.498Z</time></trkpt><trkpt lat="42.7028024" lon="13.6177444"><ele>811.0</ele><time>2026-05-02T08:02:32.498Z</time></trkpt><trkpt lat="42.7027618" lon="13.6176741"><ele>811.0</ele><time>2026-05-02T08:02:34.498Z</time></trkpt><trkpt lat="42.7027278" lon="13.6176017"><ele>811.0</ele><time>2026-05-02T08:02:36.497Z</time></trkpt><trkpt lat="42.7026804" lon="13.6175316"><ele>813.2857142857142</ele><time>2026-05-02T08:02:38.497Z</time></trkpt><trkpt lat="42.7026226" lon="13.6174838"><ele>815.5714285714287</ele><time>2026-05-02T08:02:41.497Z</time></trkpt><trkpt lat="42.7025796" lon="13.6174048"><ele>817.8571428571429</ele><time>2026-05-02T08:02:44.499Z</time></trkpt><trkpt lat="42.7025291" lon="13.617312"><ele>820.1428571428571</ele><time>2026-05-02T08:02:47.498Z</time></trkpt><trkpt lat="42.702488" lon="13.6172333"><ele>822.4285714285713</ele><time>2026-05-02T08:02:50.498Z</time></trkpt><trkpt lat="42.7024516" lon="13.617141"><ele>824.7142857142858</ele><time>2026-05-02T08:02:53.498Z</time></trkpt><trkpt lat="42.70243" lon="13.6170407"><ele>827.0</ele><time>2026-05-02T08:02:56.498Z</time></trkpt><trkpt lat="42.7024008" lon="13.6169327"><ele>828.1666666666667</ele><time>2026-05-02T08:02:59.498Z</time></trkpt><trkpt lat="42.7023664" lon="13.6168508"><ele>829.3333333333334</ele><time>2026-05-02T08:03:02.499Z</time></trkpt><trkpt lat="42.7023282" lon="13.6167596"><ele>830.5</ele><time>2026-05-02T08:03:06.499Z</time></trkpt><trkpt lat="42.7022947" lon="13.6166723"><ele>831.6666666666667</ele><time>2026-05-02T08:03:10.498Z</time></trkpt><trkpt lat="42.7022665" lon="13.6165646"><ele>832.8333333333334</ele><time>2026-05-02T08:03:13.497Z</time></trkpt><trkpt lat="42.7022564" lon="13.6164706"><ele>834.0</ele><time>2026-05-02T08:03:15.497Z</time></trkpt><trkpt lat="42.702239" lon="13.6163528"><ele>834.0</ele><time>2026-05-02T08:03:18.498Z</time></trkpt><trkpt lat="42.7021981" lon="13.6162629"><ele>834.0</ele><time>2026-05-02T08:03:22.498Z</time></trkpt><trkpt lat="42.7021655" lon="13.6161615"><ele>834.0</ele><time>2026-05-02T08:03:25.499Z</time></trkpt><trkpt lat="42.7021547" lon="13.6160638"><ele>834.0</ele><time>2026-05-02T08:03:28.499Z</time></trkpt><trkpt lat="42.7021585" lon="13.6159695"><ele>834.0</ele><time>2026-05-02T08:03:31.499Z</time></trkpt><trkpt lat="42.7021125" lon="13.6158818"><ele>834.0</ele><time>2026-05-02T08:03:34.498Z</time></trkpt><trkpt lat="42.7020432" lon="13.6158112"><ele>835.0</ele><time>2026-05-02T08:03:37.498Z</time></trkpt><trkpt lat="42.7019884" lon="13.6157324"><ele>836.0</ele><time>2026-05-02T08:03:40.497Z</time></trkpt><trkpt lat="42.7019332" lon="13.6156507"><ele>837.0</ele><time>2026-05-02T08:03:43.497Z</time></trkpt><trkpt lat="42.7018903" lon="13.6155735"><ele>838.0</ele><time>2026-05-02T08:03:46.498Z</time></trkpt><trkpt lat="42.7018714" lon="13.6154862"><ele>839.0</ele><time>2026-05-02T08:03:50.499Z</time></trkpt><trkpt lat="42.7018869" lon="13.6153963"><ele>840.0</ele><time>2026-05-02T08:03:55.497Z</time></trkpt><trkpt lat="42.7019175" lon="13.6152932"><ele>841.0</ele><time>2026-05-02T08:04:00.497Z</time></trkpt><trkpt lat="42.7019704" lon="13.615164"><ele>843.4999999999999</ele><time>2026-05-02T08:04:03.499Z</time></trkpt><trkpt lat="42.7020421" lon="13.6150716"><ele>846.0</ele><time>2026-05-02T08:04:05.499Z</time></trkpt><trkpt lat="42.7021091" lon="13.6150213"><ele>848.5</ele><time>2026-05-02T08:04:07.498Z</time></trkpt><trkpt lat="42.7020442" lon="13.6149828"><ele>851.0</ele><time>2026-05-02T08:04:13.497Z</time></trkpt><trkpt lat="42.7019952" lon="13.6148922"><ele>853.4999999999999</ele><time>2026-05-02T08:04:17.498Z</time></trkpt><trkpt lat="42.7019521" lon="13.6148016"><ele>856.0</ele><time>2026-05-02T08:04:21.497Z</time></trkpt><trkpt lat="42.7019148" lon="13.6147239"><ele>857.8571428571429</ele><time>2026-05-02T08:04:24.497Z</time></trkpt><trkpt lat="42.7018755" lon="13.6146359"><ele>859.7142857142858</ele><time>2026-05-02T08:04:28.498Z</time></trkpt><trkpt lat="42.701851" lon="13.6145384"><ele>861.5714285714287</ele><time>2026-05-02T08:04:31.497Z</time></trkpt><trkpt lat="42.7018155" lon="13.6144587"><ele>863.4285714285714</ele><time>2026-05-02T08:04:35.498Z</time></trkpt><trkpt lat="42.7017657" lon="13.6143867"><ele>865.2857142857142</ele><time>2026-05-02T08:04:39.498Z</time></trkpt><trkpt lat="42.7017696" lon="13.6142795"><ele>867.1428571428572</ele><time>2026-05-02T08:04:45.498Z</time></trkpt><trkpt lat="42.7017461" lon="13.6141828"><ele>869.0</ele><time>2026-05-02T08:04:49.498Z</time></trkpt><trkpt lat="42.7016775" lon="13.6141608"><ele>869.5714285714286</ele><time>2026-05-02T08:04:52.499Z</time></trkpt><trkpt lat="42.7016208" lon="13.6141128"><ele>870.1428571428571</ele><time>2026-05-02T08:04:55.498Z</time></trkpt><trkpt lat="42.7015919" lon="13.6140238"><ele>870.7142857142857</ele><time>2026-05-02T08:05:00.498Z</time></trkpt><trkpt lat="42.7015381" lon="13.6139647"><ele>871.2857142857142</ele><time>2026-05-02T08:05:04.498Z</time></trkpt><trkpt lat="42.7014682" lon="13.613914"><ele>871.8571428571429</ele><time>2026-05-02T08:05:08.498Z</time></trkpt><trkpt lat="42.7013959" lon="13.613864"><ele>872.4285714285713</ele><time>2026-05-02T08:05:11.498Z</time></trkpt><trkpt lat="42.701348" lon="13.6137974"><ele>873.0</ele><time>2026-05-02T08:05:14.498Z</time></trkpt><trkpt lat="42.7012761" lon="13.6137271"><ele>873.0</ele><time>2026-05-02T08:05:18.498Z</time></trkpt><trkpt lat="42.7012106" lon="13.6136767"><ele>873.0</ele><time>2026-05-02T08:05:22.498Z</time></trkpt><trkpt lat="42.7011457" lon="13.6136167"><ele>873.0</ele><time>2026-05-02T08:05:25.498Z</time></trkpt><trkpt lat="42.701095" lon="13.6135482"><ele>873.0</ele><time>2026-05-02T08:05:29.499Z</time></trkpt><trkpt lat="42.701019" lon="13.6134894"><ele>873.0</ele><time>2026-05-02T08:05:33.498Z</time></trkpt><trkpt lat="42.700962" lon="13.613447"><ele>873.0</ele><time>2026-05-02T08:05:36.499Z</time></trkpt><trkpt lat="42.7009086" lon="13.6133741"><ele>877.2857142857142</ele><time>2026-05-02T08:05:39.499Z</time></trkpt><trkpt lat="42.7008502" lon="13.6133265"><ele>881.5714285714286</ele><time>2026-05-02T08:05:41.497Z</time></trkpt><trkpt lat="42.7008186" lon="13.6132497"><ele>885.8571428571429</ele><time>2026-05-02T08:05:44.498Z</time></trkpt><trkpt lat="42.7007445" lon="13.6131966"><ele>890.1428571428571</ele><time>2026-05-02T08:05:48.497Z</time></trkpt><trkpt lat="42.700687" lon="13.6131466"><ele>894.4285714285714</ele><time>2026-05-02T08:05:52.498Z</time></trkpt><trkpt lat="42.700634" lon="13.6130599"><ele>898.7142857142857</ele><time>2026-05-02T08:05:56.498Z</time></trkpt><trkpt lat="42.700642" lon="13.6129659"><ele>903.0</ele><time>2026-05-02T08:05:58.499Z</time></trkpt><trkpt lat="42.7006429" lon="13.6128762"><ele>904.3333333333334</ele><time>2026-05-02T08:06:01.498Z</time></trkpt><trkpt lat="42.7006259" lon="13.6127746"><ele>905.6666666666667</ele><time>2026-05-02T08:07:49.497Z</time></trkpt><trkpt lat="42.7005872" lon="13.6126878"><ele>907.0</ele><time>2026-05-02T08:07:55.496Z</time></trkpt><trkpt lat="42.700606" lon="13.6126045"><ele>908.3333333333334</ele><time>2026-05-02T08:07:57.497Z</time></trkpt><trkpt lat="42.7006347" lon="13.6124881"><ele>909.6666666666667</ele><time>2026-05-02T08:08:00.497Z</time></trkpt><trkpt lat="42.7006361" lon="13.6123727"><ele>911.0</ele><time>2026-05-02T08:08:03.497Z</time></trkpt><trkpt lat="42.7006324" lon="13.612273"><ele>911.0000000000001</ele><time>2026-05-02T08:08:08.496Z</time></trkpt><trkpt lat="42.7006186" lon="13.6121822"><ele>911.0</ele><time>2026-05-02T08:08:13.497Z</time></trkpt><trkpt lat="42.7006448" lon="13.612077"><ele>911.0</ele><time>2026-05-02T08:08:17.497Z</time></trkpt><trkpt lat="42.7007141" lon="13.6120134"><ele>911.0</ele><time>2026-05-02T08:08:20.497Z</time></trkpt><trkpt lat="42.7007779" lon="13.6119728"><ele>911.0000000000001</ele><time>2026-05-02T08:08:25.497Z</time></trkpt><trkpt lat="42.7008344" lon="13.611888"><ele>911.0</ele><time>2026-05-02T08:08:35.497Z</time></trkpt><trkpt lat="42.7008734" lon="13.6118078"><ele>914.0</ele><time>2026-05-02T08:08:39.497Z</time></trkpt><trkpt lat="42.7008956" lon="13.6117094"><ele>917.0</ele><time>2026-05-02T08:08:43.498Z</time></trkpt><trkpt lat="42.7009048" lon="13.6116179"><ele>920.0</ele><time>2026-05-02T08:08:47.498Z</time></trkpt><trkpt lat="42.7009433" lon="13.6115344"><ele>923.0</ele><time>2026-05-02T08:08:50.497Z</time></trkpt><trkpt lat="42.7009182" lon="13.6114326"><ele>926.0</ele><time>2026-05-02T08:09:32.498Z</time></trkpt><trkpt lat="42.7009241" lon="13.6113339"><ele>929.0</ele><time>2026-05-02T08:09:36.497Z</time></trkpt><trkpt lat="42.7009579" lon="13.6112385"><ele>932.0</ele><time>2026-05-02T08:09:39.497Z</time></trkpt><trkpt lat="42.7009721" lon="13.6111279"><ele>935.8571428571429</ele><time>2026-05-02T08:09:53.498Z</time></trkpt><trkpt lat="42.700961" lon="13.6110181"><ele>939.7142857142857</ele><time>2026-05-02T08:10:13.498Z</time></trkpt><trkpt lat="42.7009895" lon="13.6109324"><ele>943.5714285714286</ele><time>2026-05-02T08:10:16.497Z</time></trkpt><trkpt lat="42.7010031" lon="13.6108418"><ele>947.4285714285714</ele><time>2026-05-02T08:10:19.497Z</time></trkpt><trkpt lat="42.7009987" lon="13.6107557"><ele>951.2857142857142</ele><time>2026-05-02T08:10:23.497Z</time></trkpt><trkpt lat="42.7010326" lon="13.6106633"><ele>955.1428571428571</ele><time>2026-05-02T08:10:57.497Z</time></trkpt><trkpt lat="42.7010347" lon="13.6105666"><ele>959.0</ele><time>2026-05-02T08:11:00.496Z</time></trkpt><trkpt lat="42.7010344" lon="13.6104686"><ele>959.0</ele><time>2026-05-02T08:11:03.498Z</time></trkpt><trkpt lat="42.7010493" lon="13.6103738"><ele>959.0</ele><time>2026-05-02T08:11:08.496Z</time></trkpt><trkpt lat="42.7010837" lon="13.6102736"><ele>959.0</ele><time>2026-05-02T08:11:34.496Z</time></trkpt><trkpt lat="42.7010942" lon="13.6101869"><ele>959.0</ele><time>2026-05-02T08:11:38.495Z</time></trkpt><trkpt lat="42.701108" lon="13.6100909"><ele>959.0</ele><time>2026-05-02T08:11:42.495Z</time></trkpt><trkpt lat="42.7011476" lon="13.6100017"><ele>959.0</ele><time>2026-05-02T08:12:07.495Z</time></trkpt><trkpt lat="42.7011682" lon="13.6099082"><ele>959.0</ele><time>2026-05-02T08:12:16.494Z</time></trkpt><trkpt lat="42.7011202" lon="13.6098474"><ele>956.4285714285714</ele><time>2026-05-02T08:12:30.495Z</time></trkpt><trkpt lat="42.7010735" lon="13.6097893"><ele>953.8571428571429</ele><time>2026-05-02T08:12:36.495Z</time></trkpt><trkpt lat="42.7011158" lon="13.6097242"><ele>951.2857142857142</ele><time>2026-05-02T08:14:19.497Z</time></trkpt><trkpt lat="42.7011533" lon="13.6098113"><ele>948.7142857142857</ele><time>2026-05-02T08:14:54.495Z</time></trkpt><trkpt lat="42.7011978" lon="13.6098898"><ele>946.1428571428571</ele><time>2026-05-02T08:14:59.495Z</time></trkpt><trkpt lat="42.7012237" lon="13.6099715"><ele>943.5714285714284</ele><time>2026-05-02T08:15:08.496Z</time></trkpt><trkpt lat="42.7011664" lon="13.6100331"><ele>940.9999999999999</ele><time>2026-05-02T08:15:12.495Z</time></trkpt><trkpt lat="42.7011206" lon="13.6101257"><ele>940.9999999999999</ele><time>2026-05-02T08:15:22.495Z</time></trkpt><trkpt lat="42.7011149" lon="13.6102249"><ele>941.0</ele><time>2026-05-02T08:15:25.497Z</time></trkpt><trkpt lat="42.7011031" lon="13.6103402"><ele>940.9999999999999</ele><time>2026-05-02T08:15:28.496Z</time></trkpt><trkpt lat="42.7011024" lon="13.6104274"><ele>940.9999999999999</ele><time>2026-05-02T08:15:32.496Z</time></trkpt><trkpt lat="42.7011173" lon="13.6105175"><ele>941.0</ele><time>2026-05-02T08:15:41.495Z</time></trkpt><trkpt lat="42.7011116" lon="13.6106128"><ele>940.9999999999999</ele><time>2026-05-02T08:15:44.497Z</time></trkpt><trkpt lat="42.7011439" lon="13.6106991"><ele>940.9999999999999</ele><time>2026-05-02T08:15:46.496Z</time></trkpt><trkpt lat="42.7011027" lon="13.6108143"><ele>939.5000000000001</ele><time>2026-05-02T08:15:48.495Z</time></trkpt><trkpt lat="42.7010397" lon="13.6108457"><ele>938.0</ele><time>2026-05-02T08:15:50.497Z</time></trkpt><trkpt lat="42.7010155" lon="13.6109396"><ele>936.5</ele><time>2026-05-02T08:15:55.497Z</time></trkpt><trkpt lat="42.7009968" lon="13.6110505"><ele>935.0</ele><time>2026-05-02T08:15:59.495Z</time></trkpt><trkpt lat="42.7009804" lon="13.6111833"><ele>933.5000000000001</ele><time>2026-05-02T08:16:02.496Z</time></trkpt><trkpt lat="42.7009652" lon="13.6112682"><ele>932.0</ele><time>2026-05-02T08:16:05.496Z</time></trkpt><trkpt lat="42.7010203" lon="13.6113157"><ele>932.0000000000001</ele><time>2026-05-02T08:16:11.495Z</time></trkpt><trkpt lat="42.700998" lon="13.6113966"><ele>932.0</ele><time>2026-05-02T08:16:13.495Z</time></trkpt><trkpt lat="42.7009729" lon="13.6115018"><ele>932.0</ele><time>2026-05-02T08:16:15.495Z</time></trkpt><trkpt lat="42.7009372" lon="13.6115925"><ele>932.0</ele><time>2026-05-02T08:16:17.495Z</time></trkpt><trkpt lat="42.7008672" lon="13.6116762"><ele>932.0000000000001</ele><time>2026-05-02T08:16:21.495Z</time></trkpt><trkpt lat="42.7007981" lon="13.6117134"><ele>932.0</ele><time>2026-05-02T08:16:23.495Z</time></trkpt><trkpt lat="42.7007847" lon="13.6118238"><ele>932.0</ele><time>2026-05-02T08:16:28.494Z</time></trkpt><trkpt lat="42.7007961" lon="13.6119535"><ele>932.0</ele><time>2026-05-02T08:16:30.496Z</time></trkpt><trkpt lat="42.7007757" lon="13.6122121"><ele>932.0</ele><time>2026-05-02T08:16:32.496Z</time></trkpt><trkpt lat="42.7007589" lon="13.612299"><ele>932.0</ele><time>2026-05-02T08:16:33.495Z</time></trkpt><trkpt lat="42.7007532" lon="13.6124184"><ele>932.0</ele><time>2026-05-02T08:16:34.495Z</time></trkpt><trkpt lat="42.7007542" lon="13.6125497"><ele>928.5000000000001</ele><time>2026-05-02T08:16:36.495Z</time></trkpt><trkpt lat="42.7007899" lon="13.6126731"><ele>925.0</ele><time>2026-05-02T08:16:38.495Z</time></trkpt><trkpt lat="42.7007963" lon="13.6127798"><ele>921.5</ele><time>2026-05-02T08:16:39.495Z</time></trkpt><trkpt lat="42.7008228" lon="13.6128862"><ele>918.0</ele><time>2026-05-02T08:16:40.494Z</time></trkpt><trkpt lat="42.7008496" lon="13.6129895"><ele>914.5000000000001</ele><time>2026-05-02T08:16:41.496Z</time></trkpt><trkpt lat="42.7008795" lon="13.6130713"><ele>911.0</ele><time>2026-05-02T08:16:42.495Z</time></trkpt><trkpt lat="42.7008531" lon="13.6131706"><ele>909.4</ele><time>2026-05-02T08:16:43.495Z</time></trkpt><trkpt lat="42.7008691" lon="13.6132544"><ele>907.8</ele><time>2026-05-02T08:16:44.496Z</time></trkpt><trkpt lat="42.7009696" lon="13.6133386"><ele>906.1999999999999</ele><time>2026-05-02T08:16:46.494Z</time></trkpt><trkpt lat="42.7010577" lon="13.6134199"><ele>904.5999999999999</ele><time>2026-05-02T08:16:48.495Z</time></trkpt><trkpt lat="42.7011411" lon="13.6135275"><ele>903.0</ele><time>2026-05-02T08:16:50.496Z</time></trkpt><trkpt lat="42.7012293" lon="13.6136279"><ele>897.0</ele><time>2026-05-02T08:16:52.495Z</time></trkpt><trkpt lat="42.7013085" lon="13.6137225"><ele>891.0</ele><time>2026-05-02T08:16:54.496Z</time></trkpt><trkpt lat="42.701364" lon="13.6137783"><ele>885.0</ele><time>2026-05-02T08:16:56.494Z</time></trkpt><trkpt lat="42.7014525" lon="13.6138508"><ele>879.0</ele><time>2026-05-02T08:16:58.494Z</time></trkpt><trkpt lat="42.7015026" lon="13.6140045"><ele>873.0</ele><time>2026-05-02T08:17:00.495Z</time></trkpt><trkpt lat="42.7015798" lon="13.6140817"><ele>873.0</ele><time>2026-05-02T08:17:02.495Z</time></trkpt><trkpt lat="42.7016321" lon="13.6142201"><ele>873.0</ele><time>2026-05-02T08:17:04.496Z</time></trkpt><trkpt lat="42.7016963" lon="13.6143631"><ele>873.0</ele><time>2026-05-02T08:17:06.494Z</time></trkpt><trkpt lat="42.7017267" lon="13.6144385"><ele>873.0</ele><time>2026-05-02T08:17:07.496Z</time></trkpt><trkpt lat="42.7017757" lon="13.6145291"><ele>873.0</ele><time>2026-05-02T08:17:08.496Z</time></trkpt><trkpt lat="42.7018311" lon="13.6146008"><ele>872.3333333333334</ele><time>2026-05-02T08:17:09.495Z</time></trkpt><trkpt lat="42.7018734" lon="13.6146811"><ele>871.6666666666667</ele><time>2026-05-02T08:17:10.496Z</time></trkpt><trkpt lat="42.7019076" lon="13.6147619"><ele>871.0</ele><time>2026-05-02T08:17:11.495Z</time></trkpt><trkpt lat="42.7019605" lon="13.6148528"><ele>870.3333333333334</ele><time>2026-05-02T08:17:13.495Z</time></trkpt><trkpt lat="42.702022" lon="13.6148962"><ele>869.6666666666667</ele><time>2026-05-02T08:17:14.495Z</time></trkpt><trkpt lat="42.7021078" lon="13.6150145"><ele>869.0</ele><time>2026-05-02T08:17:16.495Z</time></trkpt><trkpt lat="42.7020952" lon="13.6151029"><ele>867.1428571428572</ele><time>2026-05-02T08:17:18.495Z</time></trkpt><trkpt lat="42.702069" lon="13.6151882"><ele>865.2857142857142</ele><time>2026-05-02T08:17:21.495Z</time></trkpt><trkpt lat="42.7020045" lon="13.6152225"><ele>863.4285714285714</ele><time>2026-05-02T08:17:24.495Z</time></trkpt><trkpt lat="42.7019897" lon="13.6153241"><ele>861.5714285714287</ele><time>2026-05-02T08:17:26.496Z</time></trkpt><trkpt lat="42.7019863" lon="13.6154223"><ele>859.7142857142858</ele><time>2026-05-02T08:17:29.495Z</time></trkpt><trkpt lat="42.7019553" lon="13.6155121"><ele>857.8571428571429</ele><time>2026-05-02T08:17:31.495Z</time></trkpt><trkpt lat="42.7019778" lon="13.6156079"><ele>856.0</ele><time>2026-05-02T08:17:34.495Z</time></trkpt><trkpt lat="42.7020426" lon="13.615717"><ele>853.0</ele><time>2026-05-02T08:17:36.495Z</time></trkpt><trkpt lat="42.7021001" lon="13.6158557"><ele>849.9999999999999</ele><time>2026-05-02T08:17:38.495Z</time></trkpt><trkpt lat="42.7021681" lon="13.6159377"><ele>847.0</ele><time>2026-05-02T08:17:40.494Z</time></trkpt><trkpt lat="42.7021915" lon="13.616023"><ele>844.0</ele><time>2026-05-02T08:17:42.494Z</time></trkpt><trkpt lat="42.7022015" lon="13.6161672"><ele>841.0</ele><time>2026-05-02T08:17:44.495Z</time></trkpt><trkpt lat="42.7022241" lon="13.6163026"><ele>839.5999999999999</ele><time>2026-05-02T08:17:46.495Z</time></trkpt><trkpt lat="42.7022771" lon="13.6163836"><ele>838.2</ele><time>2026-05-02T08:17:48.495Z</time></trkpt><trkpt lat="42.7023084" lon="13.6165082"><ele>836.8</ele><time>2026-05-02T08:17:50.495Z</time></trkpt><trkpt lat="42.7023484" lon="13.6166273"><ele>835.4000000000001</ele><time>2026-05-02T08:17:52.494Z</time></trkpt><trkpt lat="42.7023802" lon="13.6167465"><ele>834.0</ele><time>2026-05-02T08:17:54.495Z</time></trkpt><trkpt lat="42.70242" lon="13.6168757"><ele>832.6</ele><time>2026-05-02T08:17:56.496Z</time></trkpt><trkpt lat="42.7024712" lon="13.6169861"><ele>831.2</ele><time>2026-05-02T08:17:58.495Z</time></trkpt><trkpt lat="42.702517" lon="13.6171207"><ele>829.8000000000001</ele><time>2026-05-02T08:18:00.494Z</time></trkpt><trkpt lat="42.7025854" lon="13.6172678"><ele>828.4000000000001</ele><time>2026-05-02T08:18:02.496Z</time></trkpt><trkpt lat="42.7026321" lon="13.6173812"><ele>827.0</ele><time>2026-05-02T08:18:04.495Z</time></trkpt><trkpt lat="42.7026869" lon="13.6174437"><ele>825.0</ele><time>2026-05-02T08:18:05.494Z</time></trkpt><trkpt lat="42.702771" lon="13.6175869"><ele>823.0</ele><time>2026-05-02T08:18:07.494Z</time></trkpt><trkpt lat="42.7028312" lon="13.6177099"><ele>821.0</ele><time>2026-05-02T08:18:09.495Z</time></trkpt><trkpt lat="42.7028844" lon="13.6178501"><ele>819.0</ele><time>2026-05-02T08:18:11.495Z</time></trkpt><trkpt lat="42.7029356" lon="13.6179116"><ele>817.0</ele><time>2026-05-02T08:18:12.495Z</time></trkpt><trkpt lat="42.7029736" lon="13.6179938"><ele>815.9999999999999</ele><time>2026-05-02T08:18:13.495Z</time></trkpt><trkpt lat="42.7030265" lon="13.6180501"><ele>815.0</ele><time>2026-05-02T08:18:14.494Z</time></trkpt><trkpt lat="42.7030803" lon="13.6181052"><ele>814.0</ele><time>2026-05-02T08:18:15.495Z</time></trkpt><trkpt lat="42.7031457" lon="13.6181408"><ele>813.0</ele><time>2026-05-02T08:18:16.495Z</time></trkpt><trkpt lat="42.7031988" lon="13.6181874"><ele>811.9999999999999</ele><time>2026-05-02T08:18:17.494Z</time></trkpt><trkpt lat="42.7032949" lon="13.6182617"><ele>811.0</ele><time>2026-05-02T08:18:19.494Z</time></trkpt><trkpt lat="42.7034015" lon="13.6183617"><ele>811.0</ele><time>2026-05-02T08:18:21.496Z</time></trkpt><trkpt lat="42.7034943" lon="13.6184515"><ele>811.0</ele><time>2026-05-02T08:18:23.495Z</time></trkpt><trkpt lat="42.7035856" lon="13.618514"><ele>811.0</ele><time>2026-05-02T08:18:25.496Z</time></trkpt><trkpt lat="42.7036654" lon="13.6186064"><ele>811.0</ele><time>2026-05-02T08:18:27.496Z</time></trkpt><trkpt lat="42.7037284" lon="13.6187122"><ele>811.0</ele><time>2026-05-02T08:18:29.496Z</time></trkpt><trkpt lat="42.7038035" lon="13.618823"><ele>808.1666666666666</ele><time>2026-05-02T08:18:31.495Z</time></trkpt><trkpt lat="42.7038597" lon="13.6189036"><ele>805.3333333333333</ele><time>2026-05-02T08:18:33.494Z</time></trkpt><trkpt lat="42.7039184" lon="13.6189569"><ele>802.5</ele><time>2026-05-02T08:18:42.495Z</time></trkpt><trkpt lat="42.7039716" lon="13.6190304"><ele>799.6666666666667</ele><time>2026-05-02T08:18:45.495Z</time></trkpt><trkpt lat="42.7040213" lon="13.6191104"><ele>796.8333333333334</ele><time>2026-05-02T08:18:47.495Z</time></trkpt><trkpt lat="42.7040705" lon="13.6192114"><ele>794.0</ele><time>2026-05-02T08:18:49.495Z</time></trkpt><trkpt lat="42.7041078" lon="13.6193729"><ele>794.0</ele><time>2026-05-02T08:18:51.494Z</time></trkpt><trkpt lat="42.7041266" lon="13.6194674"><ele>794.0</ele><time>2026-05-02T08:18:52.494Z</time></trkpt><trkpt lat="42.7041562" lon="13.6195624"><ele>794.0</ele><time>2026-05-02T08:18:53.496Z</time></trkpt><trkpt lat="42.7042069" lon="13.6196292"><ele>794.0</ele><time>2026-05-02T08:18:54.495Z</time></trkpt><trkpt lat="42.7042296" lon="13.6197115"><ele>794.0</ele><time>2026-05-02T08:18:55.495Z</time></trkpt><trkpt lat="42.7042542" lon="13.6198058"><ele>794.0</ele><time>2026-05-02T08:18:56.495Z</time></trkpt><trkpt lat="42.7043229" lon="13.6198822"><ele>794.0</ele><time>2026-05-02T08:18:58.494Z</time></trkpt><trkpt lat="42.7044015" lon="13.6198633"><ele>793.5000000000001</ele><time>2026-05-02T08:19:01.496Z</time></trkpt><trkpt lat="42.7044055" lon="13.6197718"><ele>793.0</ele><time>2026-05-02T08:19:04.496Z</time></trkpt><trkpt lat="42.704435" lon="13.6196783"><ele>792.5</ele><time>2026-05-02T08:19:08.496Z</time></trkpt><trkpt lat="42.7044442" lon="13.6195797"><ele>792.0</ele><time>2026-05-02T08:19:11.496Z</time></trkpt><trkpt lat="42.7044634" lon="13.619478"><ele>791.5000000000001</ele><time>2026-05-02T08:19:13.494Z</time></trkpt><trkpt lat="42.7044787" lon="13.6193781"><ele>791.0</ele><time>2026-05-02T08:19:16.495Z</time></trkpt><trkpt lat="42.7044992" lon="13.6192653"><ele>789.8333333333334</ele><time>2026-05-02T08:19:19.494Z</time></trkpt><trkpt lat="42.7045457" lon="13.6192003"><ele>788.6666666666667</ele><time>2026-05-02T08:19:21.494Z</time></trkpt><trkpt lat="42.7045936" lon="13.6191442"><ele>787.5</ele><time>2026-05-02T08:19:22.495Z</time></trkpt><trkpt lat="42.7046515" lon="13.6190582"><ele>786.3333333333333</ele><time>2026-05-02T08:19:24.495Z</time></trkpt><trkpt lat="42.7047288" lon="13.6190261"><ele>785.1666666666666</ele><time>2026-05-02T08:19:27.496Z</time></trkpt><trkpt lat="42.7048103" lon="13.6190274"><ele>784.0</ele><time>2026-05-02T08:19:30.495Z</time></trkpt><trkpt lat="42.7048958" lon="13.6190673"><ele>783.9999999999999</ele><time>2026-05-02T08:19:33.495Z</time></trkpt><trkpt lat="42.7049613" lon="13.6190754"><ele>784.0</ele><time>2026-05-02T08:19:35.496Z</time></trkpt><trkpt lat="42.7050473" lon="13.6190684"><ele>784.0</ele><time>2026-05-02T08:19:38.495Z</time></trkpt><trkpt lat="42.7051218" lon="13.6190303"><ele>784.0</ele><time>2026-05-02T08:20:01.495Z</time></trkpt><trkpt lat="42.7051855" lon="13.6190022"><ele>783.9999999999999</ele><time>2026-05-02T08:20:15.494Z</time></trkpt><trkpt lat="42.7052623" lon="13.6189697"><ele>784.0</ele><time>2026-05-02T08:20:19.496Z</time></trkpt><trkpt lat="42.7052605" lon="13.6188408"><ele>784.0</ele><time>2026-05-02T08:20:22.494Z</time></trkpt><trkpt lat="42.7052253" lon="13.6187043"><ele>784.0</ele><time>2026-05-02T08:20:24.494Z</time></trkpt><trkpt lat="42.7051977" lon="13.618616"><ele>784.0</ele><time>2026-05-02T08:20:25.495Z</time></trkpt><trkpt lat="42.7051865" lon="13.6185285"><ele>784.0</ele><time>2026-05-02T08:20:26.494Z</time></trkpt><trkpt lat="42.7052128" lon="13.6183688"><ele>784.0</ele><time>2026-05-02T08:20:28.495Z</time></trkpt><trkpt lat="42.7053052" lon="13.6183815"><ele>782.0</ele><time>2026-05-02T08:20:30.495Z</time></trkpt><trkpt lat="42.7053712" lon="13.6183612"><ele>780.0</ele><time>2026-05-02T08:20:32.495Z</time></trkpt><trkpt lat="42.7054416" lon="13.6183339"><ele>778.0</ele><time>2026-05-02T08:20:34.495Z</time></trkpt><trkpt lat="42.705484" lon="13.6182679"><ele>776.0</ele><time>2026-05-02T08:20:36.495Z</time></trkpt><trkpt lat="42.7055261" lon="13.6181979"><ele>774.0</ele><time>2026-05-02T08:20:38.494Z</time></trkpt><trkpt lat="42.7055603" lon="13.6181257"><ele>772.0</ele><time>2026-05-02T08:20:40.496Z</time></trkpt><trkpt lat="42.7055958" lon="13.6180473"><ele>770.0</ele><time>2026-05-02T08:20:42.496Z</time></trkpt><trkpt lat="42.7056506" lon="13.6179446"><ele>770.0000000000001</ele><time>2026-05-02T08:20:45.495Z</time></trkpt><trkpt lat="42.7056886" lon="13.6178687"><ele>770.0</ele><time>2026-05-02T08:20:47.495Z</time></trkpt><trkpt lat="42.7057526" lon="13.6177719"><ele>770.0</ele><time>2026-05-02T08:20:50.494Z</time></trkpt><trkpt lat="42.7057819" lon="13.6176711"><ele>770.0</ele><time>2026-05-02T08:20:52.495Z</time></trkpt><trkpt lat="42.705796" lon="13.6175414"><ele>770.0000000000001</ele><time>2026-05-02T08:20:55.495Z</time></trkpt><trkpt lat="42.7057822" lon="13.6174414"><ele>770.0</ele><time>2026-05-02T08:20:57.494Z</time></trkpt><trkpt lat="42.7057354" lon="13.6173619"><ele>771.2</ele><time>2026-05-02T08:20:59.495Z</time></trkpt><trkpt lat="42.7056826" lon="13.6172884"><ele>772.4</ele><time>2026-05-02T08:21:01.494Z</time></trkpt><trkpt lat="42.7055861" lon="13.6172013"><ele>773.5999999999999</ele><time>2026-05-02T08:21:03.495Z</time></trkpt><trkpt lat="42.7055141" lon="13.6171119"><ele>774.8</ele><time>2026-05-02T08:21:05.494Z</time></trkpt><trkpt lat="42.7054788" lon="13.6169853"><ele>776.0</ele><time>2026-05-02T08:21:07.496Z</time></trkpt><trkpt lat="42.7054595" lon="13.6168931"><ele>779.8</ele><time>2026-05-02T08:21:09.495Z</time></trkpt><trkpt lat="42.7055414" lon="13.6168404"><ele>783.5999999999999</ele><time>2026-05-02T08:21:11.495Z</time></trkpt><trkpt lat="42.7056532" lon="13.6168371"><ele>787.4</ele><time>2026-05-02T08:21:14.495Z</time></trkpt><trkpt lat="42.705755" lon="13.6168928"><ele>791.2</ele><time>2026-05-02T08:21:16.494Z</time></trkpt><trkpt lat="42.7058559" lon="13.6169332"><ele>795.0</ele><time>2026-05-02T08:21:18.494Z</time></trkpt><trkpt lat="42.7059339" lon="13.616927"><ele>795.0</ele><time>2026-05-02T08:21:19.494Z</time></trkpt><trkpt lat="42.7059973" lon="13.6169197"><ele>795.0</ele><time>2026-05-02T08:21:20.495Z</time></trkpt><trkpt lat="42.7060621" lon="13.6169327"><ele>795.0</ele><time>2026-05-02T08:21:21.495Z</time></trkpt><trkpt lat="42.7061876" lon="13.6168706"><ele>795.0</ele><time>2026-05-02T08:21:23.494Z</time></trkpt><trkpt lat="42.7062661" lon="13.6167941"><ele>795.0</ele><time>2026-05-02T08:21:24.495Z</time></trkpt><trkpt lat="42.7063314" lon="13.6167263"><ele>795.0</ele><time>2026-05-02T08:21:25.495Z</time></trkpt><trkpt lat="42.7063794" lon="13.6166393"><ele>790.8</ele><time>2026-05-02T08:21:26.495Z</time></trkpt><trkpt lat="42.706449" lon="13.6165669"><ele>786.6</ele><time>2026-05-02T08:21:27.495Z</time></trkpt><trkpt lat="42.7065179" lon="13.6164989"><ele>782.4000000000001</ele><time>2026-05-02T08:21:28.494Z</time></trkpt><trkpt lat="42.7065821" lon="13.6164061"><ele>778.2</ele><time>2026-05-02T08:21:30.495Z</time></trkpt><trkpt lat="42.7066433" lon="13.6162918"><ele>774.0</ele><time>2026-05-02T08:21:32.496Z</time></trkpt><trkpt lat="42.7067006" lon="13.6161876"><ele>776.0</ele><time>2026-05-02T08:21:34.495Z</time></trkpt><trkpt lat="42.7067376" lon="13.6161089"><ele>778.0</ele><time>2026-05-02T08:21:35.494Z</time></trkpt><trkpt lat="42.7068059" lon="13.6161421"><ele>780.0</ele><time>2026-05-02T08:21:54.494Z</time></trkpt><trkpt lat="42.7068225" lon="13.6160133"><ele>782.0</ele><time>2026-05-02T08:22:33.494Z</time></trkpt><trkpt lat="42.7068086" lon="13.6158908"><ele>784.0</ele><time>2026-05-02T08:22:35.494Z</time></trkpt><trkpt lat="42.7068044" lon="13.6157765"><ele>786.0</ele><time>2026-05-02T08:22:37.493Z</time></trkpt><trkpt lat="42.7068161" lon="13.6156637"><ele>786.0000000000001</ele><time>2026-05-02T08:22:39.494Z</time></trkpt><trkpt lat="42.7068205" lon="13.6155549"><ele>786.0</ele><time>2026-05-02T08:22:41.493Z</time></trkpt><trkpt lat="42.7068352" lon="13.6154685"><ele>786.0</ele><time>2026-05-02T08:22:43.494Z</time></trkpt><trkpt lat="42.7068591" lon="13.6153733"><ele>786.0</ele><time>2026-05-02T08:22:45.493Z</time></trkpt><trkpt lat="42.7068855" lon="13.6152811"><ele>786.0</ele><time>2026-05-02T08:22:47.493Z</time></trkpt><trkpt lat="42.7069175" lon="13.615206"><ele>786.0000000000001</ele><time>2026-05-02T08:22:49.494Z</time></trkpt><trkpt lat="42.7069692" lon="13.6151363"><ele>786.0</ele><time>2026-05-02T08:22:51.494Z</time></trkpt><trkpt lat="42.7070225" lon="13.6150514"><ele>787.4285714285714</ele><time>2026-05-02T08:22:53.495Z</time></trkpt><trkpt lat="42.7070664" lon="13.6149417"><ele>788.8571428571429</ele><time>2026-05-02T08:22:55.494Z</time></trkpt><trkpt lat="42.7071253" lon="13.6148666"><ele>790.2857142857142</ele><time>2026-05-02T08:22:57.495Z</time></trkpt><trkpt lat="42.707185" lon="13.614814"><ele>791.7142857142858</ele><time>2026-05-02T08:22:59.493Z</time></trkpt><trkpt lat="42.7072441" lon="13.6147703"><ele>793.1428571428571</ele><time>2026-05-02T08:23:01.493Z</time></trkpt><trkpt lat="42.7073035" lon="13.6147392"><ele>794.5714285714286</ele><time>2026-05-02T08:23:03.493Z</time></trkpt><trkpt lat="42.7073536" lon="13.614676"><ele>796.0</ele><time>2026-05-02T08:23:08.495Z</time></trkpt><trkpt lat="42.7073595" lon="13.6145555"><ele>797.9999999999999</ele><time>2026-05-02T08:23:11.494Z</time></trkpt><trkpt lat="42.7073186" lon="13.6144642"><ele>800.0</ele><time>2026-05-02T08:23:14.493Z</time></trkpt><trkpt lat="42.7072736" lon="13.6143888"><ele>802.0</ele><time>2026-05-02T08:23:17.493Z</time></trkpt><trkpt lat="42.707288" lon="13.6142848"><ele>804.0</ele><time>2026-05-02T08:23:21.494Z</time></trkpt><trkpt lat="42.7073373" lon="13.6142084"><ele>806.0</ele><time>2026-05-02T08:23:24.494Z</time></trkpt><trkpt lat="42.707395" lon="13.6141557"><ele>807.9999999999999</ele><time>2026-05-02T08:23:26.493Z</time></trkpt><trkpt lat="42.7074584" lon="13.6140964"><ele>810.0</ele><time>2026-05-02T08:23:28.493Z</time></trkpt><trkpt lat="42.7075205" lon="13.6140452"><ele>809.9999999999999</ele><time>2026-05-02T08:23:30.493Z</time></trkpt><trkpt lat="42.7075909" lon="13.614058"><ele>810.0</ele><time>2026-05-02T08:23:34.495Z</time></trkpt><trkpt lat="42.7076536" lon="13.6140436"><ele>810.0</ele><time>2026-05-02T08:23:37.495Z</time></trkpt><trkpt lat="42.7077317" lon="13.6140088"><ele>810.0</ele><time>2026-05-02T08:23:41.494Z</time></trkpt><trkpt lat="42.7077848" lon="13.61395"><ele>810.0</ele><time>2026-05-02T08:23:47.495Z</time></trkpt><trkpt lat="42.7078056" lon="13.6138526"><ele>809.9999999999999</ele><time>2026-05-02T08:23:52.494Z</time></trkpt><trkpt lat="42.7078358" lon="13.6137535"><ele>810.0</ele><time>2026-05-02T08:23:56.495Z</time></trkpt><trkpt lat="42.7078795" lon="13.6136754"><ele>811.3333333333334</ele><time>2026-05-02T08:23:59.495Z</time></trkpt><trkpt lat="42.7078859" lon="13.6135615"><ele>812.6666666666667</ele><time>2026-05-02T08:24:03.494Z</time></trkpt><trkpt lat="42.7078746" lon="13.6134576"><ele>814.0</ele><time>2026-05-02T08:24:06.494Z</time></trkpt><trkpt lat="42.70792" lon="13.6133636"><ele>815.3333333333334</ele><time>2026-05-02T08:24:09.493Z</time></trkpt><trkpt lat="42.7079617" lon="13.6132949"><ele>816.6666666666667</ele><time>2026-05-02T08:24:11.495Z</time></trkpt><trkpt lat="42.7080164" lon="13.6132163"><ele>818.0</ele><time>2026-05-02T08:24:14.495Z</time></trkpt><trkpt lat="42.7080538" lon="13.6131311"><ele>818.0000000000001</ele><time>2026-05-02T08:24:18.495Z</time></trkpt><trkpt lat="42.7081217" lon="13.6130659"><ele>818.0</ele><time>2026-05-02T08:24:21.494Z</time></trkpt><trkpt lat="42.7081765" lon="13.6130023"><ele>818.0</ele><time>2026-05-02T08:24:24.494Z</time></trkpt><trkpt lat="42.7082283" lon="13.6128899"><ele>818.0</ele><time>2026-05-02T08:24:27.494Z</time></trkpt><trkpt lat="42.7082638" lon="13.6127919"><ele>818.0000000000001</ele><time>2026-05-02T08:24:29.494Z</time></trkpt><trkpt lat="42.7083054" lon="13.6127153"><ele>818.0</ele><time>2026-05-02T08:24:32.494Z</time></trkpt><trkpt lat="42.7083276" lon="13.6126288"><ele>818.1666666666667</ele><time>2026-05-02T08:24:35.495Z</time></trkpt><trkpt lat="42.7083688" lon="13.6125624"><ele>818.3333333333334</ele><time>2026-05-02T08:24:38.494Z</time></trkpt><trkpt lat="42.7083993" lon="13.6124538"><ele>818.5</ele><time>2026-05-02T08:24:42.494Z</time></trkpt><trkpt lat="42.7084582" lon="13.6123534"><ele>818.6666666666667</ele><time>2026-05-02T08:24:45.494Z</time></trkpt><trkpt lat="42.7085205" lon="13.6122921"><ele>818.8333333333334</ele><time>2026-05-02T08:24:47.494Z</time></trkpt><trkpt lat="42.7085728" lon="13.6122153"><ele>819.0</ele><time>2026-05-02T08:24:50.493Z</time></trkpt><trkpt lat="42.7086241" lon="13.6121277"><ele>819.0</ele><time>2026-05-02T08:24:53.494Z</time></trkpt><trkpt lat="42.7086915" lon="13.6120476"><ele>819.0</ele><time>2026-05-02T08:24:56.494Z</time></trkpt><trkpt lat="42.708732" lon="13.6119732"><ele>819.0</ele><time>2026-05-02T08:24:59.495Z</time></trkpt><trkpt lat="42.7088016" lon="13.611911"><ele>819.0</ele><time>2026-05-02T08:25:03.493Z</time></trkpt><trkpt lat="42.7088548" lon="13.6118471"><ele>819.0</ele><time>2026-05-02T08:25:07.495Z</time></trkpt><trkpt lat="42.708926" lon="13.6117952"><ele>819.0</ele><time>2026-05-02T08:25:10.495Z</time></trkpt><trkpt lat="42.7090078" lon="13.611789"><ele>822.0</ele><time>2026-05-02T08:25:13.493Z</time></trkpt><trkpt lat="42.7090784" lon="13.6117395"><ele>825.0</ele><time>2026-05-02T08:25:17.495Z</time></trkpt><trkpt lat="42.7091048" lon="13.6116305"><ele>828.0</ele><time>2026-05-02T08:25:21.494Z</time></trkpt><trkpt lat="42.7091199" lon="13.6115409"><ele>831.0</ele><time>2026-05-02T08:25:24.494Z</time></trkpt><trkpt lat="42.7091529" lon="13.6114379"><ele>834.0</ele><time>2026-05-02T08:25:28.494Z</time></trkpt><trkpt lat="42.7092119" lon="13.6113609"><ele>837.0</ele><time>2026-05-02T08:25:32.494Z</time></trkpt><trkpt lat="42.7092743" lon="13.6113047"><ele>837.0</ele><time>2026-05-02T08:25:35.495Z</time></trkpt><trkpt lat="42.7093207" lon="13.6112169"><ele>837.0</ele><time>2026-05-02T08:25:39.494Z</time></trkpt><trkpt lat="42.7093313" lon="13.6111153"><ele>837.0</ele><time>2026-05-02T08:25:43.494Z</time></trkpt><trkpt lat="42.7093122" lon="13.6110143"><ele>837.0</ele><time>2026-05-02T08:25:46.494Z</time></trkpt><trkpt lat="42.7092917" lon="13.6109241"><ele>837.0</ele><time>2026-05-02T08:25:50.494Z</time></trkpt><trkpt lat="42.7092571" lon="13.6108462"><ele>837.0</ele><time>2026-05-02T08:25:53.494Z</time></trkpt><trkpt lat="42.7091835" lon="13.6107898"><ele>839.6666666666666</ele><time>2026-05-02T08:25:56.494Z</time></trkpt><trkpt lat="42.7091395" lon="13.6106969"><ele>842.3333333333333</ele><time>2026-05-02T08:26:00.494Z</time></trkpt><trkpt lat="42.7090978" lon="13.610613"><ele>845.0</ele><time>2026-05-02T08:26:03.495Z</time></trkpt><trkpt lat="42.7090544" lon="13.6105234"><ele>847.6666666666666</ele><time>2026-05-02T08:26:07.494Z</time></trkpt><trkpt lat="42.7090417" lon="13.6104391"><ele>850.3333333333333</ele><time>2026-05-02T08:26:10.494Z</time></trkpt><trkpt lat="42.7090255" lon="13.6103398"><ele>853.0</ele><time>2026-05-02T08:26:13.495Z</time></trkpt><trkpt lat="42.709038" lon="13.6102213"><ele>855.4999999999999</ele><time>2026-05-02T08:26:17.494Z</time></trkpt><trkpt lat="42.7090852" lon="13.6101205"><ele>858.0</ele><time>2026-05-02T08:26:20.494Z</time></trkpt><trkpt lat="42.7091304" lon="13.6100322"><ele>860.5</ele><time>2026-05-02T08:26:23.493Z</time></trkpt><trkpt lat="42.7091358" lon="13.609936"><ele>863.0</ele><time>2026-05-02T08:26:26.494Z</time></trkpt><trkpt lat="42.7091253" lon="13.6098495"><ele>865.4999999999999</ele><time>2026-05-02T08:26:29.494Z</time></trkpt><trkpt lat="42.7091479" lon="13.6097656"><ele>868.0</ele><time>2026-05-02T08:26:32.494Z</time></trkpt><trkpt lat="42.7091439" lon="13.6096516"><ele>867.9999999999999</ele><time>2026-05-02T08:26:35.493Z</time></trkpt><trkpt lat="42.7091256" lon="13.6095467"><ele>868.0</ele><time>2026-05-02T08:26:38.492Z</time></trkpt><trkpt lat="42.7091012" lon="13.6094545"><ele>868.0</ele><time>2026-05-02T08:26:41.494Z</time></trkpt><trkpt lat="42.7090737" lon="13.6093638"><ele>868.0</ele><time>2026-05-02T08:26:44.494Z</time></trkpt><trkpt lat="42.709057" lon="13.6092613"><ele>867.9999999999999</ele><time>2026-05-02T08:26:48.493Z</time></trkpt><trkpt lat="42.7090083" lon="13.6091683"><ele>868.0</ele><time>2026-05-02T08:26:52.492Z</time></trkpt><trkpt lat="42.7090051" lon="13.6090689"><ele>870.9999999999999</ele><time>2026-05-02T08:26:54.492Z</time></trkpt><trkpt lat="42.70899" lon="13.6089638"><ele>874.0</ele><time>2026-05-02T08:26:56.492Z</time></trkpt><trkpt lat="42.7090211" lon="13.6088598"><ele>877.0</ele><time>2026-05-02T08:26:57.493Z</time></trkpt><trkpt lat="42.7089655" lon="13.6087876"><ele>880.0</ele><time>2026-05-02T08:27:03.493Z</time></trkpt><trkpt lat="42.7089075" lon="13.6087075"><ele>882.9999999999999</ele><time>2026-05-02T08:27:07.494Z</time></trkpt><trkpt lat="42.7088634" lon="13.6086391"><ele>886.0</ele><time>2026-05-02T08:27:10.493Z</time></trkpt><trkpt lat="42.7087924" lon="13.6086039"><ele>889.1666666666666</ele><time>2026-05-02T08:27:15.493Z</time></trkpt><trkpt lat="42.7087012" lon="13.6085997"><ele>892.3333333333333</ele><time>2026-05-02T08:27:18.492Z</time></trkpt><trkpt lat="42.708634" lon="13.6085714"><ele>895.5</ele><time>2026-05-02T08:27:21.494Z</time></trkpt><trkpt lat="42.7086214" lon="13.6084653"><ele>898.6666666666667</ele><time>2026-05-02T08:27:25.493Z</time></trkpt><trkpt lat="42.7086453" lon="13.6083669"><ele>901.8333333333334</ele><time>2026-05-02T08:27:28.492Z</time></trkpt><trkpt lat="42.7086766" lon="13.6082676"><ele>905.0</ele><time>2026-05-02T08:27:32.493Z</time></trkpt><trkpt lat="42.7087235" lon="13.6081317"><ele>905.0</ele><time>2026-05-02T08:28:33.493Z</time></trkpt><trkpt lat="42.7087263" lon="13.6080445"><ele>904.9999999999999</ele><time>2026-05-02T08:30:13.493Z</time></trkpt><trkpt lat="42.7087405" lon="13.6079434"><ele>905.0</ele><time>2026-05-02T08:30:16.492Z</time></trkpt><trkpt lat="42.7087691" lon="13.6078411"><ele>905.0</ele><time>2026-05-02T08:30:19.493Z</time></trkpt><trkpt lat="42.7088047" lon="13.6077637"><ele>904.9999999999999</ele><time>2026-05-02T08:30:22.493Z</time></trkpt><trkpt lat="42.708818" lon="13.6076735"><ele>905.0</ele><time>2026-05-02T08:30:25.492Z</time></trkpt><trkpt lat="42.7087516" lon="13.6076373"><ele>905.0</ele><time>2026-05-02T08:30:30.491Z</time></trkpt><trkpt lat="42.7086752" lon="13.6075857"><ele>908.0</ele><time>2026-05-02T08:30:34.492Z</time></trkpt><trkpt lat="42.7086252" lon="13.6075206"><ele>910.9999999999999</ele><time>2026-05-02T08:30:37.491Z</time></trkpt><trkpt lat="42.708571" lon="13.6074713"><ele>914.0</ele><time>2026-05-02T08:30:40.491Z</time></trkpt><trkpt lat="42.7085083" lon="13.607498"><ele>917.0</ele><time>2026-05-02T08:32:11.492Z</time></trkpt><trkpt lat="42.708429" lon="13.6074759"><ele>919.9999999999999</ele><time>2026-05-02T08:32:14.492Z</time></trkpt><trkpt lat="42.7083549" lon="13.6074518"><ele>923.0</ele><time>2026-05-02T08:32:17.492Z</time></trkpt><trkpt lat="42.7082899" lon="13.6074494"><ele>926.0</ele><time>2026-05-02T08:32:19.493Z</time></trkpt><trkpt lat="42.7082127" lon="13.6074702"><ele>927.8571428571428</ele><time>2026-05-02T08:32:22.492Z</time></trkpt><trkpt lat="42.708143" lon="13.607472"><ele>929.7142857142856</ele><time>2026-05-02T08:32:25.491Z</time></trkpt><trkpt lat="42.7080758" lon="13.6074406"><ele>931.5714285714286</ele><time>2026-05-02T08:32:28.492Z</time></trkpt><trkpt lat="42.7080141" lon="13.6074118"><ele>933.4285714285713</ele><time>2026-05-02T08:32:31.492Z</time></trkpt><trkpt lat="42.7079433" lon="13.6074083"><ele>935.2857142857142</ele><time>2026-05-02T08:32:34.491Z</time></trkpt><trkpt lat="42.7078941" lon="13.6073505"><ele>937.1428571428571</ele><time>2026-05-02T08:32:38.491Z</time></trkpt><trkpt lat="42.70791" lon="13.6072637"><ele>939.0</ele><time>2026-05-02T08:32:41.492Z</time></trkpt><trkpt lat="42.7079346" lon="13.6071666"><ele>939.0</ele><time>2026-05-02T08:32:44.491Z</time></trkpt><trkpt lat="42.7079664" lon="13.6070676"><ele>939.0</ele><time>2026-05-02T08:32:48.491Z</time></trkpt><trkpt lat="42.7079532" lon="13.6069806"><ele>939.0</ele><time>2026-05-02T08:32:51.493Z</time></trkpt><trkpt lat="42.7079437" lon="13.6068858"><ele>939.0</ele><time>2026-05-02T08:32:54.491Z</time></trkpt><trkpt lat="42.7079958" lon="13.6068364"><ele>939.0</ele><time>2026-05-02T08:33:25.492Z</time></trkpt><trkpt lat="42.7080574" lon="13.6068034"><ele>939.0</ele><time>2026-05-02T08:33:49.492Z</time></trkpt><trkpt lat="42.7081236" lon="13.6068163"><ele>939.0</ele><time>2026-05-02T08:34:03.491Z</time></trkpt><trkpt lat="42.7081839" lon="13.6067694"><ele>943.7142857142858</ele><time>2026-05-02T08:34:22.492Z</time></trkpt><trkpt lat="42.7082412" lon="13.6067235"><ele>948.4285714285713</ele><time>2026-05-02T08:34:25.491Z</time></trkpt><trkpt lat="42.7082989" lon="13.6066634"><ele>953.1428571428571</ele><time>2026-05-02T08:34:28.492Z</time></trkpt><trkpt lat="42.7083644" lon="13.6066112"><ele>957.8571428571429</ele><time>2026-05-02T08:34:31.491Z</time></trkpt><trkpt lat="42.7084337" lon="13.6065746"><ele>962.5714285714287</ele><time>2026-05-02T08:34:34.491Z</time></trkpt><trkpt lat="42.708499" lon="13.6065214"><ele>967.2857142857142</ele><time>2026-05-02T08:34:38.491Z</time></trkpt><trkpt lat="42.7085478" lon="13.6064527"><ele>972.0</ele><time>2026-05-02T08:34:42.491Z</time></trkpt><trkpt lat="42.7085092" lon="13.6063727"><ele>972.0</ele><time>2026-05-02T08:34:45.492Z</time></trkpt><trkpt lat="42.708438" lon="13.6063782"><ele>972.0</ele><time>2026-05-02T08:34:48.49Z</time></trkpt><trkpt lat="42.708349" lon="13.606399"><ele>972.0</ele><time>2026-05-02T08:34:51.491Z</time></trkpt><trkpt lat="42.7082788" lon="13.6063867"><ele>972.0</ele><time>2026-05-02T08:34:54.491Z</time></trkpt><trkpt lat="42.7082127" lon="13.6063904"><ele>972.0</ele><time>2026-05-02T08:34:57.491Z</time></trkpt><trkpt lat="42.7081336" lon="13.6063956"><ele>972.0</ele><time>2026-05-02T08:35:01.491Z</time></trkpt><trkpt lat="42.7080707" lon="13.6063992"><ele>972.0</ele><time>2026-05-02T08:35:04.49Z</time></trkpt><trkpt lat="42.7080083" lon="13.6063775"><ele>972.0</ele><time>2026-05-02T08:35:07.491Z</time></trkpt><trkpt lat="42.7079398" lon="13.6063573"><ele>972.0</ele><time>2026-05-02T08:35:10.49Z</time></trkpt><trkpt lat="42.7078825" lon="13.6063064"><ele>972.0</ele><time>2026-05-02T08:35:13.491Z</time></trkpt><trkpt lat="42.7078755" lon="13.6062149"><ele>972.0</ele><time>2026-05-02T08:35:16.491Z</time></trkpt><trkpt lat="42.7079082" lon="13.6061217"><ele>972.0</ele><time>2026-05-02T08:35:19.491Z</time></trkpt><trkpt lat="42.7079846" lon="13.6060977"><ele>972.0</ele><time>2026-05-02T08:35:44.491Z</time></trkpt><trkpt lat="42.7080313" lon="13.606017"><ele>972.0</ele><time>2026-05-02T08:35:51.491Z</time></trkpt><trkpt lat="42.7080829" lon="13.6059394"><ele>976.8571428571429</ele><time>2026-05-02T08:36:01.491Z</time></trkpt><trkpt lat="42.7081261" lon="13.6058587"><ele>981.7142857142858</ele><time>2026-05-02T08:36:05.49Z</time></trkpt><trkpt lat="42.7081728" lon="13.6057854"><ele>986.5714285714287</ele><time>2026-05-02T08:36:09.49Z</time></trkpt><trkpt lat="42.7081059" lon="13.6057674"><ele>991.4285714285714</ele><time>2026-05-02T08:38:26.491Z</time></trkpt><trkpt lat="42.7080412" lon="13.6057216"><ele>996.2857142857144</ele><time>2026-05-02T08:38:29.49Z</time></trkpt><trkpt lat="42.7079686" lon="13.6057328"><ele>1001.1428571428572</ele><time>2026-05-02T08:38:32.491Z</time></trkpt><trkpt lat="42.7079044" lon="13.605741"><ele>1006.0</ele><time>2026-05-02T08:38:35.489Z</time></trkpt><trkpt lat="42.7078305" lon="13.6057413"><ele>1005.9999999999999</ele><time>2026-05-02T08:38:42.491Z</time></trkpt><trkpt lat="42.7077746" lon="13.6056993"><ele>1006.0</ele><time>2026-05-02T08:38:45.489Z</time></trkpt><trkpt lat="42.7077321" lon="13.6056075"><ele>1006.0</ele><time>2026-05-02T08:38:48.491Z</time></trkpt><trkpt lat="42.7077229" lon="13.6054949"><ele>1006.0</ele><time>2026-05-02T08:38:51.489Z</time></trkpt><trkpt lat="42.707697" lon="13.6054129"><ele>1005.9999999999999</ele><time>2026-05-02T08:38:54.489Z</time></trkpt><trkpt lat="42.7076773" lon="13.6053057"><ele>1006.0</ele><time>2026-05-02T08:38:57.49Z</time></trkpt><trkpt lat="42.7077175" lon="13.6052142"><ele>1010.6666666666666</ele><time>2026-05-02T08:39:00.49Z</time></trkpt><trkpt lat="42.7077722" lon="13.6051391"><ele>1015.3333333333333</ele><time>2026-05-02T08:39:04.489Z</time></trkpt><trkpt lat="42.7078372" lon="13.6050861"><ele>1020.0</ele><time>2026-05-02T08:39:09.49Z</time></trkpt><trkpt lat="42.7078943" lon="13.6050421"><ele>1024.6666666666667</ele><time>2026-05-02T08:39:12.491Z</time></trkpt><trkpt lat="42.7079743" lon="13.6049893"><ele>1029.3333333333335</ele><time>2026-05-02T08:40:05.49Z</time></trkpt><trkpt lat="42.7080417" lon="13.6049112"><ele>1034.0</ele><time>2026-05-02T08:40:08.489Z</time></trkpt><trkpt lat="42.7081158" lon="13.604865"><ele>1034.0</ele><time>2026-05-02T08:40:13.489Z</time></trkpt><trkpt lat="42.7081509" lon="13.6047302"><ele>1034.0</ele><time>2026-05-02T08:40:17.49Z</time></trkpt><trkpt lat="42.708137" lon="13.6046059"><ele>1034.0</ele><time>2026-05-02T08:40:21.489Z</time></trkpt><trkpt lat="42.7082037" lon="13.6045795"><ele>1034.0</ele><time>2026-05-02T08:40:26.489Z</time></trkpt><trkpt lat="42.7082803" lon="13.6046271"><ele>1034.0</ele><time>2026-05-02T08:40:29.489Z</time></trkpt><trkpt lat="42.7083523" lon="13.6046873"><ele>1034.0</ele><time>2026-05-02T08:40:33.489Z</time></trkpt><trkpt lat="42.7084163" lon="13.6047302"><ele>1034.0</ele><time>2026-05-02T08:40:36.488Z</time></trkpt><trkpt lat="42.70849" lon="13.604749"><ele>1034.0</ele><time>2026-05-02T08:40:39.489Z</time></trkpt><trkpt lat="42.7085597" lon="13.6047069"><ele>1034.0</ele><time>2026-05-02T08:40:44.49Z</time></trkpt><trkpt lat="42.7086337" lon="13.60466"><ele>1034.0</ele><time>2026-05-02T08:40:48.488Z</time></trkpt><trkpt lat="42.7086446" lon="13.6045733"><ele>1034.0</ele><time>2026-05-02T08:40:53.49Z</time></trkpt><trkpt lat="42.7086539" lon="13.6044869"><ele>1034.0</ele><time>2026-05-02T08:40:57.489Z</time></trkpt><trkpt lat="42.7087112" lon="13.6044206"><ele>1034.0</ele><time>2026-05-02T08:41:01.489Z</time></trkpt><trkpt lat="42.7087774" lon="13.6043851"><ele>1038.5714285714287</ele><time>2026-05-02T08:41:04.489Z</time></trkpt><trkpt lat="42.7088395" lon="13.604345"><ele>1043.1428571428573</ele><time>2026-05-02T08:41:08.49Z</time></trkpt><trkpt lat="42.7088541" lon="13.6042539"><ele>1047.7142857142858</ele><time>2026-05-02T08:41:12.49Z</time></trkpt><trkpt lat="42.7087725" lon="13.6042286"><ele>1052.2857142857142</ele><time>2026-05-02T08:41:17.49Z</time></trkpt><trkpt lat="42.7087083" lon="13.6041612"><ele>1056.8571428571427</ele><time>2026-05-02T08:41:28.488Z</time></trkpt><trkpt lat="42.708685" lon="13.6040761"><ele>1061.4285714285713</ele><time>2026-05-02T08:41:32.49Z</time></trkpt><trkpt lat="42.7086519" lon="13.603979"><ele>1066.0</ele><time>2026-05-02T08:41:35.488Z</time></trkpt><trkpt lat="42.7086209" lon="13.6038998"><ele>1065.4285714285713</ele><time>2026-05-02T08:41:37.489Z</time></trkpt><trkpt lat="42.7085682" lon="13.6038332"><ele>1064.8571428571427</ele><time>2026-05-02T08:41:40.489Z</time></trkpt><trkpt lat="42.7085023" lon="13.6037976"><ele>1064.2857142857142</ele><time>2026-05-02T08:41:43.489Z</time></trkpt><trkpt lat="42.7084388" lon="13.6038257"><ele>1063.7142857142858</ele><time>2026-05-02T08:41:46.489Z</time></trkpt><trkpt lat="42.7083631" lon="13.6038054"><ele>1063.1428571428573</ele><time>2026-05-02T08:41:50.488Z</time></trkpt><trkpt lat="42.7083035" lon="13.603763"><ele>1062.5714285714287</ele><time>2026-05-02T08:41:53.49Z</time></trkpt><trkpt lat="42.7082405" lon="13.6037089"><ele>1062.0</ele><time>2026-05-02T08:41:57.489Z</time></trkpt><trkpt lat="42.7081947" lon="13.6036475"><ele>1067.4285714285716</ele><time>2026-05-02T08:42:00.489Z</time></trkpt><trkpt lat="42.7081442" lon="13.6035759"><ele>1072.857142857143</ele><time>2026-05-02T08:42:03.488Z</time></trkpt><trkpt lat="42.7080749" lon="13.6035485"><ele>1078.2857142857142</ele><time>2026-05-02T08:42:07.488Z</time></trkpt><trkpt lat="42.7080657" lon="13.6034516"><ele>1083.7142857142858</ele><time>2026-05-02T08:42:11.489Z</time></trkpt><trkpt lat="42.7080976" lon="13.6033737"><ele>1089.142857142857</ele><time>2026-05-02T08:42:14.489Z</time></trkpt><trkpt lat="42.7081238" lon="13.6032937"><ele>1094.5714285714287</ele><time>2026-05-02T08:42:18.49Z</time></trkpt><trkpt lat="42.7080842" lon="13.6032256"><ele>1100.0</ele><time>2026-05-02T08:42:22.489Z</time></trkpt><trkpt lat="42.7080355" lon="13.6031378"><ele>1100.0</ele><time>2026-05-02T08:42:26.488Z</time></trkpt><trkpt lat="42.7079778" lon="13.6030676"><ele>1100.0</ele><time>2026-05-02T08:42:30.49Z</time></trkpt><trkpt lat="42.7079313" lon="13.6029954"><ele>1100.0</ele><time>2026-05-02T08:42:34.49Z</time></trkpt><trkpt lat="42.7078622" lon="13.6029464"><ele>1100.0</ele><time>2026-05-02T08:42:38.489Z</time></trkpt><trkpt lat="42.707814" lon="13.6028683"><ele>1100.0</ele><time>2026-05-02T08:42:43.488Z</time></trkpt><trkpt lat="42.7077856" lon="13.6027836"><ele>1100.0</ele><time>2026-05-02T08:42:47.489Z</time></trkpt><trkpt lat="42.7077336" lon="13.6027348"><ele>1100.0</ele><time>2026-05-02T08:45:38.488Z</time></trkpt><trkpt lat="42.707684" lon="13.6026791"><ele>1103.142857142857</ele><time>2026-05-02T08:45:42.488Z</time></trkpt><trkpt lat="42.7076239" lon="13.6026252"><ele>1106.2857142857142</ele><time>2026-05-02T08:45:45.488Z</time></trkpt><trkpt lat="42.7075815" lon="13.6025253"><ele>1109.4285714285713</ele><time>2026-05-02T08:45:48.486Z</time></trkpt><trkpt lat="42.7075651" lon="13.602442"><ele>1112.5714285714284</ele><time>2026-05-02T08:45:53.486Z</time></trkpt><trkpt lat="42.7075079" lon="13.6023956"><ele>1115.7142857142856</ele><time>2026-05-02T08:45:56.487Z</time></trkpt><trkpt lat="42.7074589" lon="13.6023142"><ele>1118.857142857143</ele><time>2026-05-02T08:46:00.486Z</time></trkpt><trkpt lat="42.7074057" lon="13.6022561"><ele>1122.0</ele><time>2026-05-02T08:46:03.486Z</time></trkpt><trkpt lat="42.7073573" lon="13.6021977"><ele>1122.0</ele><time>2026-05-02T08:46:06.487Z</time></trkpt><trkpt lat="42.7073124" lon="13.6021337"><ele>1122.0</ele><time>2026-05-02T08:46:10.487Z</time></trkpt><trkpt lat="42.7072685" lon="13.6020662"><ele>1122.0</ele><time>2026-05-02T08:46:13.487Z</time></trkpt><trkpt lat="42.7072612" lon="13.6019582"><ele>1122.0</ele><time>2026-05-02T08:46:16.486Z</time></trkpt><trkpt lat="42.7073211" lon="13.6019275"><ele>1122.0</ele><time>2026-05-02T08:46:18.486Z</time></trkpt><trkpt lat="42.707396" lon="13.6019486"><ele>1122.0</ele><time>2026-05-02T08:46:22.488Z</time></trkpt><trkpt lat="42.7074707" lon="13.6019257"><ele>1122.0</ele><time>2026-05-02T08:46:26.487Z</time></trkpt><trkpt lat="42.7075433" lon="13.6018904"><ele>1126.857142857143</ele><time>2026-05-02T08:46:30.488Z</time></trkpt><trkpt lat="42.707603" lon="13.6018274"><ele>1131.7142857142856</ele><time>2026-05-02T08:46:35.488Z</time></trkpt><trkpt lat="42.7076504" lon="13.6017674"><ele>1136.5714285714284</ele><time>2026-05-02T08:46:38.486Z</time></trkpt><trkpt lat="42.7077069" lon="13.6017014"><ele>1141.4285714285713</ele><time>2026-05-02T08:46:42.487Z</time></trkpt><trkpt lat="42.7077738" lon="13.6016823"><ele>1146.2857142857142</ele><time>2026-05-02T08:46:46.486Z</time></trkpt><trkpt lat="42.7078522" lon="13.6016474"><ele>1151.142857142857</ele><time>2026-05-02T08:46:50.487Z</time></trkpt><trkpt lat="42.7079054" lon="13.6015947"><ele>1156.0</ele><time>2026-05-02T08:46:53.486Z</time></trkpt><trkpt lat="42.7079814" lon="13.6015677"><ele>1156.0</ele><time>2026-05-02T08:46:57.487Z</time></trkpt><trkpt lat="42.7080398" lon="13.6015134"><ele>1156.0</ele><time>2026-05-02T08:47:00.487Z</time></trkpt><trkpt lat="42.7081033" lon="13.601511"><ele>1156.0</ele><time>2026-05-02T08:47:04.487Z</time></trkpt><trkpt lat="42.7080472" lon="13.6014415"><ele>1156.0</ele><time>2026-05-02T08:47:13.487Z</time></trkpt><trkpt lat="42.7080017" lon="13.6013714"><ele>1156.0</ele><time>2026-05-02T08:47:16.488Z</time></trkpt><trkpt lat="42.7080152" lon="13.6012616"><ele>1156.0</ele><time>2026-05-02T08:47:21.486Z</time></trkpt><trkpt lat="42.7080087" lon="13.6011603"><ele>1156.0</ele><time>2026-05-02T08:47:25.486Z</time></trkpt><trkpt lat="42.7080212" lon="13.601074"><ele>1159.8333333333333</ele><time>2026-05-02T08:47:28.487Z</time></trkpt><trkpt lat="42.7080806" lon="13.6010052"><ele>1163.6666666666665</ele><time>2026-05-02T08:47:53.487Z</time></trkpt><trkpt lat="42.7081282" lon="13.600922"><ele>1167.5</ele><time>2026-05-02T08:47:57.487Z</time></trkpt><trkpt lat="42.7081816" lon="13.6008319"><ele>1171.3333333333333</ele><time>2026-05-02T08:48:00.487Z</time></trkpt><trkpt lat="42.7081833" lon="13.6007266"><ele>1175.1666666666667</ele><time>2026-05-02T08:48:03.488Z</time></trkpt><trkpt lat="42.7082249" lon="13.6006366"><ele>1179.0</ele><time>2026-05-02T08:48:07.487Z</time></trkpt><trkpt lat="42.7082833" lon="13.6006004"><ele>1179.0</ele><time>2026-05-02T08:48:11.488Z</time></trkpt><trkpt lat="42.7083631" lon="13.600598"><ele>1179.0</ele><time>2026-05-02T08:48:15.488Z</time></trkpt><trkpt lat="42.7084443" lon="13.6005729"><ele>1179.0</ele><time>2026-05-02T08:48:18.486Z</time></trkpt><trkpt lat="42.708526" lon="13.6005676"><ele>1179.0</ele><time>2026-05-02T08:48:21.487Z</time></trkpt><trkpt lat="42.7086119" lon="13.6005733"><ele>1179.0</ele><time>2026-05-02T08:48:25.487Z</time></trkpt><trkpt lat="42.7085724" lon="13.6004701"><ele>1179.0</ele><time>2026-05-02T08:48:31.487Z</time></trkpt><trkpt lat="42.7085767" lon="13.6003684"><ele>1179.8333333333333</ele><time>2026-05-02T08:48:34.486Z</time></trkpt><trkpt lat="42.7086041" lon="13.6002862"><ele>1180.6666666666667</ele><time>2026-05-02T08:48:37.486Z</time></trkpt><trkpt lat="42.7086321" lon="13.6001844"><ele>1181.5</ele><time>2026-05-02T08:48:41.487Z</time></trkpt><trkpt lat="42.7085932" lon="13.6001039"><ele>1182.3333333333335</ele><time>2026-05-02T08:48:47.487Z</time></trkpt><trkpt lat="42.7085325" lon="13.6000204"><ele>1183.1666666666667</ele><time>2026-05-02T08:48:50.486Z</time></trkpt><trkpt lat="42.7085213" lon="13.5999132"><ele>1184.0</ele><time>2026-05-02T08:48:56.487Z</time></trkpt><trkpt lat="42.7085545" lon="13.5998252"><ele>1184.0</ele><time>2026-05-02T08:48:59.486Z</time></trkpt><trkpt lat="42.7085819" lon="13.5997392"><ele>1184.0</ele><time>2026-05-02T08:49:02.487Z</time></trkpt><trkpt lat="42.7086176" lon="13.5996575"><ele>1184.0</ele><time>2026-05-02T08:49:05.485Z</time></trkpt><trkpt lat="42.7086036" lon="13.599568"><ele>1184.0</ele><time>2026-05-02T08:49:10.486Z</time></trkpt><trkpt lat="42.7086266" lon="13.5994842"><ele>1184.0</ele><time>2026-05-02T08:49:13.486Z</time></trkpt><trkpt lat="42.708648" lon="13.5993803"><ele>1184.0</ele><time>2026-05-02T08:49:17.487Z</time></trkpt><trkpt lat="42.7086664" lon="13.5992824"><ele>1184.0</ele><time>2026-05-02T08:49:20.485Z</time></trkpt><trkpt lat="42.7086549" lon="13.5991928"><ele>1185.2857142857142</ele><time>2026-05-02T08:49:23.486Z</time></trkpt><trkpt lat="42.7086701" lon="13.599103"><ele>1186.5714285714284</ele><time>2026-05-02T08:49:27.486Z</time></trkpt><trkpt lat="42.7086693" lon="13.5989955"><ele>1187.8571428571427</ele><time>2026-05-02T08:49:32.486Z</time></trkpt><trkpt lat="42.7086696" lon="13.5989088"><ele>1189.142857142857</ele><time>2026-05-02T08:49:35.487Z</time></trkpt><trkpt lat="42.7086928" lon="13.5988255"><ele>1190.4285714285713</ele><time>2026-05-02T08:49:39.486Z</time></trkpt><trkpt lat="42.7087273" lon="13.5987344"><ele>1191.7142857142856</ele><time>2026-05-02T08:49:43.486Z</time></trkpt><trkpt lat="42.7087246" lon="13.5986188"><ele>1193.0</ele><time>2026-05-02T08:49:47.487Z</time></trkpt><trkpt lat="42.708722" lon="13.59853"><ele>1194.8571428571427</ele><time>2026-05-02T08:49:51.485Z</time></trkpt><trkpt lat="42.7087174" lon="13.598442"><ele>1196.7142857142858</ele><time>2026-05-02T08:49:54.485Z</time></trkpt><trkpt lat="42.7086417" lon="13.5984777"><ele>1198.5714285714284</ele><time>2026-05-02T08:50:00.485Z</time></trkpt><trkpt lat="42.7085816" lon="13.5984459"><ele>1200.4285714285713</ele><time>2026-05-02T08:50:05.486Z</time></trkpt><trkpt lat="42.7085369" lon="13.5983692"><ele>1202.2857142857142</ele><time>2026-05-02T08:50:11.486Z</time></trkpt><trkpt lat="42.7085359" lon="13.5982686"><ele>1204.142857142857</ele><time>2026-05-02T08:50:15.486Z</time></trkpt><trkpt lat="42.7085416" lon="13.5981771"><ele>1206.0</ele><time>2026-05-02T08:50:18.486Z</time></trkpt><trkpt lat="42.7085553" lon="13.5980826"><ele>1206.0</ele><time>2026-05-02T08:50:21.486Z</time></trkpt><trkpt lat="42.708555" lon="13.5979461"><ele>1206.0</ele><time>2026-05-02T08:50:24.487Z</time></trkpt><trkpt lat="42.7085818" lon="13.597857"><ele>1206.0</ele><time>2026-05-02T08:50:27.486Z</time></trkpt><trkpt lat="42.7086" lon="13.5977618"><ele>1206.0</ele><time>2026-05-02T08:50:32.485Z</time></trkpt><trkpt lat="42.7085517" lon="13.597703"><ele>1206.0</ele><time>2026-05-02T08:50:35.486Z</time></trkpt><trkpt lat="42.7084965" lon="13.5976028"><ele>1206.0</ele><time>2026-05-02T08:50:38.486Z</time></trkpt><trkpt lat="42.7084289" lon="13.5976092"><ele>1212.0</ele><time>2026-05-02T08:50:43.485Z</time></trkpt><trkpt lat="42.7083623" lon="13.5976602"><ele>1218.0</ele><time>2026-05-02T08:50:46.485Z</time></trkpt><trkpt lat="42.7082826" lon="13.5976538"><ele>1224.0</ele><time>2026-05-02T08:50:51.486Z</time></trkpt><trkpt lat="42.7082104" lon="13.5976743"><ele>1230.0</ele><time>2026-05-02T08:50:55.485Z</time></trkpt><trkpt lat="42.7081362" lon="13.5977088"><ele>1236.0</ele><time>2026-05-02T08:50:59.486Z</time></trkpt><trkpt lat="42.7080608" lon="13.5977367"><ele>1242.0</ele><time>2026-05-02T08:51:04.485Z</time></trkpt><trkpt lat="42.7080054" lon="13.5976571"><ele>1241.9999999999998</ele><time>2026-05-02T08:51:07.486Z</time></trkpt><trkpt lat="42.7079756" lon="13.5975734"><ele>1242.0</ele><time>2026-05-02T08:51:10.485Z</time></trkpt><trkpt lat="42.7079946" lon="13.5974906"><ele>1242.0</ele><time>2026-05-02T08:51:14.486Z</time></trkpt><trkpt lat="42.7080158" lon="13.5973989"><ele>1242.0</ele><time>2026-05-02T08:51:18.486Z</time></trkpt><trkpt lat="42.707947" lon="13.5973615"><ele>1242.0</ele><time>2026-05-02T08:51:24.485Z</time></trkpt><trkpt lat="42.7078818" lon="13.5973423"><ele>1241.9999999999998</ele><time>2026-05-02T08:52:01.485Z</time></trkpt><trkpt lat="42.7078226" lon="13.5972929"><ele>1242.0</ele><time>2026-05-02T08:52:05.486Z</time></trkpt><trkpt lat="42.7077556" lon="13.5972603"><ele>1245.9999999999998</ele><time>2026-05-02T08:52:09.484Z</time></trkpt><trkpt lat="42.7076932" lon="13.597292"><ele>1250.0</ele><time>2026-05-02T08:52:13.485Z</time></trkpt><trkpt lat="42.7076137" lon="13.5973192"><ele>1254.0</ele><time>2026-05-02T08:52:17.484Z</time></trkpt><trkpt lat="42.7075351" lon="13.597368"><ele>1258.0</ele><time>2026-05-02T08:52:20.485Z</time></trkpt><trkpt lat="42.7074828" lon="13.597425"><ele>1262.0</ele><time>2026-05-02T08:52:25.485Z</time></trkpt><trkpt lat="42.7074164" lon="13.5974307"><ele>1265.9999999999998</ele><time>2026-05-02T08:52:29.484Z</time></trkpt><trkpt lat="42.7073401" lon="13.5974437"><ele>1270.0</ele><time>2026-05-02T08:52:33.486Z</time></trkpt><trkpt lat="42.7072667" lon="13.5974047"><ele>1269.9999999999998</ele><time>2026-05-02T08:52:38.484Z</time></trkpt><trkpt lat="42.7072282" lon="13.5973002"><ele>1270.0</ele><time>2026-05-02T08:52:42.485Z</time></trkpt><trkpt lat="42.7071606" lon="13.5972923"><ele>1270.0</ele><time>2026-05-02T08:53:52.485Z</time></trkpt><trkpt lat="42.707102" lon="13.5973361"><ele>1270.0</ele><time>2026-05-02T08:53:56.485Z</time></trkpt><trkpt lat="42.7071646" lon="13.5973218"><ele>1270.0</ele><time>2026-05-02T08:54:09.485Z</time></trkpt><trkpt lat="42.7072144" lon="13.5972626"><ele>1269.9999999999998</ele><time>2026-05-02T08:54:26.485Z</time></trkpt><trkpt lat="42.7071703" lon="13.5971922"><ele>1270.0</ele><time>2026-05-02T08:55:00.405Z</time></trkpt><trkpt lat="42.7071988" lon="13.5972782"><ele>1269.9999999999998</ele><time>2026-05-02T08:55:16.514Z</time></trkpt><trkpt lat="42.7071509" lon="13.5972185"><ele>1270.0</ele><time>2026-05-02T08:57:03.483Z</time></trkpt><trkpt lat="42.7071247" lon="13.5971195"><ele>1270.0</ele><time>2026-05-02T08:57:07.484Z</time></trkpt><trkpt lat="42.7070787" lon="13.5970472"><ele>1270.0</ele><time>2026-05-02T08:57:11.484Z</time></trkpt><trkpt lat="42.7070209" lon="13.596984"><ele>1270.0</ele><time>2026-05-02T08:57:15.485Z</time></trkpt><trkpt lat="42.7069701" lon="13.5969305"><ele>1269.9999999999998</ele><time>2026-05-02T08:57:18.485Z</time></trkpt><trkpt lat="42.7069075" lon="13.5968934"><ele>1270.0</ele><time>2026-05-02T08:57:21.485Z</time></trkpt><trkpt lat="42.7068307" lon="13.5968471"><ele>1273.5</ele><time>2026-05-02T08:57:25.484Z</time></trkpt><trkpt lat="42.7067571" lon="13.5967898"><ele>1277.0</ele><time>2026-05-02T08:57:29.484Z</time></trkpt><trkpt lat="42.7067119" lon="13.5967285"><ele>1280.5</ele><time>2026-05-02T08:57:32.483Z</time></trkpt><trkpt lat="42.7066408" lon="13.5966695"><ele>1284.0</ele><time>2026-05-02T08:57:36.484Z</time></trkpt><trkpt lat="42.7065837" lon="13.5965919"><ele>1287.5</ele><time>2026-05-02T08:57:40.485Z</time></trkpt><trkpt lat="42.7065501" lon="13.5964937"><ele>1291.0</ele><time>2026-05-02T08:57:44.484Z</time></trkpt><trkpt lat="42.7064898" lon="13.5964295"><ele>1290.9999999999998</ele><time>2026-05-02T08:57:48.484Z</time></trkpt><trkpt lat="42.7064126" lon="13.5964028"><ele>1291.0</ele><time>2026-05-02T08:57:52.482Z</time></trkpt><trkpt lat="42.7063498" lon="13.5963827"><ele>1291.0</ele><time>2026-05-02T08:57:55.483Z</time></trkpt><trkpt lat="42.7062755" lon="13.5963442"><ele>1291.0</ele><time>2026-05-02T08:57:59.484Z</time></trkpt><trkpt lat="42.7062178" lon="13.5963042"><ele>1291.0</ele><time>2026-05-02T08:58:02.483Z</time></trkpt><trkpt lat="42.7061591" lon="13.5962653"><ele>1290.9999999999998</ele><time>2026-05-02T08:58:05.483Z</time></trkpt><trkpt lat="42.7061111" lon="13.5962067"><ele>1291.0</ele><time>2026-05-02T08:58:08.482Z</time></trkpt><trkpt lat="42.7060406" lon="13.5961687"><ele>1295.5</ele><time>2026-05-02T08:58:12.483Z</time></trkpt><trkpt lat="42.7059804" lon="13.5961017"><ele>1300.0</ele><time>2026-05-02T08:58:17.482Z</time></trkpt><trkpt lat="42.70592" lon="13.5960332"><ele>1304.5</ele><time>2026-05-02T08:58:21.483Z</time></trkpt><trkpt lat="42.7058488" lon="13.5959756"><ele>1309.0</ele><time>2026-05-02T08:58:50.483Z</time></trkpt><trkpt lat="42.705794" lon="13.5958934"><ele>1313.5</ele><time>2026-05-02T08:58:54.483Z</time></trkpt><trkpt lat="42.7057347" lon="13.5958193"><ele>1318.0</ele><time>2026-05-02T08:58:58.482Z</time></trkpt><trkpt lat="42.7056736" lon="13.5957542"><ele>1318.0</ele><time>2026-05-02T08:59:02.482Z</time></trkpt><trkpt lat="42.7056261" lon="13.5956682"><ele>1318.0</ele><time>2026-05-02T08:59:06.483Z</time></trkpt><trkpt lat="42.7055807" lon="13.5955757"><ele>1318.0</ele><time>2026-05-02T08:59:10.482Z</time></trkpt><trkpt lat="42.7055422" lon="13.5954815"><ele>1318.0</ele><time>2026-05-02T08:59:14.482Z</time></trkpt><trkpt lat="42.7055005" lon="13.5953889"><ele>1318.0</ele><time>2026-05-02T08:59:18.483Z</time></trkpt><trkpt lat="42.7054582" lon="13.5952977"><ele>1318.0</ele><time>2026-05-02T08:59:22.483Z</time></trkpt><trkpt lat="42.7054175" lon="13.595209"><ele>1321.142857142857</ele><time>2026-05-02T08:59:26.483Z</time></trkpt><trkpt lat="42.7053658" lon="13.5951365"><ele>1324.2857142857142</ele><time>2026-05-02T08:59:30.483Z</time></trkpt><trkpt lat="42.7053132" lon="13.5950876"><ele>1327.4285714285713</ele><time>2026-05-02T08:59:33.483Z</time></trkpt><trkpt lat="42.7052577" lon="13.5950357"><ele>1330.5714285714284</ele><time>2026-05-02T08:59:36.483Z</time></trkpt><trkpt lat="42.7052022" lon="13.5949871"><ele>1333.7142857142858</ele><time>2026-05-02T08:59:39.483Z</time></trkpt><trkpt lat="42.7051412" lon="13.5949441"><ele>1336.8571428571427</ele><time>2026-05-02T08:59:42.484Z</time></trkpt><trkpt lat="42.7050786" lon="13.5949288"><ele>1340.0</ele><time>2026-05-02T08:59:45.484Z</time></trkpt><trkpt lat="42.7049956" lon="13.5949258"><ele>1339.9999999999998</ele><time>2026-05-02T08:59:49.482Z</time></trkpt><trkpt lat="42.7049204" lon="13.5949237"><ele>1340.0</ele><time>2026-05-02T08:59:53.483Z</time></trkpt><trkpt lat="42.7048434" lon="13.5949172"><ele>1340.0</ele><time>2026-05-02T08:59:57.484Z</time></trkpt><trkpt lat="42.7047642" lon="13.5949008"><ele>1340.0</ele><time>2026-05-02T09:00:01.483Z</time></trkpt><trkpt lat="42.7046984" lon="13.5948901"><ele>1340.0</ele><time>2026-05-02T09:00:04.483Z</time></trkpt><trkpt lat="42.7046315" lon="13.59489"><ele>1339.9999999999998</ele><time>2026-05-02T09:00:07.483Z</time></trkpt><trkpt lat="42.7045648" lon="13.5949009"><ele>1340.0</ele><time>2026-05-02T09:00:10.483Z</time></trkpt><trkpt lat="42.7044971" lon="13.5949055"><ele>1339.9999999999998</ele><time>2026-05-02T09:00:13.484Z</time></trkpt><trkpt lat="42.7044333" lon="13.5949004"><ele>1340.0</ele><time>2026-05-02T09:00:16.481Z</time></trkpt><trkpt lat="42.7043538" lon="13.5948908"><ele>1340.0</ele><time>2026-05-02T09:00:20.482Z</time></trkpt><trkpt lat="42.7042945" lon="13.5948495"><ele>1340.0</ele><time>2026-05-02T09:00:35.481Z</time></trkpt><trkpt lat="42.704334" lon="13.5947811"><ele>1340.0</ele><time>2026-05-02T09:00:51.482Z</time></trkpt><trkpt lat="42.7044036" lon="13.5947717"><ele>1339.9999999999998</ele><time>2026-05-02T09:00:57.483Z</time></trkpt><trkpt lat="42.7044766" lon="13.5947603"><ele>1340.0</ele><time>2026-05-02T09:01:05.483Z</time></trkpt><trkpt lat="42.7045401" lon="13.5947053"><ele>1339.9999999999998</ele><time>2026-05-02T09:01:09.481Z</time></trkpt><trkpt lat="42.7046049" lon="13.5946406"><ele>1340.0</ele><time>2026-05-02T09:01:13.483Z</time></trkpt><trkpt lat="42.704674" lon="13.5946041"><ele>1340.0</ele><time>2026-05-02T09:01:17.483Z</time></trkpt><trkpt lat="42.704745" lon="13.5945745"><ele>1340.0</ele><time>2026-05-02T09:01:21.481Z</time></trkpt><trkpt lat="42.7048154" lon="13.5945295"><ele>1340.0</ele><time>2026-05-02T09:01:25.482Z</time></trkpt><trkpt lat="42.7048696" lon="13.5944813"><ele>1339.9999999999998</ele><time>2026-05-02T09:01:29.481Z</time></trkpt><trkpt lat="42.7049326" lon="13.5944305"><ele>1340.0</ele><time>2026-05-02T09:01:33.481Z</time></trkpt><trkpt lat="42.7050105" lon="13.594384"><ele>1342.2857142857142</ele><time>2026-05-02T09:01:37.481Z</time></trkpt><trkpt lat="42.7050837" lon="13.5943581"><ele>1344.5714285714284</ele><time>2026-05-02T09:01:40.483Z</time></trkpt><trkpt lat="42.7051505" lon="13.5943529"><ele>1346.8571428571427</ele><time>2026-05-02T09:01:43.483Z</time></trkpt><trkpt lat="42.7052248" lon="13.5943153"><ele>1349.142857142857</ele><time>2026-05-02T09:01:47.483Z</time></trkpt><trkpt lat="42.7052988" lon="13.5943025"><ele>1351.4285714285716</ele><time>2026-05-02T09:01:51.481Z</time></trkpt><trkpt lat="42.7053621" lon="13.5942848"><ele>1353.7142857142856</ele><time>2026-05-02T09:01:54.482Z</time></trkpt><trkpt lat="42.7054345" lon="13.59427"><ele>1356.0</ele><time>2026-05-02T09:01:58.482Z</time></trkpt><trkpt lat="42.7054979" lon="13.5942511"><ele>1357.7142857142856</ele><time>2026-05-02T09:02:02.481Z</time></trkpt><trkpt lat="42.7055593" lon="13.5942146"><ele>1359.4285714285716</ele><time>2026-05-02T09:02:06.482Z</time></trkpt><trkpt lat="42.70563" lon="13.5941822"><ele>1361.142857142857</ele><time>2026-05-02T09:02:11.482Z</time></trkpt><trkpt lat="42.7056882" lon="13.5941289"><ele>1362.8571428571427</ele><time>2026-05-02T09:02:15.482Z</time></trkpt><trkpt lat="42.7057517" lon="13.5940811"><ele>1364.5714285714284</ele><time>2026-05-02T09:02:19.483Z</time></trkpt><trkpt lat="42.7058181" lon="13.5940915"><ele>1366.2857142857142</ele><time>2026-05-02T09:02:23.483Z</time></trkpt><trkpt lat="42.7058919" lon="13.5940823"><ele>1368.0</ele><time>2026-05-02T09:02:28.481Z</time></trkpt><trkpt lat="42.7059601" lon="13.5940595"><ele>1367.9999999999998</ele><time>2026-05-02T09:02:32.482Z</time></trkpt><trkpt lat="42.7060223" lon="13.5940246"><ele>1368.0</ele><time>2026-05-02T09:02:36.483Z</time></trkpt><trkpt lat="42.7060875" lon="13.5939898"><ele>1368.0</ele><time>2026-05-02T09:02:40.482Z</time></trkpt><trkpt lat="42.7061532" lon="13.5939478"><ele>1368.0</ele><time>2026-05-02T09:02:44.481Z</time></trkpt><trkpt lat="42.706223" lon="13.5939252"><ele>1368.0</ele><time>2026-05-02T09:02:48.48Z</time></trkpt><trkpt lat="42.7062877" lon="13.5938793"><ele>1367.9999999999998</ele><time>2026-05-02T09:02:52.482Z</time></trkpt><trkpt lat="42.7063668" lon="13.5938596"><ele>1368.0</ele><time>2026-05-02T09:02:56.482Z</time></trkpt><trkpt lat="42.7064377" lon="13.5938342"><ele>1367.8571428571427</ele><time>2026-05-02T09:03:00.482Z</time></trkpt><trkpt lat="42.7065031" lon="13.5937838"><ele>1367.7142857142858</ele><time>2026-05-02T09:03:05.48Z</time></trkpt><trkpt lat="42.7064791" lon="13.5938683"><ele>1367.5714285714284</ele><time>2026-05-02T09:07:49.478Z</time></trkpt><trkpt lat="42.7064348" lon="13.5939324"><ele>1367.4285714285713</ele><time>2026-05-02T09:07:53.478Z</time></trkpt><trkpt lat="42.706473" lon="13.5938537"><ele>1367.2857142857142</ele><time>2026-05-02T09:08:42.479Z</time></trkpt><trkpt lat="42.706515" lon="13.5937747"><ele>1367.142857142857</ele><time>2026-05-02T09:11:23.478Z</time></trkpt><trkpt lat="42.7064658" lon="13.5938383"><ele>1367.0</ele><time>2026-05-02T09:13:45.476Z</time></trkpt><trkpt lat="42.706529" lon="13.5938373"><ele>1367.0</ele><time>2026-05-02T09:14:28.477Z</time></trkpt><trkpt lat="42.7064375" lon="13.5938469"><ele>1367.0</ele><time>2026-05-02T09:29:38.472Z</time></trkpt><trkpt lat="42.7063736" lon="13.5938691"><ele>1367.0</ele><time>2026-05-02T09:29:39.471Z</time></trkpt><trkpt lat="42.7062684" lon="13.5939053"><ele>1367.0</ele><time>2026-05-02T09:29:41.472Z</time></trkpt><trkpt lat="42.7061778" lon="13.5939735"><ele>1367.0</ele><time>2026-05-02T09:29:43.471Z</time></trkpt><trkpt lat="42.7060956" lon="13.5940045"><ele>1367.1999999999998</ele><time>2026-05-02T09:29:45.47Z</time></trkpt><trkpt lat="42.7060157" lon="13.5940321"><ele>1367.4</ele><time>2026-05-02T09:29:47.472Z</time></trkpt><trkpt lat="42.7059234" lon="13.5940705"><ele>1367.6</ele><time>2026-05-02T09:29:49.471Z</time></trkpt><trkpt lat="42.705842" lon="13.5941198"><ele>1367.8000000000002</ele><time>2026-05-02T09:29:52.47Z</time></trkpt><trkpt lat="42.7057761" lon="13.5941514"><ele>1368.0</ele><time>2026-05-02T09:29:54.071Z</time></trkpt><trkpt lat="42.7056641" lon="13.5941839"><ele>1367.9999999999998</ele><time>2026-05-02T09:29:55.469Z</time></trkpt><trkpt lat="42.705597" lon="13.5941901"><ele>1368.0</ele><time>2026-05-02T09:29:56.47Z</time></trkpt><trkpt lat="42.7055322" lon="13.5942308"><ele>1368.0</ele><time>2026-05-02T09:29:57.469Z</time></trkpt><trkpt lat="42.7054671" lon="13.5942626"><ele>1368.0</ele><time>2026-05-02T09:29:58.471Z</time></trkpt><trkpt lat="42.7053993" lon="13.5942837"><ele>1368.0</ele><time>2026-05-02T09:29:59.47Z</time></trkpt><trkpt lat="42.7053263" lon="13.5943043"><ele>1367.9999999999998</ele><time>2026-05-02T09:30:00.47Z</time></trkpt><trkpt lat="42.7052538" lon="13.5943083"><ele>1368.0</ele><time>2026-05-02T09:30:01.47Z</time></trkpt><trkpt lat="42.7051843" lon="13.5943421"><ele>1366.0</ele><time>2026-05-02T09:30:02.469Z</time></trkpt><trkpt lat="42.7051039" lon="13.59435"><ele>1364.0</ele><time>2026-05-02T09:30:03.471Z</time></trkpt><trkpt lat="42.705026" lon="13.5943923"><ele>1362.0</ele><time>2026-05-02T09:30:04.47Z</time></trkpt><trkpt lat="42.7049585" lon="13.5944275"><ele>1360.0</ele><time>2026-05-02T09:30:05.469Z</time></trkpt><trkpt lat="42.7048979" lon="13.5944774"><ele>1358.0</ele><time>2026-05-02T09:30:06.471Z</time></trkpt><trkpt lat="42.7048352" lon="13.5945321"><ele>1356.0</ele><time>2026-05-02T09:30:07.47Z</time></trkpt><trkpt lat="42.7047695" lon="13.5945687"><ele>1353.7142857142856</ele><time>2026-05-02T09:30:08.47Z</time></trkpt><trkpt lat="42.7047061" lon="13.5946068"><ele>1351.4285714285716</ele><time>2026-05-02T09:30:09.47Z</time></trkpt><trkpt lat="42.7046451" lon="13.5946401"><ele>1349.142857142857</ele><time>2026-05-02T09:30:10.47Z</time></trkpt><trkpt lat="42.7045816" lon="13.5946818"><ele>1346.8571428571427</ele><time>2026-05-02T09:30:11.47Z</time></trkpt><trkpt lat="42.7045001" lon="13.5947472"><ele>1344.5714285714284</ele><time>2026-05-02T09:30:13.469Z</time></trkpt><trkpt lat="42.7044399" lon="13.5947785"><ele>1342.2857142857142</ele><time>2026-05-02T09:30:18.47Z</time></trkpt><trkpt lat="42.7044217" lon="13.5946961"><ele>1340.0</ele><time>2026-05-02T09:30:24.47Z</time></trkpt><trkpt lat="42.7044826" lon="13.594649"><ele>1340.0</ele><time>2026-05-02T09:30:28.469Z</time></trkpt><trkpt lat="42.7045407" lon="13.5945942"><ele>1340.0</ele><time>2026-05-02T09:30:31.469Z</time></trkpt><trkpt lat="42.7046192" lon="13.594534"><ele>1340.0</ele><time>2026-05-02T09:30:34.469Z</time></trkpt><trkpt lat="42.7046757" lon="13.5944922"><ele>1340.0</ele><time>2026-05-02T09:30:36.47Z</time></trkpt><trkpt lat="42.7047579" lon="13.5944391"><ele>1340.0</ele><time>2026-05-02T09:30:39.47Z</time></trkpt><trkpt lat="42.7048468" lon="13.594384"><ele>1340.0</ele><time>2026-05-02T09:30:42.469Z</time></trkpt><trkpt lat="42.7049272" lon="13.5943434"><ele>1342.6666666666667</ele><time>2026-05-02T09:30:44.469Z</time></trkpt><trkpt lat="42.705008" lon="13.5942995"><ele>1345.3333333333335</ele><time>2026-05-02T09:30:46.469Z</time></trkpt><trkpt lat="42.705088" lon="13.5942562"><ele>1348.0</ele><time>2026-05-02T09:30:48.47Z</time></trkpt><trkpt lat="42.7051715" lon="13.594225"><ele>1350.6666666666667</ele><time>2026-05-02T09:30:50.47Z</time></trkpt><trkpt lat="42.7052509" lon="13.5941888"><ele>1353.3333333333333</ele><time>2026-05-02T09:30:52.469Z</time></trkpt><trkpt lat="42.7053232" lon="13.5941414"><ele>1356.0</ele><time>2026-05-02T09:30:54.47Z</time></trkpt><trkpt lat="42.7053942" lon="13.5940916"><ele>1358.0</ele><time>2026-05-02T09:30:56.469Z</time></trkpt><trkpt lat="42.7054662" lon="13.5940365"><ele>1360.0</ele><time>2026-05-02T09:30:58.469Z</time></trkpt><trkpt lat="42.7055334" lon="13.5939779"><ele>1362.0</ele><time>2026-05-02T09:31:00.47Z</time></trkpt><trkpt lat="42.7055953" lon="13.5939055"><ele>1364.0</ele><time>2026-05-02T09:31:02.47Z</time></trkpt><trkpt lat="42.7056505" lon="13.5938433"><ele>1366.0</ele><time>2026-05-02T09:31:04.47Z</time></trkpt><trkpt lat="42.705704" lon="13.5937881"><ele>1368.0</ele><time>2026-05-02T09:31:06.47Z</time></trkpt><trkpt lat="42.7057671" lon="13.5937292"><ele>1368.0</ele><time>2026-05-02T09:31:08.471Z</time></trkpt><trkpt lat="42.7058383" lon="13.5936813"><ele>1368.0</ele><time>2026-05-02T09:31:10.471Z</time></trkpt><trkpt lat="42.7059123" lon="13.5936405"><ele>1368.0</ele><time>2026-05-02T09:31:12.469Z</time></trkpt><trkpt lat="42.7059872" lon="13.5936137"><ele>1368.0</ele><time>2026-05-02T09:31:14.47Z</time></trkpt><trkpt lat="42.7060573" lon="13.5935842"><ele>1368.0</ele><time>2026-05-02T09:31:16.47Z</time></trkpt><trkpt lat="42.7061231" lon="13.5935455"><ele>1368.0</ele><time>2026-05-02T09:31:18.471Z</time></trkpt><trkpt lat="42.7061809" lon="13.5934903"><ele>1369.4285714285713</ele><time>2026-05-02T09:31:20.47Z</time></trkpt><trkpt lat="42.7062273" lon="13.5934251"><ele>1370.857142857143</ele><time>2026-05-02T09:31:22.47Z</time></trkpt><trkpt lat="42.7062652" lon="13.5933539"><ele>1372.2857142857142</ele><time>2026-05-02T09:31:24.47Z</time></trkpt><trkpt lat="42.7062901" lon="13.5932722"><ele>1373.7142857142858</ele><time>2026-05-02T09:31:26.471Z</time></trkpt><trkpt lat="42.7063043" lon="13.5931881"><ele>1375.142857142857</ele><time>2026-05-02T09:31:28.471Z</time></trkpt><trkpt lat="42.7063542" lon="13.5931026"><ele>1376.5714285714284</ele><time>2026-05-02T09:31:31.469Z</time></trkpt><trkpt lat="42.7064074" lon="13.5930359"><ele>1378.0</ele><time>2026-05-02T09:31:34.469Z</time></trkpt><trkpt lat="42.7064875" lon="13.5929703"><ele>1378.0</ele><time>2026-05-02T09:31:37.47Z</time></trkpt><trkpt lat="42.7065692" lon="13.592913"><ele>1378.0</ele><time>2026-05-02T09:31:40.47Z</time></trkpt><trkpt lat="42.7066436" lon="13.5928571"><ele>1378.0</ele><time>2026-05-02T09:31:43.47Z</time></trkpt><trkpt lat="42.7067311" lon="13.5928129"><ele>1378.0</ele><time>2026-05-02T09:31:46.47Z</time></trkpt><trkpt lat="42.7067911" lon="13.5927831"><ele>1378.0</ele><time>2026-05-02T09:31:48.469Z</time></trkpt><trkpt lat="42.7068533" lon="13.592755"><ele>1378.0</ele><time>2026-05-02T09:31:50.47Z</time></trkpt><trkpt lat="42.7069195" lon="13.5927276"><ele>1378.142857142857</ele><time>2026-05-02T09:31:52.47Z</time></trkpt><trkpt lat="42.7069832" lon="13.5926965"><ele>1378.2857142857142</ele><time>2026-05-02T09:31:54.47Z</time></trkpt><trkpt lat="42.7070475" lon="13.5926653"><ele>1378.4285714285716</ele><time>2026-05-02T09:31:56.471Z</time></trkpt><trkpt lat="42.7071116" lon="13.5926338"><ele>1378.5714285714284</ele><time>2026-05-02T09:31:58.47Z</time></trkpt><trkpt lat="42.7071775" lon="13.592598"><ele>1378.7142857142858</ele><time>2026-05-02T09:32:00.47Z</time></trkpt><trkpt lat="42.7072419" lon="13.5925563"><ele>1378.857142857143</ele><time>2026-05-02T09:32:02.469Z</time></trkpt><trkpt lat="42.7073066" lon="13.5925116"><ele>1379.0</ele><time>2026-05-02T09:32:04.469Z</time></trkpt><trkpt lat="42.7073659" lon="13.5924657"><ele>1379.0</ele><time>2026-05-02T09:32:06.471Z</time></trkpt><trkpt lat="42.7074289" lon="13.5924232"><ele>1379.0</ele><time>2026-05-02T09:32:08.47Z</time></trkpt><trkpt lat="42.7074924" lon="13.592386"><ele>1379.0</ele><time>2026-05-02T09:32:10.47Z</time></trkpt><trkpt lat="42.7075587" lon="13.5923555"><ele>1379.0</ele><time>2026-05-02T09:32:12.469Z</time></trkpt><trkpt lat="42.7076243" lon="13.5923218"><ele>1379.0</ele><time>2026-05-02T09:32:14.469Z</time></trkpt><trkpt lat="42.7076864" lon="13.5922866"><ele>1379.0</ele><time>2026-05-02T09:32:16.468Z</time></trkpt><trkpt lat="42.7077505" lon="13.5922515"><ele>1379.0</ele><time>2026-05-02T09:32:18.468Z</time></trkpt><trkpt lat="42.7078129" lon="13.5922125"><ele>1379.5714285714287</ele><time>2026-05-02T09:32:20.468Z</time></trkpt><trkpt lat="42.7078762" lon="13.5921759"><ele>1380.142857142857</ele><time>2026-05-02T09:32:22.47Z</time></trkpt><trkpt lat="42.7079377" lon="13.5921383"><ele>1380.7142857142858</ele><time>2026-05-02T09:32:24.469Z</time></trkpt><trkpt lat="42.7079993" lon="13.5921051"><ele>1381.2857142857142</ele><time>2026-05-02T09:32:26.468Z</time></trkpt><trkpt lat="42.7080631" lon="13.5920794"><ele>1381.857142857143</ele><time>2026-05-02T09:32:28.469Z</time></trkpt><trkpt lat="42.7081205" lon="13.592028"><ele>1382.4285714285716</ele><time>2026-05-02T09:32:30.469Z</time></trkpt><trkpt lat="42.7081727" lon="13.5919647"><ele>1383.0</ele><time>2026-05-02T09:32:32.468Z</time></trkpt><trkpt lat="42.7082237" lon="13.5919032"><ele>1383.7142857142858</ele><time>2026-05-02T09:32:34.469Z</time></trkpt><trkpt lat="42.7082725" lon="13.5918438"><ele>1384.4285714285716</ele><time>2026-05-02T09:32:36.468Z</time></trkpt><trkpt lat="42.7083116" lon="13.5917733"><ele>1385.1428571428573</ele><time>2026-05-02T09:32:38.468Z</time></trkpt><trkpt lat="42.7083474" lon="13.5916956"><ele>1385.857142857143</ele><time>2026-05-02T09:32:40.468Z</time></trkpt><trkpt lat="42.7083829" lon="13.5916243"><ele>1386.5714285714284</ele><time>2026-05-02T09:32:42.468Z</time></trkpt><trkpt lat="42.7084273" lon="13.5915205"><ele>1387.2857142857144</ele><time>2026-05-02T09:32:45.469Z</time></trkpt><trkpt lat="42.7084692" lon="13.5914145"><ele>1388.0</ele><time>2026-05-02T09:32:48.47Z</time></trkpt><trkpt lat="42.7085221" lon="13.5913202"><ele>1389.0</ele><time>2026-05-02T09:32:51.469Z</time></trkpt><trkpt lat="42.7085834" lon="13.5912201"><ele>1390.0</ele><time>2026-05-02T09:32:54.469Z</time></trkpt><trkpt lat="42.7086253" lon="13.5911489"><ele>1391.0</ele><time>2026-05-02T09:32:56.47Z</time></trkpt><trkpt lat="42.7086713" lon="13.5910841"><ele>1392.0</ele><time>2026-05-02T09:32:58.47Z</time></trkpt><trkpt lat="42.7087137" lon="13.5910151"><ele>1393.0</ele><time>2026-05-02T09:33:00.468Z</time></trkpt><trkpt lat="42.7087535" lon="13.5909434"><ele>1394.0</ele><time>2026-05-02T09:33:02.468Z</time></trkpt><trkpt lat="42.7088053" lon="13.5908834"><ele>1395.0</ele><time>2026-05-02T09:33:04.469Z</time></trkpt><trkpt lat="42.7088571" lon="13.5908207"><ele>1395.0</ele><time>2026-05-02T09:33:06.469Z</time></trkpt><trkpt lat="42.708914" lon="13.5907557"><ele>1395.0</ele><time>2026-05-02T09:33:08.469Z</time></trkpt><trkpt lat="42.7089662" lon="13.5907025"><ele>1395.0</ele><time>2026-05-02T09:33:10.469Z</time></trkpt><trkpt lat="42.709019" lon="13.5906503"><ele>1395.0</ele><time>2026-05-02T09:33:12.469Z</time></trkpt><trkpt lat="42.7090678" lon="13.5905898"><ele>1395.0</ele><time>2026-05-02T09:33:14.468Z</time></trkpt><trkpt lat="42.7091119" lon="13.5905276"><ele>1395.0</ele><time>2026-05-02T09:33:16.468Z</time></trkpt><trkpt lat="42.7091769" lon="13.590447"><ele>1395.0</ele><time>2026-05-02T09:33:19.469Z</time></trkpt><trkpt lat="42.7092342" lon="13.590369"><ele>1395.0</ele><time>2026-05-02T09:33:22.468Z</time></trkpt><trkpt lat="42.7092978" lon="13.5903214"><ele>1395.0</ele><time>2026-05-02T09:33:25.469Z</time></trkpt><trkpt lat="42.7093755" lon="13.590302"><ele>1395.0</ele><time>2026-05-02T09:33:28.47Z</time></trkpt><trkpt lat="42.709461" lon="13.5902825"><ele>1395.0</ele><time>2026-05-02T09:33:31.469Z</time></trkpt><trkpt lat="42.7095465" lon="13.5902691"><ele>1395.0</ele><time>2026-05-02T09:33:34.469Z</time></trkpt><trkpt lat="42.7096339" lon="13.5902536"><ele>1395.0</ele><time>2026-05-02T09:33:37.468Z</time></trkpt><trkpt lat="42.7097223" lon="13.5902487"><ele>1395.0</ele><time>2026-05-02T09:33:40.469Z</time></trkpt><trkpt lat="42.7097974" lon="13.5902337"><ele>1395.0</ele><time>2026-05-02T09:33:43.469Z</time></trkpt><trkpt lat="42.709871" lon="13.5902218"><ele>1395.0</ele><time>2026-05-02T09:33:46.468Z</time></trkpt><trkpt lat="42.709949" lon="13.5901979"><ele>1395.0</ele><time>2026-05-02T09:33:49.469Z</time></trkpt><trkpt lat="42.7100345" lon="13.5901826"><ele>1395.0</ele><time>2026-05-02T09:33:52.468Z</time></trkpt><trkpt lat="42.7101178" lon="13.5901302"><ele>1395.0</ele><time>2026-05-02T09:33:55.469Z</time></trkpt><trkpt lat="42.710199" lon="13.5900651"><ele>1397.7142857142858</ele><time>2026-05-02T09:33:58.469Z</time></trkpt><trkpt lat="42.7102564" lon="13.5900261"><ele>1400.4285714285713</ele><time>2026-05-02T09:34:00.47Z</time></trkpt><trkpt lat="42.7103107" lon="13.5899808"><ele>1403.142857142857</ele><time>2026-05-02T09:34:02.469Z</time></trkpt><trkpt lat="42.7103662" lon="13.5899394"><ele>1405.857142857143</ele><time>2026-05-02T09:34:04.47Z</time></trkpt><trkpt lat="42.7104423" lon="13.5898687"><ele>1408.5714285714284</ele><time>2026-05-02T09:34:07.47Z</time></trkpt><trkpt lat="42.7104952" lon="13.5898216"><ele>1411.2857142857142</ele><time>2026-05-02T09:34:09.469Z</time></trkpt><trkpt lat="42.7105547" lon="13.5897741"><ele>1414.0</ele><time>2026-05-02T09:34:11.469Z</time></trkpt><trkpt lat="42.7106166" lon="13.5897166"><ele>1414.0</ele><time>2026-05-02T09:34:13.468Z</time></trkpt><trkpt lat="42.7106691" lon="13.5896467"><ele>1414.0</ele><time>2026-05-02T09:34:15.469Z</time></trkpt><trkpt lat="42.7107055" lon="13.5895655"><ele>1414.0</ele><time>2026-05-02T09:34:17.47Z</time></trkpt><trkpt lat="42.7107389" lon="13.5894865"><ele>1414.0</ele><time>2026-05-02T09:34:19.469Z</time></trkpt><trkpt lat="42.7107778" lon="13.5894112"><ele>1414.0</ele><time>2026-05-02T09:34:21.469Z</time></trkpt><trkpt lat="42.7108276" lon="13.5893441"><ele>1414.0</ele><time>2026-05-02T09:34:23.47Z</time></trkpt><trkpt lat="42.7108857" lon="13.5892894"><ele>1414.0</ele><time>2026-05-02T09:34:25.469Z</time></trkpt><trkpt lat="42.7109472" lon="13.5892449"><ele>1415.1666666666665</ele><time>2026-05-02T09:34:27.469Z</time></trkpt><trkpt lat="42.7110019" lon="13.5891915"><ele>1416.3333333333333</ele><time>2026-05-02T09:34:29.469Z</time></trkpt><trkpt lat="42.7110887" lon="13.5891363"><ele>1417.5</ele><time>2026-05-02T09:34:32.468Z</time></trkpt><trkpt lat="42.7111462" lon="13.5890887"><ele>1418.6666666666667</ele><time>2026-05-02T09:34:34.468Z</time></trkpt><trkpt lat="42.7111996" lon="13.5890266"><ele>1419.8333333333335</ele><time>2026-05-02T09:34:36.469Z</time></trkpt><trkpt lat="42.711251" lon="13.5889644"><ele>1421.0</ele><time>2026-05-02T09:34:38.469Z</time></trkpt><trkpt lat="42.7113077" lon="13.5888653"><ele>1421.0</ele><time>2026-05-02T09:34:41.469Z</time></trkpt><trkpt lat="42.7113446" lon="13.5887517"><ele>1421.0</ele><time>2026-05-02T09:34:44.469Z</time></trkpt><trkpt lat="42.7113818" lon="13.5886786"><ele>1421.0</ele><time>2026-05-02T09:34:47.468Z</time></trkpt><trkpt lat="42.7114523" lon="13.5886595"><ele>1421.0</ele><time>2026-05-02T09:34:50.468Z</time></trkpt><trkpt lat="42.7115161" lon="13.5886958"><ele>1421.0</ele><time>2026-05-02T09:34:52.469Z</time></trkpt><trkpt lat="42.7115871" lon="13.5886996"><ele>1421.0</ele><time>2026-05-02T09:34:54.468Z</time></trkpt><trkpt lat="42.7116603" lon="13.5886878"><ele>1421.0</ele><time>2026-05-02T09:34:56.469Z</time></trkpt><trkpt lat="42.711731" lon="13.5886639"><ele>1420.857142857143</ele><time>2026-05-02T09:34:58.468Z</time></trkpt><trkpt lat="42.7117982" lon="13.5886298"><ele>1420.7142857142858</ele><time>2026-05-02T09:35:00.469Z</time></trkpt><trkpt lat="42.7118628" lon="13.5885947"><ele>1420.5714285714284</ele><time>2026-05-02T09:35:02.467Z</time></trkpt><trkpt lat="42.7119245" lon="13.5885495"><ele>1420.4285714285716</ele><time>2026-05-02T09:35:04.469Z</time></trkpt><trkpt lat="42.7119916" lon="13.5885024"><ele>1420.2857142857142</ele><time>2026-05-02T09:35:06.468Z</time></trkpt><trkpt lat="42.712048" lon="13.5884528"><ele>1420.142857142857</ele><time>2026-05-02T09:35:08.468Z</time></trkpt><trkpt lat="42.7121117" lon="13.5884069"><ele>1420.0</ele><time>2026-05-02T09:35:10.468Z</time></trkpt><trkpt lat="42.712175" lon="13.5883567"><ele>1420.0</ele><time>2026-05-02T09:35:12.468Z</time></trkpt><trkpt lat="42.7122402" lon="13.5883112"><ele>1420.0</ele><time>2026-05-02T09:35:14.467Z</time></trkpt><trkpt lat="42.7123022" lon="13.5882589"><ele>1420.0</ele><time>2026-05-02T09:35:16.467Z</time></trkpt><trkpt lat="42.7123613" lon="13.5882016"><ele>1420.0</ele><time>2026-05-02T09:35:18.467Z</time></trkpt><trkpt lat="42.7124246" lon="13.5881466"><ele>1420.0</ele><time>2026-05-02T09:35:20.468Z</time></trkpt><trkpt lat="42.7124891" lon="13.5880895"><ele>1420.0</ele><time>2026-05-02T09:35:22.468Z</time></trkpt><trkpt lat="42.7125502" lon="13.5880281"><ele>1420.0</ele><time>2026-05-02T09:35:24.469Z</time></trkpt><trkpt lat="42.7126048" lon="13.587961"><ele>1420.0</ele><time>2026-05-02T09:35:26.468Z</time></trkpt><trkpt lat="42.7126672" lon="13.5879165"><ele>1420.0</ele><time>2026-05-02T09:35:28.468Z</time></trkpt><trkpt lat="42.7127345" lon="13.5878586"><ele>1420.0</ele><time>2026-05-02T09:35:30.469Z</time></trkpt><trkpt lat="42.7128019" lon="13.587792"><ele>1420.0</ele><time>2026-05-02T09:35:32.467Z</time></trkpt><trkpt lat="42.7128761" lon="13.5877392"><ele>1420.0</ele><time>2026-05-02T09:35:34.469Z</time></trkpt><trkpt lat="42.7129518" lon="13.5876844"><ele>1420.0</ele><time>2026-05-02T09:35:36.468Z</time></trkpt><trkpt lat="42.7130278" lon="13.5876262"><ele>1419.3333333333333</ele><time>2026-05-02T09:35:38.468Z</time></trkpt><trkpt lat="42.7131006" lon="13.5875681"><ele>1418.6666666666665</ele><time>2026-05-02T09:35:40.469Z</time></trkpt><trkpt lat="42.7131658" lon="13.5875044"><ele>1418.0</ele><time>2026-05-02T09:35:42.468Z</time></trkpt><trkpt lat="42.7132309" lon="13.5874483"><ele>1417.3333333333333</ele><time>2026-05-02T09:35:44.468Z</time></trkpt><trkpt lat="42.7132965" lon="13.5873938"><ele>1416.6666666666667</ele><time>2026-05-02T09:35:46.469Z</time></trkpt><trkpt lat="42.7133617" lon="13.5873338"><ele>1416.0</ele><time>2026-05-02T09:35:48.469Z</time></trkpt><trkpt lat="42.7134375" lon="13.5872876"><ele>1416.0</ele><time>2026-05-02T09:35:50.468Z</time></trkpt><trkpt lat="42.7135114" lon="13.5872618"><ele>1416.0</ele><time>2026-05-02T09:35:52.467Z</time></trkpt><trkpt lat="42.7135826" lon="13.5872442"><ele>1416.0</ele><time>2026-05-02T09:35:54.469Z</time></trkpt><trkpt lat="42.7136533" lon="13.5872308"><ele>1416.0</ele><time>2026-05-02T09:35:56.469Z</time></trkpt><trkpt lat="42.7137225" lon="13.5872148"><ele>1416.0</ele><time>2026-05-02T09:35:58.468Z</time></trkpt><trkpt lat="42.7137796" lon="13.5871677"><ele>1416.0</ele><time>2026-05-02T09:36:00.468Z</time></trkpt><trkpt lat="42.7138446" lon="13.5871067"><ele>1416.0</ele><time>2026-05-02T09:36:05.469Z</time></trkpt><trkpt lat="42.7139052" lon="13.5870739"><ele>1415.4285714285716</ele><time>2026-05-02T09:36:08.467Z</time></trkpt><trkpt lat="42.7139681" lon="13.5870632"><ele>1414.8571428571427</ele><time>2026-05-02T09:36:24.468Z</time></trkpt><trkpt lat="42.7140347" lon="13.587019"><ele>1414.2857142857142</ele><time>2026-05-02T09:36:27.467Z</time></trkpt><trkpt lat="42.7140816" lon="13.5869587"><ele>1413.7142857142858</ele><time>2026-05-02T09:36:29.468Z</time></trkpt><trkpt lat="42.7141122" lon="13.5868414"><ele>1413.1428571428573</ele><time>2026-05-02T09:36:40.469Z</time></trkpt><trkpt lat="42.7141609" lon="13.5867816"><ele>1412.5714285714284</ele><time>2026-05-02T09:36:50.467Z</time></trkpt><trkpt lat="42.7141405" lon="13.5868653"><ele>1412.0</ele><time>2026-05-02T09:37:22.468Z</time></trkpt><trkpt lat="42.7141035" lon="13.5869697"><ele>1412.0</ele><time>2026-05-02T09:37:24.468Z</time></trkpt><trkpt lat="42.714046" lon="13.5870423"><ele>1412.0</ele><time>2026-05-02T09:37:26.467Z</time></trkpt><trkpt lat="42.7139811" lon="13.5870699"><ele>1412.0</ele><time>2026-05-02T09:37:28.469Z</time></trkpt><trkpt lat="42.7139059" lon="13.5870933"><ele>1412.0</ele><time>2026-05-02T09:37:32.468Z</time></trkpt><trkpt lat="42.7138434" lon="13.5871258"><ele>1412.0</ele><time>2026-05-02T09:37:35.468Z</time></trkpt><trkpt lat="42.7137844" lon="13.5871653"><ele>1412.0</ele><time>2026-05-02T09:37:38.466Z</time></trkpt><trkpt lat="42.7137376" lon="13.5872511"><ele>1412.0</ele><time>2026-05-02T09:38:11.466Z</time></trkpt><trkpt lat="42.7136641" lon="13.5872445"><ele>1412.0</ele><time>2026-05-02T09:38:15.467Z</time></trkpt><trkpt lat="42.7135947" lon="13.5872562"><ele>1412.0</ele><time>2026-05-02T09:38:18.466Z</time></trkpt><trkpt lat="42.7135343" lon="13.5872906"><ele>1412.0</ele><time>2026-05-02T09:38:20.466Z</time></trkpt><trkpt lat="42.7134571" lon="13.5873339"><ele>1412.0</ele><time>2026-05-02T09:38:22.466Z</time></trkpt><trkpt lat="42.713372" lon="13.5873627"><ele>1412.0</ele><time>2026-05-02T09:38:24.467Z</time></trkpt><trkpt lat="42.7132903" lon="13.587426"><ele>1412.0</ele><time>2026-05-02T09:38:26.467Z</time></trkpt><trkpt lat="42.7132094" lon="13.5874952"><ele>1413.0</ele><time>2026-05-02T09:38:28.467Z</time></trkpt><trkpt lat="42.713114" lon="13.5875778"><ele>1414.0</ele><time>2026-05-02T09:38:30.468Z</time></trkpt><trkpt lat="42.7130128" lon="13.5876577"><ele>1415.0</ele><time>2026-05-02T09:38:32.466Z</time></trkpt><trkpt lat="42.7129131" lon="13.587739"><ele>1416.0</ele><time>2026-05-02T09:38:34.467Z</time></trkpt><trkpt lat="42.7128233" lon="13.5878203"><ele>1416.8</ele><time>2026-05-02T09:38:36.466Z</time></trkpt><trkpt lat="42.712726" lon="13.5878935"><ele>1417.6</ele><time>2026-05-02T09:38:38.467Z</time></trkpt><trkpt lat="42.7126307" lon="13.5879609"><ele>1418.4</ele><time>2026-05-02T09:38:40.467Z</time></trkpt><trkpt lat="42.7125388" lon="13.5880476"><ele>1419.2</ele><time>2026-05-02T09:38:42.467Z</time></trkpt><trkpt lat="42.7124482" lon="13.5881453"><ele>1420.0</ele><time>2026-05-02T09:38:44.466Z</time></trkpt><trkpt lat="42.7123526" lon="13.5882302"><ele>1420.0</ele><time>2026-05-02T09:38:46.467Z</time></trkpt><trkpt lat="42.7122614" lon="13.5883086"><ele>1420.0</ele><time>2026-05-02T09:38:48.467Z</time></trkpt><trkpt lat="42.7121678" lon="13.5883811"><ele>1420.0</ele><time>2026-05-02T09:38:50.468Z</time></trkpt><trkpt lat="42.7120736" lon="13.5884652"><ele>1420.0</ele><time>2026-05-02T09:38:52.467Z</time></trkpt><trkpt lat="42.7119776" lon="13.5885578"><ele>1420.0</ele><time>2026-05-02T09:38:54.467Z</time></trkpt><trkpt lat="42.7119219" lon="13.5886078"><ele>1420.142857142857</ele><time>2026-05-02T09:38:55.467Z</time></trkpt><trkpt lat="42.711858" lon="13.5886502"><ele>1420.2857142857142</ele><time>2026-05-02T09:38:56.467Z</time></trkpt><trkpt lat="42.7117889" lon="13.5886838"><ele>1420.4285714285716</ele><time>2026-05-02T09:38:57.468Z</time></trkpt><trkpt lat="42.7117191" lon="13.588707"><ele>1420.5714285714284</ele><time>2026-05-02T09:38:58.466Z</time></trkpt><trkpt lat="42.7116489" lon="13.5887215"><ele>1420.7142857142858</ele><time>2026-05-02T09:38:59.467Z</time></trkpt><trkpt lat="42.7115769" lon="13.5887275"><ele>1420.857142857143</ele><time>2026-05-02T09:39:00.466Z</time></trkpt><trkpt lat="42.7115047" lon="13.5887408"><ele>1421.0</ele><time>2026-05-02T09:39:01.468Z</time></trkpt><trkpt lat="42.7114332" lon="13.5887684"><ele>1421.0</ele><time>2026-05-02T09:39:02.467Z</time></trkpt><trkpt lat="42.7113699" lon="13.5888147"><ele>1421.0</ele><time>2026-05-02T09:39:03.467Z</time></trkpt><trkpt lat="42.7113133" lon="13.5888774"><ele>1421.0</ele><time>2026-05-02T09:39:04.467Z</time></trkpt><trkpt lat="42.7112585" lon="13.5889495"><ele>1421.0</ele><time>2026-05-02T09:39:05.467Z</time></trkpt><trkpt lat="42.7112009" lon="13.58902"><ele>1421.0</ele><time>2026-05-02T09:39:06.467Z</time></trkpt><trkpt lat="42.7111416" lon="13.589084"><ele>1421.0</ele><time>2026-05-02T09:39:07.466Z</time></trkpt><trkpt lat="42.7110785" lon="13.5891342"><ele>1421.0</ele><time>2026-05-02T09:39:08.466Z</time></trkpt><trkpt lat="42.7110116" lon="13.58918"><ele>1420.0</ele><time>2026-05-02T09:39:09.468Z</time></trkpt><trkpt lat="42.7109496" lon="13.5892314"><ele>1419.0</ele><time>2026-05-02T09:39:10.468Z</time></trkpt><trkpt lat="42.7108874" lon="13.5892827"><ele>1418.0</ele><time>2026-05-02T09:39:11.467Z</time></trkpt><trkpt lat="42.7108282" lon="13.5893391"><ele>1417.0</ele><time>2026-05-02T09:39:12.466Z</time></trkpt><trkpt lat="42.7107771" lon="13.5894061"><ele>1416.0</ele><time>2026-05-02T09:39:13.468Z</time></trkpt><trkpt lat="42.7107334" lon="13.5894839"><ele>1415.0</ele><time>2026-05-02T09:39:14.468Z</time></trkpt><trkpt lat="42.7106935" lon="13.5895644"><ele>1414.0</ele><time>2026-05-02T09:39:15.466Z</time></trkpt><trkpt lat="42.710647" lon="13.5896443"><ele>1414.0</ele><time>2026-05-02T09:39:16.467Z</time></trkpt><trkpt lat="42.7106012" lon="13.5897184"><ele>1414.0</ele><time>2026-05-02T09:39:17.467Z</time></trkpt><trkpt lat="42.7105473" lon="13.5897836"><ele>1414.0</ele><time>2026-05-02T09:39:18.467Z</time></trkpt><trkpt lat="42.7104886" lon="13.5898384"><ele>1414.0</ele><time>2026-05-02T09:39:19.466Z</time></trkpt><trkpt lat="42.7104374" lon="13.5898942"><ele>1414.0</ele><time>2026-05-02T09:39:20.467Z</time></trkpt><trkpt lat="42.7103817" lon="13.5899442"><ele>1414.0</ele><time>2026-05-02T09:39:21.467Z</time></trkpt><trkpt lat="42.7103223" lon="13.5899831"><ele>1414.0</ele><time>2026-05-02T09:39:22.467Z</time></trkpt><trkpt lat="42.7102643" lon="13.590024"><ele>1410.8333333333333</ele><time>2026-05-02T09:39:23.468Z</time></trkpt><trkpt lat="42.7102059" lon="13.5900683"><ele>1407.6666666666665</ele><time>2026-05-02T09:39:24.467Z</time></trkpt><trkpt lat="42.7101438" lon="13.5901049"><ele>1404.5</ele><time>2026-05-02T09:39:25.466Z</time></trkpt><trkpt lat="42.7100842" lon="13.5901354"><ele>1401.3333333333333</ele><time>2026-05-02T09:39:26.466Z</time></trkpt><trkpt lat="42.7100214" lon="13.5901686"><ele>1398.1666666666667</ele><time>2026-05-02T09:39:27.468Z</time></trkpt><trkpt lat="42.7099016" lon="13.5902107"><ele>1395.0</ele><time>2026-05-02T09:39:29.467Z</time></trkpt><trkpt lat="42.7097863" lon="13.5902426"><ele>1395.0</ele><time>2026-05-02T09:39:31.468Z</time></trkpt><trkpt lat="42.7096661" lon="13.5902685"><ele>1395.0</ele><time>2026-05-02T09:39:33.466Z</time></trkpt><trkpt lat="42.7095429" lon="13.5902864"><ele>1395.0</ele><time>2026-05-02T09:39:35.468Z</time></trkpt><trkpt lat="42.7094175" lon="13.5903042"><ele>1395.0</ele><time>2026-05-02T09:39:37.466Z</time></trkpt><trkpt lat="42.7093004" lon="13.5903439"><ele>1395.0</ele><time>2026-05-02T09:39:39.467Z</time></trkpt><trkpt lat="42.7091931" lon="13.5904074"><ele>1395.0</ele><time>2026-05-02T09:39:41.466Z</time></trkpt><trkpt lat="42.7091005" lon="13.5904952"><ele>1395.0</ele><time>2026-05-02T09:39:43.467Z</time></trkpt><trkpt lat="42.7090323" lon="13.5905918"><ele>1395.0</ele><time>2026-05-02T09:39:45.467Z</time></trkpt><trkpt lat="42.7089581" lon="13.5906925"><ele>1395.0</ele><time>2026-05-02T09:39:47.467Z</time></trkpt><trkpt lat="42.7088853" lon="13.590796"><ele>1395.0</ele><time>2026-05-02T09:39:49.467Z</time></trkpt><trkpt lat="42.7088049" lon="13.5908917"><ele>1395.0</ele><time>2026-05-02T09:39:51.467Z</time></trkpt><trkpt lat="42.7087249" lon="13.5909828"><ele>1395.0</ele><time>2026-05-02T09:39:53.468Z</time></trkpt><trkpt lat="42.7086453" lon="13.5910998"><ele>1395.0</ele><time>2026-05-02T09:39:55.466Z</time></trkpt><trkpt lat="42.7086026" lon="13.5911655"><ele>1395.0</ele><time>2026-05-02T09:39:56.466Z</time></trkpt><trkpt lat="42.7085601" lon="13.5912355"><ele>1394.0</ele><time>2026-05-02T09:39:57.468Z</time></trkpt><trkpt lat="42.7085191" lon="13.5913115"><ele>1393.0</ele><time>2026-05-02T09:39:58.467Z</time></trkpt><trkpt lat="42.7084756" lon="13.591389"><ele>1392.0</ele><time>2026-05-02T09:39:59.467Z</time></trkpt><trkpt lat="42.7084331" lon="13.5914701"><ele>1391.0</ele><time>2026-05-02T09:40:00.467Z</time></trkpt><trkpt lat="42.7083928" lon="13.5915574"><ele>1390.0</ele><time>2026-05-02T09:40:01.466Z</time></trkpt><trkpt lat="42.7083512" lon="13.5916404"><ele>1389.0</ele><time>2026-05-02T09:40:02.467Z</time></trkpt><trkpt lat="42.7083102" lon="13.591726"><ele>1388.0</ele><time>2026-05-02T09:40:03.467Z</time></trkpt><trkpt lat="42.7082779" lon="13.5918143"><ele>1388.0</ele><time>2026-05-02T09:40:04.466Z</time></trkpt><trkpt lat="42.7082309" lon="13.5918914"><ele>1388.0</ele><time>2026-05-02T09:40:05.467Z</time></trkpt><trkpt lat="42.708178" lon="13.5919671"><ele>1388.0</ele><time>2026-05-02T09:40:06.466Z</time></trkpt><trkpt lat="42.7081179" lon="13.5920383"><ele>1388.0</ele><time>2026-05-02T09:40:07.468Z</time></trkpt><trkpt lat="42.7080513" lon="13.5920871"><ele>1388.0</ele><time>2026-05-02T09:40:08.468Z</time></trkpt><trkpt lat="42.7079842" lon="13.5921387"><ele>1388.0</ele><time>2026-05-02T09:40:09.467Z</time></trkpt><trkpt lat="42.7079121" lon="13.5921789"><ele>1387.1666666666667</ele><time>2026-05-02T09:40:10.466Z</time></trkpt><trkpt lat="42.7078389" lon="13.5922203"><ele>1386.3333333333335</ele><time>2026-05-02T09:40:11.467Z</time></trkpt><trkpt lat="42.7077645" lon="13.5922548"><ele>1385.5</ele><time>2026-05-02T09:40:12.468Z</time></trkpt><trkpt lat="42.7076914" lon="13.592295"><ele>1384.6666666666667</ele><time>2026-05-02T09:40:13.467Z</time></trkpt><trkpt lat="42.707616" lon="13.5923264"><ele>1383.8333333333333</ele><time>2026-05-02T09:40:14.467Z</time></trkpt><trkpt lat="42.7075403" lon="13.5923624"><ele>1383.0</ele><time>2026-05-02T09:40:15.467Z</time></trkpt><trkpt lat="42.7074657" lon="13.5923992"><ele>1382.3333333333333</ele><time>2026-05-02T09:40:16.468Z</time></trkpt><trkpt lat="42.707394" lon="13.5924433"><ele>1381.6666666666667</ele><time>2026-05-02T09:40:17.467Z</time></trkpt><trkpt lat="42.7073237" lon="13.5924887"><ele>1381.0</ele><time>2026-05-02T09:40:18.466Z</time></trkpt><trkpt lat="42.7072523" lon="13.5925306"><ele>1380.3333333333335</ele><time>2026-05-02T09:40:19.467Z</time></trkpt><trkpt lat="42.7071835" lon="13.5925822"><ele>1379.6666666666667</ele><time>2026-05-02T09:40:20.467Z</time></trkpt><trkpt lat="42.7071109" lon="13.5926274"><ele>1379.0</ele><time>2026-05-02T09:40:21.467Z</time></trkpt><trkpt lat="42.7070404" lon="13.592671"><ele>1379.0</ele><time>2026-05-02T09:40:22.466Z</time></trkpt><trkpt lat="42.7069725" lon="13.5927139"><ele>1379.0</ele><time>2026-05-02T09:40:23.467Z</time></trkpt><trkpt lat="42.7069055" lon="13.5927565"><ele>1379.0</ele><time>2026-05-02T09:40:24.468Z</time></trkpt><trkpt lat="42.7068361" lon="13.5927953"><ele>1379.0</ele><time>2026-05-02T09:40:25.467Z</time></trkpt><trkpt lat="42.7067636" lon="13.5928194"><ele>1379.0</ele><time>2026-05-02T09:40:26.466Z</time></trkpt><trkpt lat="42.7066926" lon="13.5928526"><ele>1379.0</ele><time>2026-05-02T09:40:27.467Z</time></trkpt><trkpt lat="42.7066233" lon="13.5928868"><ele>1379.0</ele><time>2026-05-02T09:40:28.467Z</time></trkpt><trkpt lat="42.7065576" lon="13.5929243"><ele>1378.857142857143</ele><time>2026-05-02T09:40:29.467Z</time></trkpt><trkpt lat="42.7064955" lon="13.5929748"><ele>1378.7142857142858</ele><time>2026-05-02T09:40:30.466Z</time></trkpt><trkpt lat="42.7064345" lon="13.593024"><ele>1378.5714285714284</ele><time>2026-05-02T09:40:31.467Z</time></trkpt><trkpt lat="42.7063842" lon="13.5930893"><ele>1378.4285714285716</ele><time>2026-05-02T09:40:32.467Z</time></trkpt><trkpt lat="42.7063415" lon="13.5931655"><ele>1378.2857142857142</ele><time>2026-05-02T09:40:33.467Z</time></trkpt><trkpt lat="42.7063059" lon="13.5932511"><ele>1378.142857142857</ele><time>2026-05-02T09:40:34.466Z</time></trkpt><trkpt lat="42.7062694" lon="13.5933397"><ele>1378.0</ele><time>2026-05-02T09:40:35.465Z</time></trkpt><trkpt lat="42.70622" lon="13.5934206"><ele>1378.0</ele><time>2026-05-02T09:40:36.466Z</time></trkpt><trkpt lat="42.7061596" lon="13.5934865"><ele>1378.0</ele><time>2026-05-02T09:40:37.465Z</time></trkpt><trkpt lat="42.7060867" lon="13.5935369"><ele>1378.0</ele><time>2026-05-02T09:40:38.466Z</time></trkpt><trkpt lat="42.7060147" lon="13.5935929"><ele>1378.0</ele><time>2026-05-02T09:40:39.465Z</time></trkpt><trkpt lat="42.7059354" lon="13.5936279"><ele>1378.0</ele><time>2026-05-02T09:40:40.466Z</time></trkpt><trkpt lat="42.7058636" lon="13.5936524"><ele>1378.0</ele><time>2026-05-02T09:40:41.466Z</time></trkpt><trkpt lat="42.7057969" lon="13.5937102"><ele>1376.3333333333333</ele><time>2026-05-02T09:40:42.466Z</time></trkpt><trkpt lat="42.7057344" lon="13.593772"><ele>1374.6666666666665</ele><time>2026-05-02T09:40:43.466Z</time></trkpt><trkpt lat="42.7056649" lon="13.5938319"><ele>1373.0</ele><time>2026-05-02T09:40:44.465Z</time></trkpt><trkpt lat="42.7055959" lon="13.5938893"><ele>1371.3333333333333</ele><time>2026-05-02T09:40:45.465Z</time></trkpt><trkpt lat="42.7055268" lon="13.5939557"><ele>1369.6666666666667</ele><time>2026-05-02T09:40:46.465Z</time></trkpt><trkpt lat="42.7054592" lon="13.5940228"><ele>1368.0</ele><time>2026-05-02T09:40:47.466Z</time></trkpt><trkpt lat="42.7053872" lon="13.5940809"><ele>1368.0</ele><time>2026-05-02T09:40:48.467Z</time></trkpt><trkpt lat="42.7053129" lon="13.5941346"><ele>1368.0</ele><time>2026-05-02T09:40:49.466Z</time></trkpt><trkpt lat="42.7052353" lon="13.5941831"><ele>1368.0</ele><time>2026-05-02T09:40:50.466Z</time></trkpt><trkpt lat="42.7051548" lon="13.5942304"><ele>1368.0</ele><time>2026-05-02T09:40:51.466Z</time></trkpt><trkpt lat="42.7050722" lon="13.5942701"><ele>1368.0</ele><time>2026-05-02T09:40:52.466Z</time></trkpt><trkpt lat="42.7049881" lon="13.5943152"><ele>1368.0</ele><time>2026-05-02T09:40:53.465Z</time></trkpt><trkpt lat="42.7049073" lon="13.5943616"><ele>1366.0</ele><time>2026-05-02T09:40:54.466Z</time></trkpt><trkpt lat="42.7048251" lon="13.5944088"><ele>1364.0</ele><time>2026-05-02T09:40:55.465Z</time></trkpt><trkpt lat="42.704744" lon="13.5944582"><ele>1362.0</ele><time>2026-05-02T09:40:56.466Z</time></trkpt><trkpt lat="42.7046622" lon="13.5945052"><ele>1360.0</ele><time>2026-05-02T09:40:57.465Z</time></trkpt><trkpt lat="42.7045854" lon="13.5945665"><ele>1358.0</ele><time>2026-05-02T09:40:58.466Z</time></trkpt><trkpt lat="42.7045164" lon="13.5946364"><ele>1356.0</ele><time>2026-05-02T09:40:59.466Z</time></trkpt><trkpt lat="42.7044459" lon="13.5947021"><ele>1354.0</ele><time>2026-05-02T09:41:00.466Z</time></trkpt><trkpt lat="42.7043821" lon="13.5947805"><ele>1352.0</ele><time>2026-05-02T09:41:01.466Z</time></trkpt><trkpt lat="42.7043324" lon="13.5948689"><ele>1350.0</ele><time>2026-05-02T09:41:02.465Z</time></trkpt><trkpt lat="42.7042934" lon="13.5949537"><ele>1348.0</ele><time>2026-05-02T09:41:03.467Z</time></trkpt><trkpt lat="42.7042085" lon="13.5950521"><ele>1346.0</ele><time>2026-05-02T09:41:05.465Z</time></trkpt><trkpt lat="42.7041262" lon="13.5950879"><ele>1344.0</ele><time>2026-05-02T09:41:07.465Z</time></trkpt><trkpt lat="42.7040521" lon="13.5950265"><ele>1344.0</ele><time>2026-05-02T09:41:10.465Z</time></trkpt><trkpt lat="42.7039844" lon="13.5949709"><ele>1344.0</ele><time>2026-05-02T09:41:12.466Z</time></trkpt><trkpt lat="42.7038802" lon="13.5949838"><ele>1344.0</ele><time>2026-05-02T09:41:14.465Z</time></trkpt><trkpt lat="42.7037602" lon="13.5949958"><ele>1344.0</ele><time>2026-05-02T09:41:16.467Z</time></trkpt><trkpt lat="42.7036377" lon="13.5950176"><ele>1344.0</ele><time>2026-05-02T09:41:18.466Z</time></trkpt><trkpt lat="42.7035208" lon="13.5950604"><ele>1343.8333333333333</ele><time>2026-05-02T09:41:20.466Z</time></trkpt><trkpt lat="42.7034076" lon="13.5951413"><ele>1343.6666666666667</ele><time>2026-05-02T09:41:22.465Z</time></trkpt><trkpt lat="42.7033527" lon="13.5951862"><ele>1343.5</ele><time>2026-05-02T09:41:23.466Z</time></trkpt><trkpt lat="42.7032994" lon="13.595239"><ele>1343.3333333333335</ele><time>2026-05-02T09:41:24.466Z</time></trkpt><trkpt lat="42.7032469" lon="13.5952937"><ele>1343.1666666666667</ele><time>2026-05-02T09:41:25.465Z</time></trkpt><trkpt lat="42.7031962" lon="13.5953474"><ele>1343.0</ele><time>2026-05-02T09:41:26.466Z</time></trkpt><trkpt lat="42.7031241" lon="13.5954193"><ele>1343.0</ele><time>2026-05-02T09:41:28.466Z</time></trkpt><trkpt lat="42.703063" lon="13.5954773"><ele>1343.0</ele><time>2026-05-02T09:41:30.467Z</time></trkpt><trkpt lat="42.7030054" lon="13.5955312"><ele>1343.0</ele><time>2026-05-02T09:41:34.467Z</time></trkpt><trkpt lat="42.7030769" lon="13.5954698"><ele>1343.0</ele><time>2026-05-02T09:41:44.465Z</time></trkpt><trkpt lat="42.703149" lon="13.5953976"><ele>1343.0</ele><time>2026-05-02T09:41:46.466Z</time></trkpt><trkpt lat="42.7032175" lon="13.5953169"><ele>1343.0</ele><time>2026-05-02T09:41:48.465Z</time></trkpt><trkpt lat="42.7032984" lon="13.5952344"><ele>1343.0</ele><time>2026-05-02T09:41:50.465Z</time></trkpt><trkpt lat="42.7033776" lon="13.5951517"><ele>1343.0</ele><time>2026-05-02T09:41:52.466Z</time></trkpt><trkpt lat="42.7034671" lon="13.5950875"><ele>1343.0</ele><time>2026-05-02T09:41:54.466Z</time></trkpt><trkpt lat="42.7035599" lon="13.5950423"><ele>1343.0</ele><time>2026-05-02T09:41:56.467Z</time></trkpt><trkpt lat="42.7036579" lon="13.5950246"><ele>1343.0</ele><time>2026-05-02T09:41:58.465Z</time></trkpt><trkpt lat="42.7037584" lon="13.5950224"><ele>1343.1666666666667</ele><time>2026-05-02T09:42:00.466Z</time></trkpt><trkpt lat="42.703853" lon="13.5950015"><ele>1343.3333333333335</ele><time>2026-05-02T09:42:02.465Z</time></trkpt><trkpt lat="42.703939" lon="13.5949918"><ele>1343.5</ele><time>2026-05-02T09:42:04.466Z</time></trkpt><trkpt lat="42.7040135" lon="13.5949911"><ele>1343.6666666666667</ele><time>2026-05-02T09:42:06.466Z</time></trkpt><trkpt lat="42.7040717" lon="13.5950528"><ele>1343.8333333333333</ele><time>2026-05-02T09:42:09.465Z</time></trkpt><trkpt lat="42.7041187" lon="13.5951373"><ele>1344.0</ele><time>2026-05-02T09:42:21.466Z</time></trkpt><trkpt lat="42.7040834" lon="13.5952252"><ele>1344.0</ele><time>2026-05-02T09:42:24.465Z</time></trkpt><trkpt lat="42.7040112" lon="13.5952827"><ele>1344.0</ele><time>2026-05-02T09:42:27.467Z</time></trkpt><trkpt lat="42.7039489" lon="13.5953508"><ele>1344.0</ele><time>2026-05-02T09:42:30.466Z</time></trkpt><trkpt lat="42.7038803" lon="13.5953987"><ele>1344.0</ele><time>2026-05-02T09:42:33.466Z</time></trkpt><trkpt lat="42.7038108" lon="13.5954424"><ele>1344.0</ele><time>2026-05-02T09:42:36.466Z</time></trkpt><trkpt lat="42.7037348" lon="13.595464"><ele>1344.0</ele><time>2026-05-02T09:42:39.466Z</time></trkpt><trkpt lat="42.7036711" lon="13.5954886"><ele>1343.1666666666667</ele><time>2026-05-02T09:42:42.466Z</time></trkpt><trkpt lat="42.7036132" lon="13.5955391"><ele>1342.3333333333333</ele><time>2026-05-02T09:42:45.465Z</time></trkpt><trkpt lat="42.7035208" lon="13.5955254"><ele>1341.5</ele><time>2026-05-02T09:42:48.466Z</time></trkpt><trkpt lat="42.7034645" lon="13.5954743"><ele>1340.6666666666665</ele><time>2026-05-02T09:42:53.465Z</time></trkpt><trkpt lat="42.7035033" lon="13.5953931"><ele>1339.8333333333333</ele><time>2026-05-02T09:42:56.466Z</time></trkpt><trkpt lat="42.7035776" lon="13.5953603"><ele>1339.0</ele><time>2026-05-02T09:43:00.466Z</time></trkpt><trkpt lat="42.7035093" lon="13.5953862"><ele>1342.7142857142858</ele><time>2026-05-02T09:43:09.466Z</time></trkpt><trkpt lat="42.7034985" lon="13.5954935"><ele>1346.4285714285713</ele><time>2026-05-02T09:43:13.466Z</time></trkpt><trkpt lat="42.7035259" lon="13.595582"><ele>1350.142857142857</ele><time>2026-05-02T09:43:16.466Z</time></trkpt><trkpt lat="42.7034845" lon="13.5956765"><ele>1353.857142857143</ele><time>2026-05-02T09:43:20.465Z</time></trkpt><trkpt lat="42.7034256" lon="13.5957197"><ele>1357.5714285714284</ele><time>2026-05-02T09:43:23.466Z</time></trkpt><trkpt lat="42.7033631" lon="13.5957611"><ele>1361.2857142857142</ele><time>2026-05-02T09:43:26.465Z</time></trkpt><trkpt lat="42.7033052" lon="13.5958"><ele>1365.0</ele><time>2026-05-02T09:43:29.467Z</time></trkpt><trkpt lat="42.7032334" lon="13.59585"><ele>1365.0</ele><time>2026-05-02T09:43:33.466Z</time></trkpt><trkpt lat="42.7031654" lon="13.5958915"><ele>1365.0</ele><time>2026-05-02T09:43:36.466Z</time></trkpt><trkpt lat="42.7030805" lon="13.5959329"><ele>1365.0</ele><time>2026-05-02T09:43:39.466Z</time></trkpt><trkpt lat="42.7030083" lon="13.595989"><ele>1365.0</ele><time>2026-05-02T09:43:42.466Z</time></trkpt><trkpt lat="42.7029551" lon="13.5960768"><ele>1365.0</ele><time>2026-05-02T09:43:45.466Z</time></trkpt><trkpt lat="42.7029218" lon="13.5961641"><ele>1365.0</ele><time>2026-05-02T09:43:48.465Z</time></trkpt><trkpt lat="42.7028761" lon="13.5962368"><ele>1364.2857142857142</ele><time>2026-05-02T09:43:52.465Z</time></trkpt><trkpt lat="42.702826" lon="13.5962917"><ele>1363.5714285714284</ele><time>2026-05-02T09:44:04.465Z</time></trkpt><trkpt lat="42.7028107" lon="13.5963823"><ele>1362.857142857143</ele><time>2026-05-02T09:44:08.465Z</time></trkpt><trkpt lat="42.7027444" lon="13.5963391"><ele>1362.142857142857</ele><time>2026-05-02T09:44:12.465Z</time></trkpt><trkpt lat="42.7027018" lon="13.5962656"><ele>1361.4285714285713</ele><time>2026-05-02T09:44:15.465Z</time></trkpt><trkpt lat="42.7026395" lon="13.5962903"><ele>1360.7142857142858</ele><time>2026-05-02T09:44:17.464Z</time></trkpt><trkpt lat="42.7025993" lon="13.596378"><ele>1360.0</ele><time>2026-05-02T09:44:20.465Z</time></trkpt><trkpt lat="42.7025519" lon="13.5964503"><ele>1359.6666666666665</ele><time>2026-05-02T09:44:23.465Z</time></trkpt><trkpt lat="42.7024979" lon="13.5965143"><ele>1359.3333333333333</ele><time>2026-05-02T09:44:26.465Z</time></trkpt><trkpt lat="42.7024314" lon="13.5965702"><ele>1359.0</ele><time>2026-05-02T09:44:29.464Z</time></trkpt><trkpt lat="42.7023825" lon="13.5966543"><ele>1358.6666666666667</ele><time>2026-05-02T09:44:32.466Z</time></trkpt><trkpt lat="42.7023704" lon="13.5967546"><ele>1358.3333333333335</ele><time>2026-05-02T09:44:35.464Z</time></trkpt><trkpt lat="42.7023766" lon="13.5968417"><ele>1358.0</ele><time>2026-05-02T09:44:38.464Z</time></trkpt><trkpt lat="42.7022922" lon="13.5968661"><ele>1358.0</ele><time>2026-05-02T09:44:42.466Z</time></trkpt><trkpt lat="42.7022256" lon="13.5968559"><ele>1358.0</ele><time>2026-05-02T09:44:44.464Z</time></trkpt><trkpt lat="42.7021633" lon="13.5968415"><ele>1358.0</ele><time>2026-05-02T09:44:46.465Z</time></trkpt><trkpt lat="42.7020727" lon="13.5968254"><ele>1358.0</ele><time>2026-05-02T09:44:49.465Z</time></trkpt><trkpt lat="42.7020064" lon="13.5968325"><ele>1358.0</ele><time>2026-05-02T09:44:51.465Z</time></trkpt><trkpt lat="42.7019165" lon="13.5968675"><ele>1358.0</ele><time>2026-05-02T09:44:54.465Z</time></trkpt><trkpt lat="42.7018472" lon="13.5968868"><ele>1356.3333333333335</ele><time>2026-05-02T09:44:56.464Z</time></trkpt><trkpt lat="42.70177" lon="13.5969221"><ele>1354.6666666666667</ele><time>2026-05-02T09:44:58.465Z</time></trkpt><trkpt lat="42.701691" lon="13.5969766"><ele>1353.0</ele><time>2026-05-02T09:45:00.465Z</time></trkpt><trkpt lat="42.7015868" lon="13.5970114"><ele>1351.3333333333333</ele><time>2026-05-02T09:45:02.465Z</time></trkpt><trkpt lat="42.701519" lon="13.5970221"><ele>1349.6666666666665</ele><time>2026-05-02T09:45:03.465Z</time></trkpt><trkpt lat="42.7014482" lon="13.5970365"><ele>1348.0</ele><time>2026-05-02T09:45:04.465Z</time></trkpt><trkpt lat="42.7013733" lon="13.5970455"><ele>1347.8333333333333</ele><time>2026-05-02T09:45:05.465Z</time></trkpt><trkpt lat="42.7012893" lon="13.5970537"><ele>1347.6666666666665</ele><time>2026-05-02T09:45:06.465Z</time></trkpt><trkpt lat="42.7012111" lon="13.5970821"><ele>1347.5</ele><time>2026-05-02T09:45:07.464Z</time></trkpt><trkpt lat="42.7011351" lon="13.5970992"><ele>1347.3333333333333</ele><time>2026-05-02T09:45:08.464Z</time></trkpt><trkpt lat="42.7010615" lon="13.5971088"><ele>1347.1666666666667</ele><time>2026-05-02T09:45:09.465Z</time></trkpt><trkpt lat="42.7009907" lon="13.5971349"><ele>1347.0</ele><time>2026-05-02T09:45:10.466Z</time></trkpt><trkpt lat="42.7008714" lon="13.5971758"><ele>1347.0</ele><time>2026-05-02T09:45:12.465Z</time></trkpt><trkpt lat="42.7007619" lon="13.5971902"><ele>1347.0</ele><time>2026-05-02T09:45:14.466Z</time></trkpt><trkpt lat="42.700679" lon="13.5972336"><ele>1347.0</ele><time>2026-05-02T09:45:16.464Z</time></trkpt><trkpt lat="42.700604" lon="13.5972886"><ele>1347.0</ele><time>2026-05-02T09:45:18.464Z</time></trkpt><trkpt lat="42.7005307" lon="13.5973511"><ele>1347.0</ele><time>2026-05-02T09:45:20.465Z</time></trkpt><trkpt lat="42.7004645" lon="13.5974183"><ele>1347.0</ele><time>2026-05-02T09:45:22.466Z</time></trkpt><trkpt lat="42.7003978" lon="13.5974749"><ele>1347.0</ele><time>2026-05-02T09:45:24.466Z</time></trkpt><trkpt lat="42.7003327" lon="13.5975289"><ele>1347.0</ele><time>2026-05-02T09:45:26.465Z</time></trkpt><trkpt lat="42.7002815" lon="13.5975964"><ele>1347.0</ele><time>2026-05-02T09:45:28.465Z</time></trkpt><trkpt lat="42.7002323" lon="13.5976627"><ele>1347.0</ele><time>2026-05-02T09:45:30.465Z</time></trkpt><trkpt lat="42.700175" lon="13.5977513"><ele>1347.0</ele><time>2026-05-02T09:45:33.465Z</time></trkpt><trkpt lat="42.7001409" lon="13.5978368"><ele>1349.3333333333333</ele><time>2026-05-02T09:45:36.465Z</time></trkpt><trkpt lat="42.7001174" lon="13.597926"><ele>1351.6666666666667</ele><time>2026-05-02T09:45:39.465Z</time></trkpt><trkpt lat="42.7000717" lon="13.5980204"><ele>1354.0</ele><time>2026-05-02T09:45:42.465Z</time></trkpt><trkpt lat="42.7000491" lon="13.598105"><ele>1356.3333333333335</ele><time>2026-05-02T09:45:44.466Z</time></trkpt><trkpt lat="42.7000387" lon="13.598229"><ele>1358.6666666666667</ele><time>2026-05-02T09:45:47.465Z</time></trkpt><trkpt lat="42.7000403" lon="13.5983286"><ele>1361.0</ele><time>2026-05-02T09:45:49.464Z</time></trkpt><trkpt lat="42.7000465" lon="13.5984641"><ele>1361.0</ele><time>2026-05-02T09:45:51.466Z</time></trkpt><trkpt lat="42.7000326" lon="13.5986195"><ele>1361.0</ele><time>2026-05-02T09:45:53.464Z</time></trkpt><trkpt lat="42.700025" lon="13.5987546"><ele>1361.0</ele><time>2026-05-02T09:45:55.466Z</time></trkpt><trkpt lat="42.6999855" lon="13.598889"><ele>1361.0</ele><time>2026-05-02T09:45:57.466Z</time></trkpt><trkpt lat="42.6999543" lon="13.5990119"><ele>1361.0</ele><time>2026-05-02T09:45:59.464Z</time></trkpt><trkpt lat="42.6999039" lon="13.5990634"><ele>1359.8571428571427</ele><time>2026-05-02T09:46:01.465Z</time></trkpt><trkpt lat="42.6998966" lon="13.5991694"><ele>1358.7142857142858</ele><time>2026-05-02T09:46:04.465Z</time></trkpt><trkpt lat="42.6999045" lon="13.5992591"><ele>1357.5714285714284</ele><time>2026-05-02T09:46:07.465Z</time></trkpt><trkpt lat="42.6998509" lon="13.5993166"><ele>1356.4285714285713</ele><time>2026-05-02T09:46:10.465Z</time></trkpt><trkpt lat="42.6997939" lon="13.5993548"><ele>1355.2857142857142</ele><time>2026-05-02T09:46:13.465Z</time></trkpt><trkpt lat="42.6997558" lon="13.5994248"><ele>1354.142857142857</ele><time>2026-05-02T09:46:15.464Z</time></trkpt><trkpt lat="42.6997195" lon="13.5994991"><ele>1353.0</ele><time>2026-05-02T09:46:16.465Z</time></trkpt><trkpt lat="42.6996663" lon="13.5996022"><ele>1354.5</ele><time>2026-05-02T09:46:18.465Z</time></trkpt><trkpt lat="42.6995911" lon="13.5996915"><ele>1356.0</ele><time>2026-05-02T09:46:20.464Z</time></trkpt><trkpt lat="42.6995323" lon="13.5997682"><ele>1357.5</ele><time>2026-05-02T09:46:22.464Z</time></trkpt><trkpt lat="42.6994652" lon="13.5998247"><ele>1359.0</ele><time>2026-05-02T09:46:24.465Z</time></trkpt><trkpt lat="42.6994159" lon="13.5998833"><ele>1360.5</ele><time>2026-05-02T09:46:25.464Z</time></trkpt><trkpt lat="42.6993229" lon="13.5999828"><ele>1362.0</ele><time>2026-05-02T09:46:27.465Z</time></trkpt><trkpt lat="42.6992757" lon="13.6000421"><ele>1362.0</ele><time>2026-05-02T09:46:28.465Z</time></trkpt><trkpt lat="42.6991802" lon="13.6001538"><ele>1362.0</ele><time>2026-05-02T09:46:30.464Z</time></trkpt><trkpt lat="42.6991289" lon="13.6002096"><ele>1362.0</ele><time>2026-05-02T09:46:31.465Z</time></trkpt><trkpt lat="42.6990887" lon="13.6002941"><ele>1362.0</ele><time>2026-05-02T09:46:32.465Z</time></trkpt><trkpt lat="42.6990331" lon="13.6003539"><ele>1362.0</ele><time>2026-05-02T09:46:33.464Z</time></trkpt><trkpt lat="42.6989741" lon="13.600396"><ele>1362.0</ele><time>2026-05-02T09:46:34.464Z</time></trkpt><trkpt lat="42.6989035" lon="13.6004448"><ele>1358.3333333333333</ele><time>2026-05-02T09:46:35.465Z</time></trkpt><trkpt lat="42.6988453" lon="13.6004833"><ele>1354.6666666666667</ele><time>2026-05-02T09:46:36.466Z</time></trkpt><trkpt lat="42.6987196" lon="13.6005325"><ele>1351.0</ele><time>2026-05-02T09:46:38.465Z</time></trkpt><trkpt lat="42.6986526" lon="13.6005612"><ele>1347.3333333333335</ele><time>2026-05-02T09:46:39.466Z</time></trkpt><trkpt lat="42.698583" lon="13.6005868"><ele>1343.6666666666667</ele><time>2026-05-02T09:46:40.465Z</time></trkpt><trkpt lat="42.6985144" lon="13.6005958"><ele>1340.0</ele><time>2026-05-02T09:46:41.465Z</time></trkpt><trkpt lat="42.6983978" lon="13.6006543"><ele>1340.0</ele><time>2026-05-02T09:46:43.465Z</time></trkpt><trkpt lat="42.6983327" lon="13.60069"><ele>1340.0</ele><time>2026-05-02T09:46:44.464Z</time></trkpt><trkpt lat="42.6982645" lon="13.6007236"><ele>1340.0</ele><time>2026-05-02T09:46:45.465Z</time></trkpt><trkpt lat="42.6981839" lon="13.6007375"><ele>1340.0</ele><time>2026-05-02T09:46:46.464Z</time></trkpt><trkpt lat="42.6981182" lon="13.6007333"><ele>1340.0</ele><time>2026-05-02T09:46:47.464Z</time></trkpt><trkpt lat="42.6980166" lon="13.6006798"><ele>1340.0</ele><time>2026-05-02T09:46:49.464Z</time></trkpt><trkpt lat="42.6979112" lon="13.600645"><ele>1340.0</ele><time>2026-05-02T09:46:51.465Z</time></trkpt><trkpt lat="42.6978431" lon="13.600633"><ele>1340.0</ele><time>2026-05-02T09:47:18.464Z</time></trkpt><trkpt lat="42.6977622" lon="13.600799"><ele>1340.0</ele><time>2026-05-02T09:47:20.463Z</time></trkpt><trkpt lat="42.6977116" lon="13.6009486"><ele>1340.0</ele><time>2026-05-02T09:47:22.464Z</time></trkpt><trkpt lat="42.6976757" lon="13.6010666"><ele>1340.0</ele><time>2026-05-02T09:47:24.464Z</time></trkpt><trkpt lat="42.6976184" lon="13.6011136"><ele>1339.4</ele><time>2026-05-02T09:47:27.464Z</time></trkpt><trkpt lat="42.6975383" lon="13.60112"><ele>1338.8</ele><time>2026-05-02T09:47:29.465Z</time></trkpt><trkpt lat="42.6974571" lon="13.6011307"><ele>1338.1999999999998</ele><time>2026-05-02T09:47:31.465Z</time></trkpt><trkpt lat="42.6973525" lon="13.6011233"><ele>1337.6</ele><time>2026-05-02T09:47:33.464Z</time></trkpt><trkpt lat="42.6972263" lon="13.6011213"><ele>1337.0</ele><time>2026-05-02T09:47:35.464Z</time></trkpt><trkpt lat="42.6971559" lon="13.6011179"><ele>1337.0</ele><time>2026-05-02T09:47:36.463Z</time></trkpt><trkpt lat="42.6970851" lon="13.6011118"><ele>1337.0</ele><time>2026-05-02T09:47:37.464Z</time></trkpt><trkpt lat="42.6970184" lon="13.6010954"><ele>1337.0</ele><time>2026-05-02T09:47:38.465Z</time></trkpt><trkpt lat="42.6969459" lon="13.601069"><ele>1337.0</ele><time>2026-05-02T09:47:41.463Z</time></trkpt><trkpt lat="42.696947" lon="13.6011861"><ele>1337.0</ele><time>2026-05-02T09:47:52.464Z</time></trkpt><trkpt lat="42.6968743" lon="13.6012504"><ele>1337.0</ele><time>2026-05-02T09:47:55.463Z</time></trkpt><trkpt lat="42.6968188" lon="13.6013262"><ele>1332.5</ele><time>2026-05-02T09:47:58.463Z</time></trkpt><trkpt lat="42.6967539" lon="13.6013614"><ele>1328.0</ele><time>2026-05-02T09:48:01.464Z</time></trkpt><trkpt lat="42.6966873" lon="13.6013984"><ele>1323.5</ele><time>2026-05-02T09:48:14.465Z</time></trkpt><trkpt lat="42.696672" lon="13.601482"><ele>1319.0</ele><time>2026-05-02T09:48:17.464Z</time></trkpt><trkpt lat="42.6965913" lon="13.6015681"><ele>1314.5</ele><time>2026-05-02T09:48:20.464Z</time></trkpt><trkpt lat="42.6965268" lon="13.6016149"><ele>1310.0</ele><time>2026-05-02T09:48:22.463Z</time></trkpt><trkpt lat="42.696475" lon="13.6017008"><ele>1310.0</ele><time>2026-05-02T09:48:25.463Z</time></trkpt><trkpt lat="42.6964648" lon="13.6017899"><ele>1310.0</ele><time>2026-05-02T09:48:27.464Z</time></trkpt><trkpt lat="42.696435" lon="13.6018881"><ele>1310.0</ele><time>2026-05-02T09:48:37.464Z</time></trkpt><trkpt lat="42.6963798" lon="13.6019438"><ele>1310.0</ele><time>2026-05-02T09:48:39.465Z</time></trkpt><trkpt lat="42.6963356" lon="13.6020349"><ele>1310.0</ele><time>2026-05-02T09:48:41.464Z</time></trkpt><trkpt lat="42.696318" lon="13.6021409"><ele>1310.0</ele><time>2026-05-02T09:48:42.465Z</time></trkpt><trkpt lat="42.6962912" lon="13.6022496"><ele>1307.0</ele><time>2026-05-02T09:48:43.464Z</time></trkpt><trkpt lat="42.6962622" lon="13.602349"><ele>1304.0</ele><time>2026-05-02T09:48:44.465Z</time></trkpt><trkpt lat="42.6962584" lon="13.602498"><ele>1301.0</ele><time>2026-05-02T09:48:46.463Z</time></trkpt><trkpt lat="42.6962389" lon="13.6026376"><ele>1298.0</ele><time>2026-05-02T09:48:48.463Z</time></trkpt><trkpt lat="42.6962071" lon="13.6027878"><ele>1295.0</ele><time>2026-05-02T09:48:50.463Z</time></trkpt><trkpt lat="42.6960949" lon="13.6028179"><ele>1294.7142857142858</ele><time>2026-05-02T09:48:52.464Z</time></trkpt><trkpt lat="42.696054" lon="13.6029011"><ele>1294.4285714285716</ele><time>2026-05-02T09:48:54.464Z</time></trkpt><trkpt lat="42.6960563" lon="13.6029917"><ele>1294.142857142857</ele><time>2026-05-02T09:48:56.465Z</time></trkpt><trkpt lat="42.6960533" lon="13.6031054"><ele>1293.857142857143</ele><time>2026-05-02T09:48:59.463Z</time></trkpt><trkpt lat="42.6960217" lon="13.6032027"><ele>1293.5714285714287</ele><time>2026-05-02T09:49:00.463Z</time></trkpt><trkpt lat="42.6959825" lon="13.6032725"><ele>1293.2857142857142</ele><time>2026-05-02T09:49:01.464Z</time></trkpt><trkpt lat="42.6959191" lon="13.6033099"><ele>1293.0</ele><time>2026-05-02T09:49:02.464Z</time></trkpt><trkpt lat="42.6958771" lon="13.6033744"><ele>1293.0</ele><time>2026-05-02T09:49:03.464Z</time></trkpt><trkpt lat="42.6958473" lon="13.6035022"><ele>1293.0</ele><time>2026-05-02T09:49:05.464Z</time></trkpt><trkpt lat="42.6958629" lon="13.6036434"><ele>1293.0</ele><time>2026-05-02T09:49:07.464Z</time></trkpt><trkpt lat="42.6958712" lon="13.6037285"><ele>1293.0</ele><time>2026-05-02T09:49:08.464Z</time></trkpt><trkpt lat="42.695798" lon="13.6038085"><ele>1293.0</ele><time>2026-05-02T09:49:09.464Z</time></trkpt><trkpt lat="42.69585" lon="13.6038848"><ele>1293.0</ele><time>2026-05-02T09:49:12.464Z</time></trkpt><trkpt lat="42.6958997" lon="13.6038141"><ele>1293.0</ele><time>2026-05-02T09:49:15.465Z</time></trkpt><trkpt lat="42.695935" lon="13.6037321"><ele>1293.0</ele><time>2026-05-02T09:49:26.464Z</time></trkpt><trkpt lat="42.6960066" lon="13.6036556"><ele>1293.0</ele><time>2026-05-02T09:49:28.464Z</time></trkpt><trkpt lat="42.6960816" lon="13.6035798"><ele>1293.0</ele><time>2026-05-02T09:49:30.463Z</time></trkpt><trkpt lat="42.6961653" lon="13.6035211"><ele>1293.0</ele><time>2026-05-02T09:49:32.463Z</time></trkpt><trkpt lat="42.6962364" lon="13.603505"><ele>1293.0</ele><time>2026-05-02T09:49:33.465Z</time></trkpt><trkpt lat="42.6963429" lon="13.6034654"><ele>1289.1666666666667</ele><time>2026-05-02T09:49:35.464Z</time></trkpt><trkpt lat="42.6963942" lon="13.6034054"><ele>1285.3333333333333</ele><time>2026-05-02T09:49:36.465Z</time></trkpt><trkpt lat="42.6964764" lon="13.6034196"><ele>1281.5</ele><time>2026-05-02T09:49:39.463Z</time></trkpt><trkpt lat="42.6965146" lon="13.6034949"><ele>1277.6666666666665</ele><time>2026-05-02T09:49:41.465Z</time></trkpt><trkpt lat="42.6964474" lon="13.6036083"><ele>1273.8333333333333</ele><time>2026-05-02T09:49:42.465Z</time></trkpt><trkpt lat="42.6964227" lon="13.6036968"><ele>1270.0</ele><time>2026-05-02T09:49:43.464Z</time></trkpt><trkpt lat="42.6963859" lon="13.6037964"><ele>1267.5</ele><time>2026-05-02T09:49:44.464Z</time></trkpt><trkpt lat="42.6963443" lon="13.6038936"><ele>1265.0</ele><time>2026-05-02T09:49:46.465Z</time></trkpt><trkpt lat="42.6963178" lon="13.6039846"><ele>1262.5</ele><time>2026-05-02T09:50:09.465Z</time></trkpt><trkpt lat="42.6962744" lon="13.6040885"><ele>1260.0</ele><time>2026-05-02T09:50:11.463Z</time></trkpt><trkpt lat="42.6962377" lon="13.6041786"><ele>1257.5</ele><time>2026-05-02T09:50:13.463Z</time></trkpt><trkpt lat="42.6961893" lon="13.6042405"><ele>1255.0</ele><time>2026-05-02T09:50:27.462Z</time></trkpt><trkpt lat="42.6961535" lon="13.6043318"><ele>1257.6</ele><time>2026-05-02T09:50:30.462Z</time></trkpt><trkpt lat="42.6960769" lon="13.6044158"><ele>1260.2</ele><time>2026-05-02T09:50:32.462Z</time></trkpt><trkpt lat="42.696013" lon="13.6045123"><ele>1262.8</ele><time>2026-05-02T09:50:34.463Z</time></trkpt><trkpt lat="42.695989" lon="13.6046067"><ele>1265.4</ele><time>2026-05-02T09:50:36.462Z</time></trkpt><trkpt lat="42.6959973" lon="13.6047701"><ele>1268.0</ele><time>2026-05-02T09:50:38.463Z</time></trkpt><trkpt lat="42.6960431" lon="13.6048856"><ele>1268.0</ele><time>2026-05-02T09:50:40.462Z</time></trkpt><trkpt lat="42.6960641" lon="13.6049973"><ele>1268.0</ele><time>2026-05-02T09:50:42.462Z</time></trkpt><trkpt lat="42.6960709" lon="13.6051341"><ele>1268.0</ele><time>2026-05-02T09:50:44.463Z</time></trkpt><trkpt lat="42.6960373" lon="13.6052456"><ele>1268.0</ele><time>2026-05-02T09:50:46.462Z</time></trkpt><trkpt lat="42.6960072" lon="13.6053304"><ele>1268.0</ele><time>2026-05-02T09:51:04.463Z</time></trkpt><trkpt lat="42.6960166" lon="13.6054283"><ele>1268.0</ele><time>2026-05-02T09:51:26.463Z</time></trkpt><trkpt lat="42.696021" lon="13.605537"><ele>1267.0</ele><time>2026-05-02T09:51:37.462Z</time></trkpt><trkpt lat="42.6960271" lon="13.6056327"><ele>1266.0</ele><time>2026-05-02T09:51:39.462Z</time></trkpt><trkpt lat="42.6960161" lon="13.6057581"><ele>1265.0</ele><time>2026-05-02T09:51:41.464Z</time></trkpt><trkpt lat="42.6959719" lon="13.6059262"><ele>1264.0</ele><time>2026-05-02T09:51:43.463Z</time></trkpt><trkpt lat="42.6959466" lon="13.6060449"><ele>1263.0</ele><time>2026-05-02T09:51:45.462Z</time></trkpt><trkpt lat="42.6959466" lon="13.6061941"><ele>1260.0</ele><time>2026-05-02T09:51:47.464Z</time></trkpt><trkpt lat="42.6959369" lon="13.606346"><ele>1257.0</ele><time>2026-05-02T09:51:49.462Z</time></trkpt><trkpt lat="42.6958854" lon="13.6065166"><ele>1254.0</ele><time>2026-05-02T09:51:51.462Z</time></trkpt><trkpt lat="42.6958493" lon="13.6066168"><ele>1251.0</ele><time>2026-05-02T09:51:53.462Z</time></trkpt><trkpt lat="42.6958178" lon="13.6067465"><ele>1248.0</ele><time>2026-05-02T09:51:55.463Z</time></trkpt><trkpt lat="42.6957945" lon="13.6068318"><ele>1248.0</ele><time>2026-05-02T09:52:15.463Z</time></trkpt><trkpt lat="42.6957776" lon="13.6069184"><ele>1248.0</ele><time>2026-05-02T09:52:25.463Z</time></trkpt><trkpt lat="42.695726" lon="13.6069913"><ele>1248.0</ele><time>2026-05-02T09:52:32.463Z</time></trkpt><trkpt lat="42.695698" lon="13.6070885"><ele>1248.0</ele><time>2026-05-02T09:52:35.462Z</time></trkpt><trkpt lat="42.6956663" lon="13.6072169"><ele>1248.0</ele><time>2026-05-02T09:52:38.463Z</time></trkpt><trkpt lat="42.6956375" lon="13.6072934"><ele>1248.0</ele><time>2026-05-02T09:52:40.464Z</time></trkpt><trkpt lat="42.6956218" lon="13.6073823"><ele>1248.0</ele><time>2026-05-02T09:52:42.463Z</time></trkpt><trkpt lat="42.6956394" lon="13.6074887"><ele>1245.6666666666667</ele><time>2026-05-02T09:52:44.463Z</time></trkpt><trkpt lat="42.6956481" lon="13.6076095"><ele>1243.3333333333333</ele><time>2026-05-02T09:52:46.463Z</time></trkpt><trkpt lat="42.695646" lon="13.607716"><ele>1241.0</ele><time>2026-05-02T09:52:48.463Z</time></trkpt><trkpt lat="42.6956136" lon="13.6078055"><ele>1238.6666666666665</ele><time>2026-05-02T09:52:50.464Z</time></trkpt><trkpt lat="42.6955652" lon="13.6078907"><ele>1236.3333333333333</ele><time>2026-05-02T09:52:52.464Z</time></trkpt><trkpt lat="42.6955067" lon="13.6079782"><ele>1234.0</ele><time>2026-05-02T09:52:54.464Z</time></trkpt><trkpt lat="42.6954441" lon="13.608072"><ele>1233.0</ele><time>2026-05-02T09:52:56.463Z</time></trkpt><trkpt lat="42.6953894" lon="13.6081602"><ele>1232.0</ele><time>2026-05-02T09:52:58.462Z</time></trkpt><trkpt lat="42.6953374" lon="13.6082198"><ele>1231.0</ele><time>2026-05-02T09:53:01.462Z</time></trkpt><trkpt lat="42.6952865" lon="13.6083169"><ele>1230.0</ele><time>2026-05-02T09:53:04.464Z</time></trkpt><trkpt lat="42.6952332" lon="13.6084245"><ele>1229.0</ele><time>2026-05-02T09:53:06.463Z</time></trkpt><trkpt lat="42.6951836" lon="13.6084801"><ele>1228.0</ele><time>2026-05-02T09:53:08.463Z</time></trkpt><trkpt lat="42.6951118" lon="13.6084781"><ele>1230.1666666666665</ele><time>2026-05-02T09:53:21.463Z</time></trkpt><trkpt lat="42.6950568" lon="13.6084271"><ele>1232.3333333333333</ele><time>2026-05-02T09:53:23.464Z</time></trkpt><trkpt lat="42.6950015" lon="13.608382"><ele>1234.5</ele><time>2026-05-02T09:53:25.462Z</time></trkpt><trkpt lat="42.6949184" lon="13.6083674"><ele>1236.6666666666667</ele><time>2026-05-02T09:53:28.464Z</time></trkpt><trkpt lat="42.6948401" lon="13.6084251"><ele>1238.8333333333335</ele><time>2026-05-02T09:53:31.462Z</time></trkpt><trkpt lat="42.6947929" lon="13.6085358"><ele>1241.0</ele><time>2026-05-02T09:53:33.463Z</time></trkpt><trkpt lat="42.6947395" lon="13.6086469"><ele>1238.0</ele><time>2026-05-02T09:53:35.464Z</time></trkpt><trkpt lat="42.6946981" lon="13.6087685"><ele>1235.0</ele><time>2026-05-02T09:53:37.464Z</time></trkpt><trkpt lat="42.6946594" lon="13.6089117"><ele>1232.0</ele><time>2026-05-02T09:53:39.464Z</time></trkpt><trkpt lat="42.694639" lon="13.6089946"><ele>1229.0</ele><time>2026-05-02T09:53:40.464Z</time></trkpt><trkpt lat="42.6946201" lon="13.6090847"><ele>1226.0</ele><time>2026-05-02T09:53:41.463Z</time></trkpt><trkpt lat="42.6946041" lon="13.6091805"><ele>1223.0</ele><time>2026-05-02T09:53:42.462Z</time></trkpt><trkpt lat="42.6945882" lon="13.6092883"><ele>1223.0</ele><time>2026-05-02T09:53:43.462Z</time></trkpt><trkpt lat="42.6945723" lon="13.6094056"><ele>1223.0</ele><time>2026-05-02T09:53:44.462Z</time></trkpt><trkpt lat="42.6945565" lon="13.6095271"><ele>1223.0</ele><time>2026-05-02T09:53:45.462Z</time></trkpt><trkpt lat="42.6945446" lon="13.6096274"><ele>1223.0</ele><time>2026-05-02T09:53:46.463Z</time></trkpt><trkpt lat="42.6945233" lon="13.6097102"><ele>1223.0</ele><time>2026-05-02T09:53:47.462Z</time></trkpt><trkpt lat="42.6944943" lon="13.6098062"><ele>1223.0</ele><time>2026-05-02T09:53:48.463Z</time></trkpt><trkpt lat="42.6944543" lon="13.6098914"><ele>1223.8333333333335</ele><time>2026-05-02T09:53:49.464Z</time></trkpt><trkpt lat="42.6944025" lon="13.6099784"><ele>1224.6666666666667</ele><time>2026-05-02T09:53:50.463Z</time></trkpt><trkpt lat="42.6943432" lon="13.6100631"><ele>1225.5</ele><time>2026-05-02T09:53:51.463Z</time></trkpt><trkpt lat="42.6942982" lon="13.6101717"><ele>1226.3333333333333</ele><time>2026-05-02T09:53:52.464Z</time></trkpt><trkpt lat="42.694247" lon="13.6102767"><ele>1227.1666666666665</ele><time>2026-05-02T09:53:53.463Z</time></trkpt><trkpt lat="42.6941992" lon="13.6103765"><ele>1228.0</ele><time>2026-05-02T09:53:54.464Z</time></trkpt><trkpt lat="42.6941547" lon="13.610488"><ele>1224.6</ele><time>2026-05-02T09:53:55.463Z</time></trkpt><trkpt lat="42.6941146" lon="13.6106011"><ele>1221.1999999999998</ele><time>2026-05-02T09:53:56.463Z</time></trkpt><trkpt lat="42.6941591" lon="13.6107259"><ele>1217.8</ele><time>2026-05-02T09:53:57.463Z</time></trkpt><trkpt lat="42.6941514" lon="13.6108604"><ele>1214.3999999999999</ele><time>2026-05-02T09:53:58.463Z</time></trkpt><trkpt lat="42.6941483" lon="13.6109808"><ele>1211.0</ele><time>2026-05-02T09:53:59.463Z</time></trkpt><trkpt lat="42.6941469" lon="13.611107"><ele>1210.8333333333335</ele><time>2026-05-02T09:54:00.462Z</time></trkpt><trkpt lat="42.6941488" lon="13.6112304"><ele>1210.6666666666667</ele><time>2026-05-02T09:54:01.464Z</time></trkpt><trkpt lat="42.6941521" lon="13.6113448"><ele>1210.5</ele><time>2026-05-02T09:54:02.463Z</time></trkpt><trkpt lat="42.6941187" lon="13.6114245"><ele>1210.3333333333333</ele><time>2026-05-02T09:54:03.463Z</time></trkpt><trkpt lat="42.6940855" lon="13.6115456"><ele>1210.1666666666665</ele><time>2026-05-02T09:54:05.461Z</time></trkpt><trkpt lat="42.6940486" lon="13.6116339"><ele>1210.0</ele><time>2026-05-02T09:54:07.462Z</time></trkpt><trkpt lat="42.6940195" lon="13.6117495"><ele>1210.0</ele><time>2026-05-02T09:54:10.462Z</time></trkpt><trkpt lat="42.6940363" lon="13.6118562"><ele>1210.0</ele><time>2026-05-02T09:54:12.461Z</time></trkpt><trkpt lat="42.6940788" lon="13.6120214"><ele>1210.0</ele><time>2026-05-02T09:54:14.461Z</time></trkpt><trkpt lat="42.6941004" lon="13.612108"><ele>1210.0</ele><time>2026-05-02T09:54:15.461Z</time></trkpt><trkpt lat="42.6941224" lon="13.6122055"><ele>1210.0</ele><time>2026-05-02T09:54:16.462Z</time></trkpt><trkpt lat="42.6941375" lon="13.6123013"><ele>1210.0</ele><time>2026-05-02T09:54:17.462Z</time></trkpt><trkpt lat="42.6941477" lon="13.6123978"><ele>1209.0</ele><time>2026-05-02T09:54:18.461Z</time></trkpt><trkpt lat="42.694157" lon="13.6124833"><ele>1208.0</ele><time>2026-05-02T09:54:19.462Z</time></trkpt><trkpt lat="42.6941713" lon="13.6125673"><ele>1207.0</ele><time>2026-05-02T09:54:20.463Z</time></trkpt><trkpt lat="42.6941712" lon="13.6127134"><ele>1206.0</ele><time>2026-05-02T09:54:22.462Z</time></trkpt><trkpt lat="42.6941202" lon="13.6127897"><ele>1205.0</ele><time>2026-05-02T09:54:24.462Z</time></trkpt><trkpt lat="42.6940326" lon="13.6128286"><ele>1204.0</ele><time>2026-05-02T09:54:55.462Z</time></trkpt><trkpt lat="42.6939842" lon="13.6127439"><ele>1204.0</ele><time>2026-05-02T09:54:58.462Z</time></trkpt><trkpt lat="42.6939237" lon="13.6126835"><ele>1204.0</ele><time>2026-05-02T09:55:01.462Z</time></trkpt><trkpt lat="42.6938689" lon="13.6126332"><ele>1204.0</ele><time>2026-05-02T09:55:04.462Z</time></trkpt><trkpt lat="42.6937968" lon="13.6126219"><ele>1204.0</ele><time>2026-05-02T09:55:08.462Z</time></trkpt><trkpt lat="42.6937105" lon="13.6126434"><ele>1204.0</ele><time>2026-05-02T09:56:27.461Z</time></trkpt><trkpt lat="42.6936338" lon="13.6125372"><ele>1204.0</ele><time>2026-05-02T09:56:31.461Z</time></trkpt><trkpt lat="42.69358" lon="13.6124285"><ele>1205.0</ele><time>2026-05-02T09:56:36.461Z</time></trkpt><trkpt lat="42.6935506" lon="13.6123421"><ele>1206.0</ele><time>2026-05-02T09:56:40.462Z</time></trkpt><trkpt lat="42.6935061" lon="13.6122555"><ele>1207.0</ele><time>2026-05-02T09:56:43.462Z</time></trkpt><trkpt lat="42.6934818" lon="13.6121664"><ele>1208.0</ele><time>2026-05-02T09:56:46.462Z</time></trkpt><trkpt lat="42.6934396" lon="13.612068"><ele>1209.0</ele><time>2026-05-02T09:56:49.462Z</time></trkpt><trkpt lat="42.6933988" lon="13.6119809"><ele>1210.0</ele><time>2026-05-02T09:56:51.461Z</time></trkpt><trkpt lat="42.6933455" lon="13.6118848"><ele>1211.7142857142858</ele><time>2026-05-02T09:56:53.461Z</time></trkpt><trkpt lat="42.6932901" lon="13.6118089"><ele>1213.4285714285716</ele><time>2026-05-02T09:56:55.461Z</time></trkpt><trkpt lat="42.6932234" lon="13.6117495"><ele>1215.1428571428573</ele><time>2026-05-02T09:56:57.462Z</time></trkpt><trkpt lat="42.6931661" lon="13.6116894"><ele>1216.857142857143</ele><time>2026-05-02T09:56:59.462Z</time></trkpt><trkpt lat="42.693106" lon="13.6116254"><ele>1218.5714285714287</ele><time>2026-05-02T09:57:01.461Z</time></trkpt><trkpt lat="42.6930493" lon="13.6115663"><ele>1220.2857142857144</ele><time>2026-05-02T09:57:03.463Z</time></trkpt><trkpt lat="42.6929955" lon="13.6115067"><ele>1222.0</ele><time>2026-05-02T09:57:05.463Z</time></trkpt><trkpt lat="42.6929473" lon="13.6114509"><ele>1222.0000000000002</ele><time>2026-05-02T09:57:07.462Z</time></trkpt><trkpt lat="42.692895" lon="13.6113643"><ele>1222.0</ele><time>2026-05-02T09:57:09.463Z</time></trkpt><trkpt lat="42.6928639" lon="13.6112795"><ele>1222.0</ele><time>2026-05-02T09:57:11.463Z</time></trkpt><trkpt lat="42.6928372" lon="13.6111984"><ele>1222.0</ele><time>2026-05-02T09:57:13.462Z</time></trkpt><trkpt lat="42.6928221" lon="13.6111116"><ele>1222.0</ele><time>2026-05-02T09:57:15.462Z</time></trkpt><trkpt lat="42.6928041" lon="13.6110251"><ele>1222.0000000000002</ele><time>2026-05-02T09:57:17.462Z</time></trkpt><trkpt lat="42.692773" lon="13.6109061"><ele>1222.0</ele><time>2026-05-02T09:57:20.461Z</time></trkpt><trkpt lat="42.6927403" lon="13.6108224"><ele>1223.3333333333333</ele><time>2026-05-02T09:57:22.462Z</time></trkpt><trkpt lat="42.6926959" lon="13.6106654"><ele>1224.6666666666665</ele><time>2026-05-02T09:57:26.461Z</time></trkpt><trkpt lat="42.6927153" lon="13.6105727"><ele>1226.0</ele><time>2026-05-02T09:57:30.461Z</time></trkpt><trkpt lat="42.6927116" lon="13.6104792"><ele>1227.3333333333333</ele><time>2026-05-02T09:57:33.46Z</time></trkpt><trkpt lat="42.6926776" lon="13.6103796"><ele>1228.6666666666667</ele><time>2026-05-02T09:57:36.461Z</time></trkpt><trkpt lat="42.6926496" lon="13.6102864"><ele>1230.0</ele><time>2026-05-02T09:57:41.461Z</time></trkpt><trkpt lat="42.6925923" lon="13.6101448"><ele>1233.0</ele><time>2026-05-02T09:57:45.46Z</time></trkpt><trkpt lat="42.6925382" lon="13.6098341"><ele>1236.0</ele><time>2026-05-02T09:57:51.461Z</time></trkpt><trkpt lat="42.6925042" lon="13.6097412"><ele>1239.0</ele><time>2026-05-02T09:57:53.461Z</time></trkpt><trkpt lat="42.692459" lon="13.6096505"><ele>1242.0</ele><time>2026-05-02T09:57:55.46Z</time></trkpt><trkpt lat="42.6923982" lon="13.6095789"><ele>1242.0</ele><time>2026-05-02T09:57:57.46Z</time></trkpt><trkpt lat="42.6923281" lon="13.6095406"><ele>1242.0</ele><time>2026-05-02T09:57:59.462Z</time></trkpt><trkpt lat="42.6922632" lon="13.6095156"><ele>1242.0</ele><time>2026-05-02T09:58:01.461Z</time></trkpt><trkpt lat="42.6921749" lon="13.6095078"><ele>1242.0</ele><time>2026-05-02T09:58:04.461Z</time></trkpt><trkpt lat="42.6920993" lon="13.6094995"><ele>1242.0</ele><time>2026-05-02T09:58:06.461Z</time></trkpt><trkpt lat="42.6920256" lon="13.6094757"><ele>1242.0</ele><time>2026-05-02T09:58:08.462Z</time></trkpt><trkpt lat="42.6919574" lon="13.6094376"><ele>1243.142857142857</ele><time>2026-05-02T09:58:10.461Z</time></trkpt><trkpt lat="42.6918909" lon="13.6093938"><ele>1244.2857142857142</ele><time>2026-05-02T09:58:12.46Z</time></trkpt><trkpt lat="42.6918273" lon="13.609334"><ele>1245.4285714285716</ele><time>2026-05-02T09:58:14.46Z</time></trkpt><trkpt lat="42.6917694" lon="13.6092733"><ele>1246.5714285714284</ele><time>2026-05-02T09:58:16.46Z</time></trkpt><trkpt lat="42.691726" lon="13.609197"><ele>1247.7142857142858</ele><time>2026-05-02T09:58:18.461Z</time></trkpt><trkpt lat="42.6916946" lon="13.6091097"><ele>1248.857142857143</ele><time>2026-05-02T09:58:20.46Z</time></trkpt><trkpt lat="42.6916565" lon="13.6090246"><ele>1250.0</ele><time>2026-05-02T09:58:22.461Z</time></trkpt><trkpt lat="42.6915846" lon="13.6089749"><ele>1250.0</ele><time>2026-05-02T09:58:25.462Z</time></trkpt><trkpt lat="42.6915026" lon="13.6090066"><ele>1250.0</ele><time>2026-05-02T09:58:27.461Z</time></trkpt><trkpt lat="42.6914188" lon="13.6090221"><ele>1250.0</ele><time>2026-05-02T09:58:29.46Z</time></trkpt><trkpt lat="42.6913353" lon="13.6090133"><ele>1250.0</ele><time>2026-05-02T09:58:31.46Z</time></trkpt><trkpt lat="42.6912584" lon="13.6089941"><ele>1250.0</ele><time>2026-05-02T09:58:33.462Z</time></trkpt><trkpt lat="42.6911831" lon="13.6089755"><ele>1250.0</ele><time>2026-05-02T09:58:35.461Z</time></trkpt><trkpt lat="42.6911126" lon="13.6089733"><ele>1248.5714285714287</ele><time>2026-05-02T09:58:37.462Z</time></trkpt><trkpt lat="42.6910458" lon="13.608963"><ele>1247.142857142857</ele><time>2026-05-02T09:58:39.461Z</time></trkpt><trkpt lat="42.6909796" lon="13.6089391"><ele>1245.7142857142858</ele><time>2026-05-02T09:58:41.46Z</time></trkpt><trkpt lat="42.6909155" lon="13.6089045"><ele>1244.2857142857142</ele><time>2026-05-02T09:58:43.46Z</time></trkpt><trkpt lat="42.6908507" lon="13.6088735"><ele>1242.857142857143</ele><time>2026-05-02T09:58:45.461Z</time></trkpt><trkpt lat="42.6907911" lon="13.6088352"><ele>1241.4285714285716</ele><time>2026-05-02T09:58:47.46Z</time></trkpt><trkpt lat="42.6907105" lon="13.6087703"><ele>1240.0</ele><time>2026-05-02T09:58:50.461Z</time></trkpt><trkpt lat="42.6906524" lon="13.608722"><ele>1240.0</ele><time>2026-05-02T09:58:52.46Z</time></trkpt><trkpt lat="42.6905963" lon="13.608676"><ele>1240.0</ele><time>2026-05-02T09:58:54.46Z</time></trkpt><trkpt lat="42.6905435" lon="13.6086269"><ele>1240.0</ele><time>2026-05-02T09:58:56.461Z</time></trkpt><trkpt lat="42.6904866" lon="13.6085344"><ele>1240.0</ele><time>2026-05-02T09:58:59.461Z</time></trkpt><trkpt lat="42.6904299" lon="13.6084375"><ele>1240.0</ele><time>2026-05-02T09:59:02.461Z</time></trkpt><trkpt lat="42.6903728" lon="13.6083633"><ele>1240.0</ele><time>2026-05-02T09:59:05.461Z</time></trkpt><trkpt lat="42.6903085" lon="13.6083187"><ele>1243.1666666666665</ele><time>2026-05-02T09:59:08.461Z</time></trkpt><trkpt lat="42.6902316" lon="13.6083134"><ele>1246.3333333333333</ele><time>2026-05-02T09:59:11.461Z</time></trkpt><trkpt lat="42.6901582" lon="13.6083241"><ele>1249.5</ele><time>2026-05-02T09:59:14.461Z</time></trkpt><trkpt lat="42.6900819" lon="13.608316"><ele>1252.6666666666667</ele><time>2026-05-02T09:59:17.46Z</time></trkpt><trkpt lat="42.6899923" lon="13.6082972"><ele>1255.8333333333335</ele><time>2026-05-02T09:59:20.461Z</time></trkpt><trkpt lat="42.6899025" lon="13.6082797"><ele>1259.0</ele><time>2026-05-02T09:59:23.46Z</time></trkpt><trkpt lat="42.6898416" lon="13.6083098"><ele>1259.0</ele><time>2026-05-02T09:59:25.461Z</time></trkpt><trkpt lat="42.6897628" lon="13.608363"><ele>1259.0</ele><time>2026-05-02T09:59:28.46Z</time></trkpt><trkpt lat="42.6896801" lon="13.6084047"><ele>1259.0</ele><time>2026-05-02T09:59:31.461Z</time></trkpt><trkpt lat="42.6896023" lon="13.6084427"><ele>1259.0</ele><time>2026-05-02T09:59:34.46Z</time></trkpt><trkpt lat="42.6895159" lon="13.6084443"><ele>1259.0</ele><time>2026-05-02T09:59:37.46Z</time></trkpt><trkpt lat="42.6894346" lon="13.6084115"><ele>1259.0</ele><time>2026-05-02T09:59:40.46Z</time></trkpt><trkpt lat="42.6893646" lon="13.6083458"><ele>1259.0</ele><time>2026-05-02T09:59:43.46Z</time></trkpt><trkpt lat="42.6892926" lon="13.6082675"><ele>1259.0</ele><time>2026-05-02T09:59:46.46Z</time></trkpt><trkpt lat="42.6892396" lon="13.6082115"><ele>1259.0</ele><time>2026-05-02T09:59:48.46Z</time></trkpt><trkpt lat="42.6891902" lon="13.6081122"><ele>1259.0</ele><time>2026-05-02T09:59:51.461Z</time></trkpt><trkpt lat="42.6891658" lon="13.6080053"><ele>1259.0</ele><time>2026-05-02T09:59:54.461Z</time></trkpt><trkpt lat="42.6892015" lon="13.6079083"><ele>1259.0</ele><time>2026-05-02T09:59:57.46Z</time></trkpt><trkpt lat="42.6892906" lon="13.6078773"><ele>1259.0</ele><time>2026-05-02T10:00:00.46Z</time></trkpt><trkpt lat="42.6893504" lon="13.6079245"><ele>1259.0</ele><time>2026-05-02T10:00:02.461Z</time></trkpt><trkpt lat="42.6894109" lon="13.6079723"><ele>1259.0</ele><time>2026-05-02T10:00:04.462Z</time></trkpt><trkpt lat="42.6894717" lon="13.6080088"><ele>1259.0</ele><time>2026-05-02T10:00:06.46Z</time></trkpt><trkpt lat="42.6895343" lon="13.6080409"><ele>1259.0</ele><time>2026-05-02T10:00:08.46Z</time></trkpt><trkpt lat="42.6895973" lon="13.6080596"><ele>1259.0</ele><time>2026-05-02T10:00:10.462Z</time></trkpt><trkpt lat="42.6896891" lon="13.6080472"><ele>1259.0</ele><time>2026-05-02T10:00:13.461Z</time></trkpt><trkpt lat="42.6897756" lon="13.6080038"><ele>1259.0</ele><time>2026-05-02T10:00:16.461Z</time></trkpt><trkpt lat="42.6898551" lon="13.6079378"><ele>1259.0</ele><time>2026-05-02T10:00:19.46Z</time></trkpt><trkpt lat="42.6899424" lon="13.6079057"><ele>1259.0</ele><time>2026-05-02T10:00:22.461Z</time></trkpt><trkpt lat="42.6900124" lon="13.6078536"><ele>1259.0</ele><time>2026-05-02T10:00:25.462Z</time></trkpt><trkpt lat="42.6900695" lon="13.6077932"><ele>1259.0</ele><time>2026-05-02T10:00:28.461Z</time></trkpt><trkpt lat="42.6901308" lon="13.6077271"><ele>1259.0</ele><time>2026-05-02T10:00:33.46Z</time></trkpt><trkpt lat="42.6902025" lon="13.6077308"><ele>1259.0</ele><time>2026-05-02T10:00:36.461Z</time></trkpt><trkpt lat="42.6902489" lon="13.6076511"><ele>1259.0</ele><time>2026-05-02T10:00:45.46Z</time></trkpt><trkpt lat="42.6902451" lon="13.6077409"><ele>1259.0</ele><time>2026-05-02T10:01:42.459Z</time></trkpt><trkpt lat="42.6901828" lon="13.6077547"><ele>1259.0</ele><time>2026-05-02T10:01:50.46Z</time></trkpt><trkpt lat="42.6901175" lon="13.6077799"><ele>1259.0</ele><time>2026-05-02T10:01:53.461Z</time></trkpt><trkpt lat="42.6900843" lon="13.6078701"><ele>1259.0</ele><time>2026-05-02T10:02:15.459Z</time></trkpt><trkpt lat="42.6899606" lon="13.6078962"><ele>1259.0</ele><time>2026-05-02T10:02:18.46Z</time></trkpt><trkpt lat="42.689864" lon="13.6079528"><ele>1259.0</ele><time>2026-05-02T10:02:20.46Z</time></trkpt><trkpt lat="42.6897625" lon="13.608013"><ele>1259.0</ele><time>2026-05-02T10:02:22.46Z</time></trkpt><trkpt lat="42.6896323" lon="13.6080537"><ele>1259.0</ele><time>2026-05-02T10:02:24.459Z</time></trkpt><trkpt lat="42.689566" lon="13.6080342"><ele>1259.0</ele><time>2026-05-02T10:02:25.459Z</time></trkpt><trkpt lat="42.6895071" lon="13.607995"><ele>1259.0</ele><time>2026-05-02T10:02:26.459Z</time></trkpt><trkpt lat="42.6894515" lon="13.6079526"><ele>1259.0</ele><time>2026-05-02T10:02:27.459Z</time></trkpt><trkpt lat="42.6893939" lon="13.6079114"><ele>1259.0</ele><time>2026-05-02T10:02:28.46Z</time></trkpt><trkpt lat="42.6892804" lon="13.6078918"><ele>1259.0</ele><time>2026-05-02T10:02:30.46Z</time></trkpt><trkpt lat="42.6891843" lon="13.6079332"><ele>1259.0</ele><time>2026-05-02T10:02:32.46Z</time></trkpt><trkpt lat="42.6891473" lon="13.6080152"><ele>1259.0</ele><time>2026-05-02T10:02:33.459Z</time></trkpt><trkpt lat="42.6892096" lon="13.6081493"><ele>1259.0</ele><time>2026-05-02T10:02:34.46Z</time></trkpt><trkpt lat="42.6892847" lon="13.6082439"><ele>1259.0</ele><time>2026-05-02T10:02:35.46Z</time></trkpt><trkpt lat="42.6893248" lon="13.6083225"><ele>1259.0</ele><time>2026-05-02T10:02:36.46Z</time></trkpt><trkpt lat="42.6894145" lon="13.6083693"><ele>1259.0</ele><time>2026-05-02T10:02:37.46Z</time></trkpt><trkpt lat="42.689498" lon="13.6083715"><ele>1259.0</ele><time>2026-05-02T10:02:38.459Z</time></trkpt><trkpt lat="42.68958" lon="13.6084058"><ele>1259.0</ele><time>2026-05-02T10:02:39.46Z</time></trkpt><trkpt lat="42.6896561" lon="13.6083937"><ele>1259.0</ele><time>2026-05-02T10:02:40.46Z</time></trkpt><trkpt lat="42.6897644" lon="13.6083885"><ele>1259.0</ele><time>2026-05-02T10:02:41.46Z</time></trkpt><trkpt lat="42.6898404" lon="13.6083052"><ele>1259.0</ele><time>2026-05-02T10:02:42.46Z</time></trkpt><trkpt lat="42.689925" lon="13.6082955"><ele>1259.0</ele><time>2026-05-02T10:02:43.461Z</time></trkpt><trkpt lat="42.6900258" lon="13.6082838"><ele>1259.0</ele><time>2026-05-02T10:02:44.46Z</time></trkpt><trkpt lat="42.690115" lon="13.6082721"><ele>1259.0</ele><time>2026-05-02T10:02:45.46Z</time></trkpt><trkpt lat="42.6902159" lon="13.6083053"><ele>1259.0</ele><time>2026-05-02T10:02:46.46Z</time></trkpt><trkpt lat="42.6903072" lon="13.6083221"><ele>1259.0</ele><time>2026-05-02T10:02:47.459Z</time></trkpt><trkpt lat="42.6903884" lon="13.6083946"><ele>1259.0</ele><time>2026-05-02T10:02:48.46Z</time></trkpt><trkpt lat="42.6904587" lon="13.6084958"><ele>1259.0</ele><time>2026-05-02T10:02:49.46Z</time></trkpt><trkpt lat="42.6905298" lon="13.6085725"><ele>1255.2</ele><time>2026-05-02T10:02:50.46Z</time></trkpt><trkpt lat="42.690608" lon="13.6086595"><ele>1251.4</ele><time>2026-05-02T10:02:51.459Z</time></trkpt><trkpt lat="42.6906928" lon="13.6087152"><ele>1247.6</ele><time>2026-05-02T10:02:52.461Z</time></trkpt><trkpt lat="42.6907876" lon="13.6087951"><ele>1243.8</ele><time>2026-05-02T10:02:53.459Z</time></trkpt><trkpt lat="42.6908808" lon="13.6088475"><ele>1240.0</ele><time>2026-05-02T10:02:54.459Z</time></trkpt><trkpt lat="42.6909874" lon="13.6089068"><ele>1240.0</ele><time>2026-05-02T10:02:55.459Z</time></trkpt><trkpt lat="42.6910856" lon="13.6089327"><ele>1240.0</ele><time>2026-05-02T10:02:56.46Z</time></trkpt><trkpt lat="42.6911787" lon="13.608979"><ele>1240.0</ele><time>2026-05-02T10:02:57.459Z</time></trkpt><trkpt lat="42.6912632" lon="13.609011"><ele>1240.0</ele><time>2026-05-02T10:02:58.459Z</time></trkpt><trkpt lat="42.6913621" lon="13.6090251"><ele>1240.0</ele><time>2026-05-02T10:02:59.46Z</time></trkpt><trkpt lat="42.6914482" lon="13.6090267"><ele>1241.6666666666665</ele><time>2026-05-02T10:03:00.46Z</time></trkpt><trkpt lat="42.6915406" lon="13.6090355"><ele>1243.3333333333333</ele><time>2026-05-02T10:03:01.459Z</time></trkpt><trkpt lat="42.6916058" lon="13.6090252"><ele>1245.0</ele><time>2026-05-02T10:03:02.461Z</time></trkpt><trkpt lat="42.6916723" lon="13.6090666"><ele>1246.6666666666667</ele><time>2026-05-02T10:03:03.459Z</time></trkpt><trkpt lat="42.6917224" lon="13.6091263"><ele>1248.3333333333335</ele><time>2026-05-02T10:03:04.46Z</time></trkpt><trkpt lat="42.6918164" lon="13.6092771"><ele>1250.0</ele><time>2026-05-02T10:03:06.459Z</time></trkpt><trkpt lat="42.6918867" lon="13.6093422"><ele>1248.6666666666667</ele><time>2026-05-02T10:03:07.46Z</time></trkpt><trkpt lat="42.6919535" lon="13.6094178"><ele>1247.3333333333335</ele><time>2026-05-02T10:03:08.46Z</time></trkpt><trkpt lat="42.6920318" lon="13.6094386"><ele>1246.0</ele><time>2026-05-02T10:03:09.46Z</time></trkpt><trkpt lat="42.6921084" lon="13.6094891"><ele>1244.6666666666667</ele><time>2026-05-02T10:03:10.461Z</time></trkpt><trkpt lat="42.6921881" lon="13.6095011"><ele>1243.3333333333333</ele><time>2026-05-02T10:03:11.459Z</time></trkpt><trkpt lat="42.6922662" lon="13.6095177"><ele>1242.0</ele><time>2026-05-02T10:03:12.459Z</time></trkpt><trkpt lat="42.6923489" lon="13.6095632"><ele>1242.0</ele><time>2026-05-02T10:03:13.459Z</time></trkpt><trkpt lat="42.692411" lon="13.6096417"><ele>1242.0</ele><time>2026-05-02T10:03:14.46Z</time></trkpt><trkpt lat="42.692465" lon="13.6097329"><ele>1242.0</ele><time>2026-05-02T10:03:15.461Z</time></trkpt><trkpt lat="42.6925231" lon="13.6098119"><ele>1242.0</ele><time>2026-05-02T10:03:16.46Z</time></trkpt><trkpt lat="42.6925767" lon="13.6099013"><ele>1242.0</ele><time>2026-05-02T10:03:17.46Z</time></trkpt><trkpt lat="42.692621" lon="13.610004"><ele>1242.0</ele><time>2026-05-02T10:03:18.461Z</time></trkpt><trkpt lat="42.6926203" lon="13.6101325"><ele>1242.0</ele><time>2026-05-02T10:03:19.46Z</time></trkpt><trkpt lat="42.6926447" lon="13.6102441"><ele>1242.0</ele><time>2026-05-02T10:03:20.461Z</time></trkpt><trkpt lat="42.6926931" lon="13.6103725"><ele>1242.0</ele><time>2026-05-02T10:03:21.46Z</time></trkpt><trkpt lat="42.692718" lon="13.6105244"><ele>1242.0</ele><time>2026-05-02T10:03:22.46Z</time></trkpt><trkpt lat="42.6927508" lon="13.6106684"><ele>1242.0</ele><time>2026-05-02T10:03:23.459Z</time></trkpt><trkpt lat="42.6927637" lon="13.6108334"><ele>1240.6</ele><time>2026-05-02T10:03:24.46Z</time></trkpt><trkpt lat="42.6927934" lon="13.6109649"><ele>1239.2</ele><time>2026-05-02T10:03:25.459Z</time></trkpt><trkpt lat="42.6928299" lon="13.6110931"><ele>1237.8</ele><time>2026-05-02T10:03:26.459Z</time></trkpt><trkpt lat="42.6928603" lon="13.6111987"><ele>1236.4</ele><time>2026-05-02T10:03:27.46Z</time></trkpt><trkpt lat="42.6929223" lon="13.6113037"><ele>1235.0</ele><time>2026-05-02T10:03:28.46Z</time></trkpt><trkpt lat="42.6929866" lon="13.6114095"><ele>1232.4</ele><time>2026-05-02T10:03:29.459Z</time></trkpt><trkpt lat="42.6930515" lon="13.6114996"><ele>1229.8</ele><time>2026-05-02T10:03:30.46Z</time></trkpt><trkpt lat="42.6931336" lon="13.6115703"><ele>1227.2</ele><time>2026-05-02T10:03:31.46Z</time></trkpt><trkpt lat="42.6932251" lon="13.6116355"><ele>1224.6</ele><time>2026-05-02T10:03:32.46Z</time></trkpt><trkpt lat="42.6933003" lon="13.6117216"><ele>1222.0</ele><time>2026-05-02T10:03:33.46Z</time></trkpt><trkpt lat="42.6933754" lon="13.6118148"><ele>1222.0</ele><time>2026-05-02T10:03:34.46Z</time></trkpt><trkpt lat="42.6934345" lon="13.6119257"><ele>1222.0</ele><time>2026-05-02T10:03:35.461Z</time></trkpt><trkpt lat="42.6934863" lon="13.6120542"><ele>1222.0</ele><time>2026-05-02T10:03:36.461Z</time></trkpt><trkpt lat="42.6935411" lon="13.6121833"><ele>1222.0</ele><time>2026-05-02T10:03:37.461Z</time></trkpt><trkpt lat="42.693577" lon="13.612314"><ele>1222.0</ele><time>2026-05-02T10:03:38.461Z</time></trkpt><trkpt lat="42.69363" lon="13.612439"><ele>1218.4</ele><time>2026-05-02T10:03:39.461Z</time></trkpt><trkpt lat="42.6937074" lon="13.6125362"><ele>1214.8000000000002</ele><time>2026-05-02T10:03:40.46Z</time></trkpt><trkpt lat="42.6937836" lon="13.6126099"><ele>1211.2</ele><time>2026-05-02T10:03:41.459Z</time></trkpt><trkpt lat="42.6938807" lon="13.6126447"><ele>1207.6000000000001</ele><time>2026-05-02T10:03:42.46Z</time></trkpt><trkpt lat="42.6939585" lon="13.612706"><ele>1204.0</ele><time>2026-05-02T10:03:43.46Z</time></trkpt><trkpt lat="42.6940191" lon="13.6127898"><ele>1202.8333333333333</ele><time>2026-05-02T10:03:44.459Z</time></trkpt><trkpt lat="42.6940581" lon="13.6128936"><ele>1201.6666666666665</ele><time>2026-05-02T10:03:45.46Z</time></trkpt><trkpt lat="42.6940712" lon="13.6130035"><ele>1200.5</ele><time>2026-05-02T10:03:46.459Z</time></trkpt><trkpt lat="42.6940512" lon="13.6131079"><ele>1199.3333333333333</ele><time>2026-05-02T10:03:47.46Z</time></trkpt><trkpt lat="42.6940275" lon="13.6132128"><ele>1198.1666666666667</ele><time>2026-05-02T10:03:48.461Z</time></trkpt><trkpt lat="42.6940112" lon="13.613325"><ele>1197.0</ele><time>2026-05-02T10:03:49.46Z</time></trkpt><trkpt lat="42.6940003" lon="13.6134188"><ele>1197.0</ele><time>2026-05-02T10:03:50.461Z</time></trkpt><trkpt lat="42.6939967" lon="13.6135147"><ele>1197.0</ele><time>2026-05-02T10:03:51.46Z</time></trkpt><trkpt lat="42.6940117" lon="13.6136031"><ele>1197.0</ele><time>2026-05-02T10:03:52.46Z</time></trkpt><trkpt lat="42.6940321" lon="13.6137"><ele>1197.0</ele><time>2026-05-02T10:03:53.46Z</time></trkpt><trkpt lat="42.6940472" lon="13.6138751"><ele>1197.0</ele><time>2026-05-02T10:03:55.46Z</time></trkpt><trkpt lat="42.6940586" lon="13.6140184"><ele>1197.0</ele><time>2026-05-02T10:03:57.459Z</time></trkpt><trkpt lat="42.6940755" lon="13.6141744"><ele>1195.6666666666667</ele><time>2026-05-02T10:03:59.46Z</time></trkpt><trkpt lat="42.694078" lon="13.6142664"><ele>1194.3333333333333</ele><time>2026-05-02T10:04:00.459Z</time></trkpt><trkpt lat="42.6940724" lon="13.6143772"><ele>1193.0</ele><time>2026-05-02T10:04:01.46Z</time></trkpt><trkpt lat="42.694066" lon="13.6144995"><ele>1191.6666666666665</ele><time>2026-05-02T10:04:02.46Z</time></trkpt><trkpt lat="42.6940621" lon="13.6146174"><ele>1190.3333333333333</ele><time>2026-05-02T10:04:03.46Z</time></trkpt><trkpt lat="42.6940059" lon="13.6147277"><ele>1189.0</ele><time>2026-05-02T10:04:04.459Z</time></trkpt><trkpt lat="42.6939696" lon="13.6148334"><ele>1188.4</ele><time>2026-05-02T10:04:05.459Z</time></trkpt><trkpt lat="42.6939243" lon="13.6149203"><ele>1187.8000000000002</ele><time>2026-05-02T10:04:06.458Z</time></trkpt><trkpt lat="42.6939136" lon="13.6150645"><ele>1187.1999999999998</ele><time>2026-05-02T10:04:08.458Z</time></trkpt><trkpt lat="42.6938762" lon="13.6151521"><ele>1186.6</ele><time>2026-05-02T10:04:10.458Z</time></trkpt><trkpt lat="42.6937984" lon="13.6153592"><ele>1186.0</ele><time>2026-05-02T10:04:32.459Z</time></trkpt><trkpt lat="42.6937428" lon="13.6155008"><ele>1185.3333333333333</ele><time>2026-05-02T10:04:34.46Z</time></trkpt><trkpt lat="42.6937145" lon="13.6155808"><ele>1184.6666666666665</ele><time>2026-05-02T10:04:35.458Z</time></trkpt><trkpt lat="42.6936882" lon="13.6156827"><ele>1184.0</ele><time>2026-05-02T10:04:36.459Z</time></trkpt><trkpt lat="42.6936765" lon="13.6157838"><ele>1183.3333333333333</ele><time>2026-05-02T10:04:37.459Z</time></trkpt><trkpt lat="42.6936592" lon="13.6158899"><ele>1182.6666666666667</ele><time>2026-05-02T10:04:38.459Z</time></trkpt><trkpt lat="42.6936445" lon="13.6160066"><ele>1182.0</ele><time>2026-05-02T10:04:39.458Z</time></trkpt><trkpt lat="42.6936167" lon="13.6160929"><ele>1181.2</ele><time>2026-05-02T10:04:40.459Z</time></trkpt><trkpt lat="42.6936012" lon="13.6162433"><ele>1180.4</ele><time>2026-05-02T10:04:42.458Z</time></trkpt><trkpt lat="42.6935895" lon="13.6164164"><ele>1179.6</ele><time>2026-05-02T10:04:44.46Z</time></trkpt><trkpt lat="42.6935969" lon="13.6165078"><ele>1178.8</ele><time>2026-05-02T10:04:46.458Z</time></trkpt><trkpt lat="42.6935221" lon="13.616512"><ele>1178.0</ele><time>2026-05-02T10:04:48.458Z</time></trkpt><trkpt lat="42.6934398" lon="13.61648"><ele>1172.8</ele><time>2026-05-02T10:04:50.458Z</time></trkpt><trkpt lat="42.6933991" lon="13.6165519"><ele>1167.6</ele><time>2026-05-02T10:04:55.458Z</time></trkpt><trkpt lat="42.69343" lon="13.6166617"><ele>1162.4</ele><time>2026-05-02T10:04:56.46Z</time></trkpt><trkpt lat="42.6934553" lon="13.6168309"><ele>1157.2</ele><time>2026-05-02T10:04:58.458Z</time></trkpt><trkpt lat="42.6934507" lon="13.6170344"><ele>1152.0</ele><time>2026-05-02T10:05:00.459Z</time></trkpt><trkpt lat="42.6934438" lon="13.6171633"><ele>1149.6666666666667</ele><time>2026-05-02T10:05:01.458Z</time></trkpt><trkpt lat="42.6934284" lon="13.6172884"><ele>1147.3333333333333</ele><time>2026-05-02T10:05:02.458Z</time></trkpt><trkpt lat="42.693437" lon="13.6174241"><ele>1145.0</ele><time>2026-05-02T10:05:03.459Z</time></trkpt><trkpt lat="42.693419" lon="13.6175111"><ele>1142.6666666666665</ele><time>2026-05-02T10:05:04.459Z</time></trkpt><trkpt lat="42.6934544" lon="13.617596"><ele>1140.3333333333333</ele><time>2026-05-02T10:05:06.458Z</time></trkpt><trkpt lat="42.6934944" lon="13.6176793"><ele>1138.0</ele><time>2026-05-02T10:07:19.46Z</time></trkpt><trkpt lat="42.6934492" lon="13.6176052"><ele>1138.0</ele><time>2026-05-02T10:11:26.456Z</time></trkpt><trkpt lat="42.6935133" lon="13.6177101"><ele>1138.0</ele><time>2026-05-02T10:15:28.468Z</time></trkpt><trkpt lat="42.6935618" lon="13.617773"><ele>1138.0</ele><time>2026-05-02T10:15:30.456Z</time></trkpt><trkpt lat="42.6935816" lon="13.6178611"><ele>1138.0</ele><time>2026-05-02T10:15:32.456Z</time></trkpt><trkpt lat="42.6936156" lon="13.6179601"><ele>1138.0</ele><time>2026-05-02T10:15:35.457Z</time></trkpt><trkpt lat="42.6935857" lon="13.6180448"><ele>1138.0</ele><time>2026-05-02T10:15:38.456Z</time></trkpt><trkpt lat="42.6935348" lon="13.6181185"><ele>1139.0</ele><time>2026-05-02T10:15:42.455Z</time></trkpt><trkpt lat="42.6935656" lon="13.6182106"><ele>1140.0</ele><time>2026-05-02T10:15:46.456Z</time></trkpt><trkpt lat="42.6936121" lon="13.6182814"><ele>1141.0</ele><time>2026-05-02T10:15:48.455Z</time></trkpt><trkpt lat="42.6936148" lon="13.6183836"><ele>1142.0</ele><time>2026-05-02T10:15:51.455Z</time></trkpt><trkpt lat="42.6935388" lon="13.6184272"><ele>1143.0</ele><time>2026-05-02T10:15:59.456Z</time></trkpt><trkpt lat="42.6934541" lon="13.6184411"><ele>1144.0</ele><time>2026-05-02T10:16:02.456Z</time></trkpt><trkpt lat="42.6933877" lon="13.6184467"><ele>1140.3333333333333</ele><time>2026-05-02T10:16:04.457Z</time></trkpt><trkpt lat="42.6932941" lon="13.6183493"><ele>1136.6666666666665</ele><time>2026-05-02T10:16:06.456Z</time></trkpt><trkpt lat="42.6932224" lon="13.6183274"><ele>1133.0</ele><time>2026-05-02T10:16:13.456Z</time></trkpt><trkpt lat="42.6931703" lon="13.6182736"><ele>1129.3333333333333</ele><time>2026-05-02T10:16:17.456Z</time></trkpt><trkpt lat="42.6931227" lon="13.6181963"><ele>1125.6666666666667</ele><time>2026-05-02T10:16:20.455Z</time></trkpt><trkpt lat="42.6930748" lon="13.6180932"><ele>1122.0</ele><time>2026-05-02T10:16:22.455Z</time></trkpt><trkpt lat="42.6930087" lon="13.6179752"><ele>1122.0</ele><time>2026-05-02T10:16:24.457Z</time></trkpt><trkpt lat="42.6929397" lon="13.6178896"><ele>1122.0</ele><time>2026-05-02T10:16:26.456Z</time></trkpt><trkpt lat="42.6929987" lon="13.6179721"><ele>1122.0</ele><time>2026-05-02T10:16:34.456Z</time></trkpt><trkpt lat="42.693036" lon="13.6180438"><ele>1122.0</ele><time>2026-05-02T10:16:36.455Z</time></trkpt><trkpt lat="42.6930765" lon="13.6181141"><ele>1122.0</ele><time>2026-05-02T10:16:38.456Z</time></trkpt><trkpt lat="42.6931313" lon="13.6182114"><ele>1122.0</ele><time>2026-05-02T10:16:41.456Z</time></trkpt><trkpt lat="42.6931636" lon="13.618285"><ele>1122.0</ele><time>2026-05-02T10:16:43.456Z</time></trkpt><trkpt lat="42.6932257" lon="13.6183389"><ele>1122.0</ele><time>2026-05-02T10:16:46.456Z</time></trkpt><trkpt lat="42.6932967" lon="13.6183703"><ele>1122.0</ele><time>2026-05-02T10:16:51.456Z</time></trkpt><trkpt lat="42.6933842" lon="13.6183847"><ele>1122.0</ele><time>2026-05-02T10:16:54.455Z</time></trkpt><trkpt lat="42.6934705" lon="13.6183814"><ele>1122.0</ele><time>2026-05-02T10:16:57.456Z</time></trkpt><trkpt lat="42.6935457" lon="13.6183717"><ele>1122.0</ele><time>2026-05-02T10:17:00.456Z</time></trkpt><trkpt lat="42.6936137" lon="13.6183729"><ele>1123.2</ele><time>2026-05-02T10:17:03.455Z</time></trkpt><trkpt lat="42.693696" lon="13.6184237"><ele>1124.4</ele><time>2026-05-02T10:17:06.457Z</time></trkpt><trkpt lat="42.6937309" lon="13.6185378"><ele>1125.6</ele><time>2026-05-02T10:17:08.456Z</time></trkpt><trkpt lat="42.6937545" lon="13.6186867"><ele>1126.8</ele><time>2026-05-02T10:17:10.456Z</time></trkpt><trkpt lat="42.6937641" lon="13.6188597"><ele>1128.0</ele><time>2026-05-02T10:17:12.456Z</time></trkpt><trkpt lat="42.6937664" lon="13.6189522"><ele>1128.0</ele><time>2026-05-02T10:17:13.456Z</time></trkpt><trkpt lat="42.6937707" lon="13.6190557"><ele>1128.0</ele><time>2026-05-02T10:17:14.456Z</time></trkpt><trkpt lat="42.6937833" lon="13.6191551"><ele>1128.0</ele><time>2026-05-02T10:17:15.455Z</time></trkpt><trkpt lat="42.6937989" lon="13.6192615"><ele>1128.0</ele><time>2026-05-02T10:17:16.456Z</time></trkpt><trkpt lat="42.6938371" lon="13.6193649"><ele>1128.0</ele><time>2026-05-02T10:17:17.454Z</time></trkpt><trkpt lat="42.6938762" lon="13.6194733"><ele>1128.0</ele><time>2026-05-02T10:17:18.455Z</time></trkpt><trkpt lat="42.6938988" lon="13.6195868"><ele>1126.8</ele><time>2026-05-02T10:17:19.456Z</time></trkpt><trkpt lat="42.6939198" lon="13.619708"><ele>1125.6</ele><time>2026-05-02T10:17:20.456Z</time></trkpt><trkpt lat="42.693935" lon="13.6198315"><ele>1124.4</ele><time>2026-05-02T10:17:21.454Z</time></trkpt><trkpt lat="42.6939429" lon="13.6199649"><ele>1123.2</ele><time>2026-05-02T10:17:22.456Z</time></trkpt><trkpt lat="42.6939557" lon="13.6201003"><ele>1122.0</ele><time>2026-05-02T10:17:23.455Z</time></trkpt><trkpt lat="42.6939785" lon="13.6202368"><ele>1121.0</ele><time>2026-05-02T10:17:24.455Z</time></trkpt><trkpt lat="42.6939972" lon="13.6203825"><ele>1120.0</ele><time>2026-05-02T10:17:25.454Z</time></trkpt><trkpt lat="42.6939953" lon="13.6205281"><ele>1119.0</ele><time>2026-05-02T10:17:26.454Z</time></trkpt><trkpt lat="42.693989" lon="13.6206764"><ele>1118.0</ele><time>2026-05-02T10:17:27.454Z</time></trkpt><trkpt lat="42.6939857" lon="13.6208176"><ele>1117.0</ele><time>2026-05-02T10:17:28.454Z</time></trkpt><trkpt lat="42.6939849" lon="13.6209526"><ele>1117.0</ele><time>2026-05-02T10:17:29.456Z</time></trkpt><trkpt lat="42.6939956" lon="13.6210667"><ele>1117.0</ele><time>2026-05-02T10:17:30.454Z</time></trkpt><trkpt lat="42.6940038" lon="13.6212134"><ele>1117.0</ele><time>2026-05-02T10:17:32.455Z</time></trkpt><trkpt lat="42.6939958" lon="13.6213232"><ele>1117.0</ele><time>2026-05-02T10:17:34.454Z</time></trkpt><trkpt lat="42.694029" lon="13.6212407"><ele>1117.0</ele><time>2026-05-02T10:18:16.455Z</time></trkpt><trkpt lat="42.6940153" lon="13.6211038"><ele>1117.0</ele><time>2026-05-02T10:18:18.455Z</time></trkpt><trkpt lat="42.6940119" lon="13.6209614"><ele>1117.0</ele><time>2026-05-02T10:18:20.455Z</time></trkpt><trkpt lat="42.6940153" lon="13.6208294"><ele>1117.0</ele><time>2026-05-02T10:18:22.454Z</time></trkpt><trkpt lat="42.6940231" lon="13.6207091"><ele>1117.0</ele><time>2026-05-02T10:18:24.455Z</time></trkpt><trkpt lat="42.694027" lon="13.6205954"><ele>1117.0</ele><time>2026-05-02T10:18:26.455Z</time></trkpt><trkpt lat="42.6940183" lon="13.6204729"><ele>1117.0</ele><time>2026-05-02T10:18:28.455Z</time></trkpt><trkpt lat="42.6940052" lon="13.620354"><ele>1117.0</ele><time>2026-05-02T10:18:30.454Z</time></trkpt><trkpt lat="42.6939873" lon="13.620237"><ele>1117.8333333333333</ele><time>2026-05-02T10:18:32.455Z</time></trkpt><trkpt lat="42.6939757" lon="13.6201179"><ele>1118.6666666666665</ele><time>2026-05-02T10:18:34.455Z</time></trkpt><trkpt lat="42.6939614" lon="13.6200025"><ele>1119.5</ele><time>2026-05-02T10:18:36.455Z</time></trkpt><trkpt lat="42.6939482" lon="13.6198946"><ele>1120.3333333333333</ele><time>2026-05-02T10:18:38.454Z</time></trkpt><trkpt lat="42.6939359" lon="13.619793"><ele>1121.1666666666667</ele><time>2026-05-02T10:18:40.455Z</time></trkpt><trkpt lat="42.6939289" lon="13.6196891"><ele>1122.0</ele><time>2026-05-02T10:18:42.454Z</time></trkpt><trkpt lat="42.6939146" lon="13.6195869"><ele>1122.0</ele><time>2026-05-02T10:18:44.456Z</time></trkpt><trkpt lat="42.6938856" lon="13.6194916"><ele>1122.0</ele><time>2026-05-02T10:18:46.455Z</time></trkpt><trkpt lat="42.6938567" lon="13.6194003"><ele>1122.0</ele><time>2026-05-02T10:18:48.455Z</time></trkpt><trkpt lat="42.6938215" lon="13.6193124"><ele>1122.0</ele><time>2026-05-02T10:18:50.455Z</time></trkpt><trkpt lat="42.6937865" lon="13.6192286"><ele>1122.0</ele><time>2026-05-02T10:18:52.454Z</time></trkpt><trkpt lat="42.6937403" lon="13.6191268"><ele>1122.0</ele><time>2026-05-02T10:18:55.454Z</time></trkpt><trkpt lat="42.6937392" lon="13.619005"><ele>1122.857142857143</ele><time>2026-05-02T10:18:58.454Z</time></trkpt><trkpt lat="42.6937536" lon="13.6189088"><ele>1123.7142857142856</ele><time>2026-05-02T10:19:00.454Z</time></trkpt><trkpt lat="42.6937719" lon="13.6188089"><ele>1124.5714285714284</ele><time>2026-05-02T10:19:02.455Z</time></trkpt><trkpt lat="42.6937749" lon="13.6187096"><ele>1125.4285714285713</ele><time>2026-05-02T10:19:04.454Z</time></trkpt><trkpt lat="42.6937445" lon="13.6186262"><ele>1126.2857142857142</ele><time>2026-05-02T10:19:06.454Z</time></trkpt><trkpt lat="42.6937083" lon="13.6185422"><ele>1127.142857142857</ele><time>2026-05-02T10:19:08.455Z</time></trkpt><trkpt lat="42.6936732" lon="13.6184575"><ele>1128.0</ele><time>2026-05-02T10:19:10.454Z</time></trkpt><trkpt lat="42.6936292" lon="13.6183877"><ele>1127.142857142857</ele><time>2026-05-02T10:19:12.455Z</time></trkpt><trkpt lat="42.6935457" lon="13.6183726"><ele>1126.2857142857142</ele><time>2026-05-02T10:19:15.454Z</time></trkpt><trkpt lat="42.6934815" lon="13.6183818"><ele>1125.4285714285713</ele><time>2026-05-02T10:19:27.456Z</time></trkpt><trkpt lat="42.6934924" lon="13.6184937"><ele>1124.5714285714284</ele><time>2026-05-02T10:19:41.455Z</time></trkpt><trkpt lat="42.693499" lon="13.618579"><ele>1123.7142857142856</ele><time>2026-05-02T10:19:44.455Z</time></trkpt><trkpt lat="42.6934859" lon="13.6186961"><ele>1122.857142857143</ele><time>2026-05-02T10:19:48.454Z</time></trkpt><trkpt lat="42.6934716" lon="13.618785"><ele>1122.0</ele><time>2026-05-02T10:19:50.455Z</time></trkpt><trkpt lat="42.6934564" lon="13.6188962"><ele>1120.1666666666667</ele><time>2026-05-02T10:19:52.456Z</time></trkpt><trkpt lat="42.6934227" lon="13.6190268"><ele>1118.3333333333333</ele><time>2026-05-02T10:19:54.456Z</time></trkpt><trkpt lat="42.6934001" lon="13.6191238"><ele>1116.5</ele><time>2026-05-02T10:19:56.456Z</time></trkpt><trkpt lat="42.6934322" lon="13.6192565"><ele>1114.6666666666665</ele><time>2026-05-02T10:19:59.455Z</time></trkpt><trkpt lat="42.6934523" lon="13.6193536"><ele>1112.8333333333333</ele><time>2026-05-02T10:20:01.456Z</time></trkpt><trkpt lat="42.6934643" lon="13.6194572"><ele>1111.0</ele><time>2026-05-02T10:20:03.455Z</time></trkpt><trkpt lat="42.6934714" lon="13.619552"><ele>1107.8333333333333</ele><time>2026-05-02T10:20:05.456Z</time></trkpt><trkpt lat="42.6934657" lon="13.6196646"><ele>1104.6666666666665</ele><time>2026-05-02T10:20:08.455Z</time></trkpt><trkpt lat="42.6934482" lon="13.6197961"><ele>1101.5</ele><time>2026-05-02T10:20:11.455Z</time></trkpt><trkpt lat="42.6934374" lon="13.6199332"><ele>1098.3333333333333</ele><time>2026-05-02T10:20:13.456Z</time></trkpt><trkpt lat="42.6934389" lon="13.6200241"><ele>1095.1666666666667</ele><time>2026-05-02T10:20:14.455Z</time></trkpt><trkpt lat="42.6934218" lon="13.6201168"><ele>1092.0</ele><time>2026-05-02T10:20:15.455Z</time></trkpt><trkpt lat="42.6933858" lon="13.6202097"><ele>1092.0</ele><time>2026-05-02T10:20:16.453Z</time></trkpt><trkpt lat="42.6933732" lon="13.6203031"><ele>1092.0</ele><time>2026-05-02T10:20:17.453Z</time></trkpt><trkpt lat="42.6933428" lon="13.6204387"><ele>1092.0</ele><time>2026-05-02T10:20:19.454Z</time></trkpt><trkpt lat="42.6933306" lon="13.6205287"><ele>1092.0</ele><time>2026-05-02T10:20:20.455Z</time></trkpt><trkpt lat="42.6933143" lon="13.6206115"><ele>1092.0</ele><time>2026-05-02T10:20:21.454Z</time></trkpt><trkpt lat="42.6932964" lon="13.6207431"><ele>1092.0</ele><time>2026-05-02T10:20:23.455Z</time></trkpt><trkpt lat="42.693308" lon="13.6208795"><ele>1090.4</ele><time>2026-05-02T10:20:25.453Z</time></trkpt><trkpt lat="42.6933401" lon="13.6209966"><ele>1088.8000000000002</ele><time>2026-05-02T10:20:27.454Z</time></trkpt><trkpt lat="42.6934169" lon="13.6210839"><ele>1087.2</ele><time>2026-05-02T10:20:30.454Z</time></trkpt><trkpt lat="42.6934796" lon="13.6212247"><ele>1085.6000000000001</ele><time>2026-05-02T10:20:32.454Z</time></trkpt><trkpt lat="42.6935135" lon="13.6213096"><ele>1084.0</ele><time>2026-05-02T10:20:33.453Z</time></trkpt><trkpt lat="42.69354" lon="13.6214297"><ele>1083.5</ele><time>2026-05-02T10:20:34.455Z</time></trkpt><trkpt lat="42.6935535" lon="13.6215353"><ele>1083.0</ele><time>2026-05-02T10:20:35.455Z</time></trkpt><trkpt lat="42.6935798" lon="13.6216253"><ele>1082.5</ele><time>2026-05-02T10:20:36.453Z</time></trkpt><trkpt lat="42.6935906" lon="13.6218016"><ele>1082.0</ele><time>2026-05-02T10:20:38.453Z</time></trkpt><trkpt lat="42.6936037" lon="13.6218898"><ele>1081.5</ele><time>2026-05-02T10:20:39.453Z</time></trkpt><trkpt lat="42.6936347" lon="13.621988"><ele>1081.0</ele><time>2026-05-02T10:20:40.453Z</time></trkpt><trkpt lat="42.6936515" lon="13.6220923"><ele>1081.0</ele><time>2026-05-02T10:20:41.454Z</time></trkpt><trkpt lat="42.6936777" lon="13.6222564"><ele>1081.0</ele><time>2026-05-02T10:20:43.454Z</time></trkpt><trkpt lat="42.6936954" lon="13.6223943"><ele>1081.0</ele><time>2026-05-02T10:20:45.453Z</time></trkpt><trkpt lat="42.6936656" lon="13.6225241"><ele>1081.0</ele><time>2026-05-02T10:20:47.454Z</time></trkpt><trkpt lat="42.693646" lon="13.6226656"><ele>1081.0</ele><time>2026-05-02T10:20:49.454Z</time></trkpt><trkpt lat="42.6936267" lon="13.6227485"><ele>1076.6</ele><time>2026-05-02T10:20:50.454Z</time></trkpt><trkpt lat="42.6936182" lon="13.6228659"><ele>1072.1999999999998</ele><time>2026-05-02T10:20:52.453Z</time></trkpt><trkpt lat="42.6935841" lon="13.6230249"><ele>1067.8000000000002</ele><time>2026-05-02T10:20:54.453Z</time></trkpt><trkpt lat="42.6935283" lon="13.6231689"><ele>1063.4</ele><time>2026-05-02T10:20:56.453Z</time></trkpt><trkpt lat="42.6934575" lon="13.6233009"><ele>1059.0</ele><time>2026-05-02T10:20:58.454Z</time></trkpt><trkpt lat="42.6933995" lon="13.6233599"><ele>1055.8333333333333</ele><time>2026-05-02T10:20:59.454Z</time></trkpt><trkpt lat="42.693365" lon="13.6234394"><ele>1052.6666666666667</ele><time>2026-05-02T10:21:00.454Z</time></trkpt><trkpt lat="42.6933263" lon="13.6235177"><ele>1049.5</ele><time>2026-05-02T10:21:01.454Z</time></trkpt><trkpt lat="42.6932598" lon="13.6236523"><ele>1046.3333333333335</ele><time>2026-05-02T10:21:03.455Z</time></trkpt><trkpt lat="42.6932227" lon="13.6237364"><ele>1043.1666666666667</ele><time>2026-05-02T10:21:04.454Z</time></trkpt><trkpt lat="42.6931866" lon="13.6238111"><ele>1040.0</ele><time>2026-05-02T10:21:05.454Z</time></trkpt><trkpt lat="42.6931609" lon="13.6239217"><ele>1038.5</ele><time>2026-05-02T10:21:07.453Z</time></trkpt><trkpt lat="42.6931821" lon="13.6240398"><ele>1037.0</ele><time>2026-05-02T10:21:17.454Z</time></trkpt><trkpt lat="42.6932146" lon="13.6241247"><ele>1035.5</ele><time>2026-05-02T10:21:19.454Z</time></trkpt><trkpt lat="42.6932862" lon="13.6242122"><ele>1034.0</ele><time>2026-05-02T10:21:21.453Z</time></trkpt><trkpt lat="42.693364" lon="13.6243053"><ele>1032.5</ele><time>2026-05-02T10:21:23.455Z</time></trkpt><trkpt lat="42.6934013" lon="13.6243999"><ele>1031.0</ele><time>2026-05-02T10:21:25.454Z</time></trkpt><trkpt lat="42.6934" lon="13.6244863"><ele>1028.2</ele><time>2026-05-02T10:21:27.453Z</time></trkpt><trkpt lat="42.6933604" lon="13.624556"><ele>1025.3999999999999</ele><time>2026-05-02T10:21:29.455Z</time></trkpt><trkpt lat="42.6932868" lon="13.6246395"><ele>1022.6</ele><time>2026-05-02T10:21:49.455Z</time></trkpt><trkpt lat="42.6932466" lon="13.6247749"><ele>1019.8</ele><time>2026-05-02T10:21:51.453Z</time></trkpt><trkpt lat="42.6932464" lon="13.6249446"><ele>1017.0</ele><time>2026-05-02T10:21:53.454Z</time></trkpt><trkpt lat="42.6932381" lon="13.6250323"><ele>1017.0</ele><time>2026-05-02T10:21:54.454Z</time></trkpt><trkpt lat="42.6932326" lon="13.6251587"><ele>1017.0</ele><time>2026-05-02T10:21:56.453Z</time></trkpt><trkpt lat="42.6932446" lon="13.625271"><ele>1017.0</ele><time>2026-05-02T10:21:58.453Z</time></trkpt><trkpt lat="42.693229" lon="13.6253933"><ele>1017.0</ele><time>2026-05-02T10:22:00.454Z</time></trkpt><trkpt lat="42.6932007" lon="13.625531"><ele>1017.0</ele><time>2026-05-02T10:22:02.454Z</time></trkpt><trkpt lat="42.6931698" lon="13.6256774"><ele>1013.8</ele><time>2026-05-02T10:22:04.454Z</time></trkpt><trkpt lat="42.6930954" lon="13.6257793"><ele>1010.6</ele><time>2026-05-02T10:22:06.455Z</time></trkpt><trkpt lat="42.6930418" lon="13.6258983"><ele>1007.3999999999999</ele><time>2026-05-02T10:22:08.453Z</time></trkpt><trkpt lat="42.6930196" lon="13.6260603"><ele>1004.1999999999999</ele><time>2026-05-02T10:22:10.453Z</time></trkpt><trkpt lat="42.6930211" lon="13.6261483"><ele>1001.0</ele><time>2026-05-02T10:22:11.454Z</time></trkpt><trkpt lat="42.6930069" lon="13.6262359"><ele>996.25</ele><time>2026-05-02T10:22:12.454Z</time></trkpt><trkpt lat="42.6929933" lon="13.6263706"><ele>991.5</ele><time>2026-05-02T10:22:14.454Z</time></trkpt><trkpt lat="42.6929557" lon="13.6265064"><ele>986.75</ele><time>2026-05-02T10:22:16.453Z</time></trkpt><trkpt lat="42.6928703" lon="13.62662"><ele>982.0</ele><time>2026-05-02T10:22:18.453Z</time></trkpt><trkpt lat="42.6927814" lon="13.6267508"><ele>982.6</ele><time>2026-05-02T10:22:20.453Z</time></trkpt><trkpt lat="42.6927375" lon="13.6268479"><ele>983.2</ele><time>2026-05-02T10:22:21.454Z</time></trkpt><trkpt lat="42.6926839" lon="13.6269466"><ele>983.8</ele><time>2026-05-02T10:22:22.454Z</time></trkpt><trkpt lat="42.6926147" lon="13.6270555"><ele>984.4</ele><time>2026-05-02T10:22:23.455Z</time></trkpt><trkpt lat="42.6925488" lon="13.6271661"><ele>985.0</ele><time>2026-05-02T10:22:24.455Z</time></trkpt><trkpt lat="42.6924866" lon="13.6272669"><ele>982.1666666666666</ele><time>2026-05-02T10:22:25.455Z</time></trkpt><trkpt lat="42.6924364" lon="13.627379"><ele>979.3333333333333</ele><time>2026-05-02T10:22:26.455Z</time></trkpt><trkpt lat="42.6923834" lon="13.6274917"><ele>976.5</ele><time>2026-05-02T10:22:27.454Z</time></trkpt><trkpt lat="42.6923458" lon="13.6275814"><ele>973.6666666666667</ele><time>2026-05-02T10:22:28.453Z</time></trkpt><trkpt lat="42.6923027" lon="13.6276655"><ele>970.8333333333334</ele><time>2026-05-02T10:22:29.454Z</time></trkpt><trkpt lat="42.6922711" lon="13.6277415"><ele>968.0</ele><time>2026-05-02T10:22:30.454Z</time></trkpt><trkpt lat="42.6922403" lon="13.6278259"><ele>966.6666666666667</ele><time>2026-05-02T10:22:31.454Z</time></trkpt><trkpt lat="42.6922023" lon="13.6279126"><ele>965.3333333333334</ele><time>2026-05-02T10:22:32.453Z</time></trkpt><trkpt lat="42.6921653" lon="13.628006"><ele>964.0</ele><time>2026-05-02T10:22:33.454Z</time></trkpt><trkpt lat="42.6921241" lon="13.6281012"><ele>962.6666666666667</ele><time>2026-05-02T10:22:34.455Z</time></trkpt><trkpt lat="42.6920881" lon="13.6282043"><ele>961.3333333333334</ele><time>2026-05-02T10:22:35.453Z</time></trkpt><trkpt lat="42.692044" lon="13.6283085"><ele>960.0</ele><time>2026-05-02T10:22:36.454Z</time></trkpt><trkpt lat="42.6920022" lon="13.6283971"><ele>960.0</ele><time>2026-05-02T10:22:37.454Z</time></trkpt><trkpt lat="42.6919621" lon="13.6285215"><ele>960.0</ele><time>2026-05-02T10:22:39.454Z</time></trkpt><trkpt lat="42.6919185" lon="13.6286095"><ele>960.0</ele><time>2026-05-02T10:22:51.453Z</time></trkpt><trkpt lat="42.6918967" lon="13.6287112"><ele>960.0</ele><time>2026-05-02T10:22:54.453Z</time></trkpt><trkpt lat="42.6918676" lon="13.6287962"><ele>960.0</ele><time>2026-05-02T10:22:56.454Z</time></trkpt><trkpt lat="42.6918379" lon="13.6288832"><ele>960.0</ele><time>2026-05-02T10:22:58.454Z</time></trkpt><trkpt lat="42.6917994" lon="13.6290126"><ele>958.4285714285714</ele><time>2026-05-02T10:23:00.453Z</time></trkpt><trkpt lat="42.6917735" lon="13.6290927"><ele>956.8571428571429</ele><time>2026-05-02T10:23:01.453Z</time></trkpt><trkpt lat="42.6917492" lon="13.6291858"><ele>955.2857142857143</ele><time>2026-05-02T10:23:02.454Z</time></trkpt><trkpt lat="42.6917328" lon="13.6292848"><ele>953.7142857142858</ele><time>2026-05-02T10:23:03.454Z</time></trkpt><trkpt lat="42.6917035" lon="13.6293866"><ele>952.1428571428571</ele><time>2026-05-02T10:23:04.453Z</time></trkpt><trkpt lat="42.6916774" lon="13.6294864"><ele>950.5714285714287</ele><time>2026-05-02T10:23:05.453Z</time></trkpt><trkpt lat="42.6916541" lon="13.6295758"><ele>949.0000000000001</ele><time>2026-05-02T10:23:06.453Z</time></trkpt><trkpt lat="42.6916346" lon="13.6296775"><ele>946.8333333333333</ele><time>2026-05-02T10:23:07.453Z</time></trkpt><trkpt lat="42.6915981" lon="13.6297868"><ele>944.6666666666666</ele><time>2026-05-02T10:23:08.454Z</time></trkpt><trkpt lat="42.6915658" lon="13.6298754"><ele>942.5</ele><time>2026-05-02T10:23:09.453Z</time></trkpt><trkpt lat="42.6915349" lon="13.629999"><ele>940.3333333333333</ele><time>2026-05-02T10:23:11.453Z</time></trkpt><trkpt lat="42.6914905" lon="13.6300972"><ele>938.1666666666666</ele><time>2026-05-02T10:23:14.454Z</time></trkpt><trkpt lat="42.6915055" lon="13.6301852"><ele>936.0</ele><time>2026-05-02T10:23:17.453Z</time></trkpt><trkpt lat="42.6915891" lon="13.6302599"><ele>934.8</ele><time>2026-05-02T10:23:20.454Z</time></trkpt><trkpt lat="42.6916972" lon="13.6303506"><ele>933.5999999999999</ele><time>2026-05-02T10:23:22.453Z</time></trkpt><trkpt lat="42.6917528" lon="13.6304177"><ele>932.4</ele><time>2026-05-02T10:23:23.453Z</time></trkpt><trkpt lat="42.6917952" lon="13.6304893"><ele>931.2</ele><time>2026-05-02T10:23:24.454Z</time></trkpt><trkpt lat="42.6918391" lon="13.6305572"><ele>930.0</ele><time>2026-05-02T10:23:25.454Z</time></trkpt><trkpt lat="42.6919017" lon="13.6307049"><ele>930.0</ele><time>2026-05-02T10:23:27.453Z</time></trkpt><trkpt lat="42.6919105" lon="13.630869"><ele>930.0</ele><time>2026-05-02T10:23:29.452Z</time></trkpt><trkpt lat="42.691895" lon="13.6310137"><ele>930.0</ele><time>2026-05-02T10:23:31.453Z</time></trkpt><trkpt lat="42.6919541" lon="13.631121"><ele>930.0</ele><time>2026-05-02T10:23:33.453Z</time></trkpt><trkpt lat="42.6919398" lon="13.6312872"><ele>928.0</ele><time>2026-05-02T10:23:35.452Z</time></trkpt><trkpt lat="42.6919167" lon="13.6313694"><ele>926.0</ele><time>2026-05-02T10:23:36.452Z</time></trkpt><trkpt lat="42.6918722" lon="13.6315166"><ele>924.0</ele><time>2026-05-02T10:23:38.454Z</time></trkpt><trkpt lat="42.6918352" lon="13.6316051"><ele>922.0</ele><time>2026-05-02T10:23:39.452Z</time></trkpt><trkpt lat="42.6917903" lon="13.6316909"><ele>920.0</ele><time>2026-05-02T10:23:40.453Z</time></trkpt><trkpt lat="42.6917517" lon="13.6317795"><ele>918.0</ele><time>2026-05-02T10:23:41.452Z</time></trkpt><trkpt lat="42.691728" lon="13.6318847"><ele>915.0</ele><time>2026-05-02T10:23:42.452Z</time></trkpt><trkpt lat="42.6917204" lon="13.6319852"><ele>912.0</ele><time>2026-05-02T10:23:43.454Z</time></trkpt><trkpt lat="42.6917218" lon="13.6320897"><ele>909.0</ele><time>2026-05-02T10:23:44.454Z</time></trkpt><trkpt lat="42.691722" lon="13.6322608"><ele>906.0</ele><time>2026-05-02T10:23:46.453Z</time></trkpt><trkpt lat="42.6917018" lon="13.6324138"><ele>903.0</ele><time>2026-05-02T10:23:48.452Z</time></trkpt><trkpt lat="42.6916839" lon="13.6325563"><ele>903.0</ele><time>2026-05-02T10:23:50.454Z</time></trkpt><trkpt lat="42.6916555" lon="13.6327171"><ele>903.0</ele><time>2026-05-02T10:23:52.453Z</time></trkpt><trkpt lat="42.6916431" lon="13.632802"><ele>903.0</ele><time>2026-05-02T10:23:53.454Z</time></trkpt><trkpt lat="42.6916228" lon="13.6329255"><ele>903.0</ele><time>2026-05-02T10:23:55.452Z</time></trkpt><trkpt lat="42.6915776" lon="13.6332617"><ele>901.3333333333334</ele><time>2026-05-02T10:24:31.453Z</time></trkpt><trkpt lat="42.6915704" lon="13.6333468"><ele>899.6666666666667</ele><time>2026-05-02T10:24:32.453Z</time></trkpt><trkpt lat="42.6915633" lon="13.6334455"><ele>898.0</ele><time>2026-05-02T10:24:33.454Z</time></trkpt><trkpt lat="42.6915567" lon="13.6335588"><ele>896.3333333333334</ele><time>2026-05-02T10:24:34.453Z</time></trkpt><trkpt lat="42.6915452" lon="13.6336776"><ele>894.6666666666667</ele><time>2026-05-02T10:24:35.452Z</time></trkpt><trkpt lat="42.6915404" lon="13.6337741"><ele>893.0</ele><time>2026-05-02T10:24:36.453Z</time></trkpt><trkpt lat="42.6915233" lon="13.6339236"><ele>891.6666666666667</ele><time>2026-05-02T10:24:38.453Z</time></trkpt><trkpt lat="42.6914855" lon="13.6340203"><ele>890.3333333333334</ele><time>2026-05-02T10:24:40.452Z</time></trkpt><trkpt lat="42.6915507" lon="13.6340687"><ele>889.0</ele><time>2026-05-02T10:24:43.453Z</time></trkpt><trkpt lat="42.6915893" lon="13.6339991"><ele>887.6666666666667</ele><time>2026-05-02T10:24:44.454Z</time></trkpt><trkpt lat="42.6916721" lon="13.6339398"><ele>886.3333333333334</ele><time>2026-05-02T10:24:46.452Z</time></trkpt><trkpt lat="42.6917757" lon="13.6338658"><ele>885.0</ele><time>2026-05-02T10:24:48.453Z</time></trkpt><trkpt lat="42.6919067" lon="13.6338203"><ele>883.1666666666666</ele><time>2026-05-02T10:24:50.453Z</time></trkpt><trkpt lat="42.69198" lon="13.6338109"><ele>881.3333333333333</ele><time>2026-05-02T10:24:51.453Z</time></trkpt><trkpt lat="42.6920531" lon="13.6337979"><ele>879.5</ele><time>2026-05-02T10:24:52.453Z</time></trkpt><trkpt lat="42.6921277" lon="13.6337963"><ele>877.6666666666666</ele><time>2026-05-02T10:24:53.454Z</time></trkpt><trkpt lat="42.6922025" lon="13.6337985"><ele>875.8333333333333</ele><time>2026-05-02T10:24:54.453Z</time></trkpt><trkpt lat="42.6922783" lon="13.6337946"><ele>874.0</ele><time>2026-05-02T10:24:55.454Z</time></trkpt><trkpt lat="42.6923572" lon="13.6338045"><ele>873.9999999999999</ele><time>2026-05-02T10:24:56.453Z</time></trkpt><trkpt lat="42.6924424" lon="13.6338178"><ele>874.0</ele><time>2026-05-02T10:24:57.454Z</time></trkpt><trkpt lat="42.6925244" lon="13.6338202"><ele>874.0</ele><time>2026-05-02T10:24:58.453Z</time></trkpt><trkpt lat="42.6926086" lon="13.6338371"><ele>874.0</ele><time>2026-05-02T10:24:59.453Z</time></trkpt><trkpt lat="42.6926942" lon="13.6338406"><ele>873.9999999999999</ele><time>2026-05-02T10:25:00.453Z</time></trkpt><trkpt lat="42.6927783" lon="13.6338082"><ele>874.0</ele><time>2026-05-02T10:25:01.454Z</time></trkpt><trkpt lat="42.6928566" lon="13.6337629"><ele>872.0</ele><time>2026-05-02T10:25:02.453Z</time></trkpt><trkpt lat="42.6929274" lon="13.6336839"><ele>870.0000000000001</ele><time>2026-05-02T10:25:03.454Z</time></trkpt><trkpt lat="42.6929811" lon="13.6335842"><ele>868.0000000000001</ele><time>2026-05-02T10:25:04.454Z</time></trkpt><trkpt lat="42.6930404" lon="13.6334939"><ele>866.0</ele><time>2026-05-02T10:25:05.453Z</time></trkpt><trkpt lat="42.693069" lon="13.6333608"><ele>864.0</ele><time>2026-05-02T10:25:06.452Z</time></trkpt><trkpt lat="42.6930718" lon="13.6332392"><ele>864.0</ele><time>2026-05-02T10:25:07.453Z</time></trkpt><trkpt lat="42.6930977" lon="13.6331084"><ele>864.0000000000001</ele><time>2026-05-02T10:25:08.454Z</time></trkpt><trkpt lat="42.6931386" lon="13.6329915"><ele>864.0000000000001</ele><time>2026-05-02T10:25:09.454Z</time></trkpt><trkpt lat="42.6931949" lon="13.6328853"><ele>864.0</ele><time>2026-05-02T10:25:10.454Z</time></trkpt><trkpt lat="42.6932519" lon="13.6327764"><ele>864.0</ele><time>2026-05-02T10:25:11.453Z</time></trkpt><trkpt lat="42.6933173" lon="13.6326781"><ele>865.2</ele><time>2026-05-02T10:25:12.454Z</time></trkpt><trkpt lat="42.6933837" lon="13.6325772"><ele>866.4000000000001</ele><time>2026-05-02T10:25:13.454Z</time></trkpt><trkpt lat="42.6934518" lon="13.6324753"><ele>867.6</ele><time>2026-05-02T10:25:14.453Z</time></trkpt><trkpt lat="42.6935201" lon="13.6323761"><ele>868.8</ele><time>2026-05-02T10:25:15.454Z</time></trkpt><trkpt lat="42.6935933" lon="13.6322802"><ele>870.0</ele><time>2026-05-02T10:25:16.453Z</time></trkpt><trkpt lat="42.6936588" lon="13.6321692"><ele>866.8</ele><time>2026-05-02T10:25:17.454Z</time></trkpt><trkpt lat="42.6937332" lon="13.6320726"><ele>863.6</ele><time>2026-05-02T10:25:18.454Z</time></trkpt><trkpt lat="42.6938081" lon="13.631975"><ele>860.4000000000001</ele><time>2026-05-02T10:25:19.454Z</time></trkpt><trkpt lat="42.6938762" lon="13.6318663"><ele>857.2</ele><time>2026-05-02T10:25:20.453Z</time></trkpt><trkpt lat="42.6939489" lon="13.6317597"><ele>854.0</ele><time>2026-05-02T10:25:21.453Z</time></trkpt><trkpt lat="42.6940146" lon="13.6316513"><ele>854.0</ele><time>2026-05-02T10:25:22.454Z</time></trkpt><trkpt lat="42.6940826" lon="13.6315562"><ele>854.0000000000001</ele><time>2026-05-02T10:25:23.453Z</time></trkpt><trkpt lat="42.6941549" lon="13.6314298"><ele>854.0000000000001</ele><time>2026-05-02T10:25:24.453Z</time></trkpt><trkpt lat="42.6941615" lon="13.6313037"><ele>854.0</ele><time>2026-05-02T10:25:25.454Z</time></trkpt><trkpt lat="42.6941858" lon="13.6311596"><ele>854.0</ele><time>2026-05-02T10:25:26.453Z</time></trkpt><trkpt lat="42.6942446" lon="13.6310429"><ele>856.2</ele><time>2026-05-02T10:25:27.453Z</time></trkpt><trkpt lat="42.6943049" lon="13.6309402"><ele>858.4000000000001</ele><time>2026-05-02T10:25:28.452Z</time></trkpt><trkpt lat="42.6943854" lon="13.630873"><ele>860.6</ele><time>2026-05-02T10:25:29.453Z</time></trkpt><trkpt lat="42.6944859" lon="13.6308628"><ele>862.8</ele><time>2026-05-02T10:25:30.453Z</time></trkpt><trkpt lat="42.6945865" lon="13.6308919"><ele>865.0</ele><time>2026-05-02T10:25:31.452Z</time></trkpt><trkpt lat="42.6946787" lon="13.6309372"><ele>865.0</ele><time>2026-05-02T10:25:32.453Z</time></trkpt><trkpt lat="42.6947685" lon="13.6309926"><ele>865.0</ele><time>2026-05-02T10:25:33.453Z</time></trkpt><trkpt lat="42.694852" lon="13.6310731"><ele>865.0</ele><time>2026-05-02T10:25:34.452Z</time></trkpt><trkpt lat="42.6949167" lon="13.6311798"><ele>865.0</ele><time>2026-05-02T10:25:35.452Z</time></trkpt><trkpt lat="42.6949869" lon="13.6312764"><ele>865.0</ele><time>2026-05-02T10:25:36.453Z</time></trkpt><trkpt lat="42.6950556" lon="13.6313456"><ele>858.75</ele><time>2026-05-02T10:25:37.453Z</time></trkpt><trkpt lat="42.6951478" lon="13.6314177"><ele>852.5</ele><time>2026-05-02T10:25:38.453Z</time></trkpt><trkpt lat="42.6952475" lon="13.6314119"><ele>846.25</ele><time>2026-05-02T10:25:39.453Z</time></trkpt><trkpt lat="42.6954203" lon="13.6313719"><ele>840.0</ele><time>2026-05-02T10:25:41.453Z</time></trkpt><trkpt lat="42.6954964" lon="13.6313104"><ele>838.3333333333333</ele><time>2026-05-02T10:25:42.453Z</time></trkpt><trkpt lat="42.695777" lon="13.6312092"><ele>836.6666666666666</ele><time>2026-05-02T10:25:45.453Z</time></trkpt><trkpt lat="42.6958716" lon="13.6311887"><ele>835.0</ele><time>2026-05-02T10:25:46.454Z</time></trkpt><trkpt lat="42.6960522" lon="13.6311404"><ele>835.3333333333333</ele><time>2026-05-02T10:25:48.452Z</time></trkpt><trkpt lat="42.6961293" lon="13.6311129"><ele>835.6666666666667</ele><time>2026-05-02T10:25:49.453Z</time></trkpt><trkpt lat="42.6963629" lon="13.6311734"><ele>836.0</ele><time>2026-05-02T10:25:52.453Z</time></trkpt><trkpt lat="42.6966239" lon="13.6317537"><ele>836.0</ele><time>2026-05-02T10:25:58.452Z</time></trkpt><trkpt lat="42.6967099" lon="13.6318156"><ele>836.0</ele><time>2026-05-02T10:25:59.452Z</time></trkpt><trkpt lat="42.6967788" lon="13.6318984"><ele>836.0</ele><time>2026-05-02T10:26:00.452Z</time></trkpt><trkpt lat="42.6968725" lon="13.6319209"><ele>836.0</ele><time>2026-05-02T10:26:01.453Z</time></trkpt><trkpt lat="42.6969641" lon="13.6319363"><ele>836.0</ele><time>2026-05-02T10:26:02.454Z</time></trkpt><trkpt lat="42.6970524" lon="13.6319143"><ele>835.8333333333334</ele><time>2026-05-02T10:26:03.454Z</time></trkpt><trkpt lat="42.6971263" lon="13.6318869"><ele>835.6666666666667</ele><time>2026-05-02T10:26:04.454Z</time></trkpt><trkpt lat="42.6972006" lon="13.6318561"><ele>835.5</ele><time>2026-05-02T10:26:06.452Z</time></trkpt><trkpt lat="42.697271" lon="13.6318364"><ele>835.3333333333333</ele><time>2026-05-02T10:26:18.453Z</time></trkpt><trkpt lat="42.6973646" lon="13.631814"><ele>835.1666666666666</ele><time>2026-05-02T10:26:20.452Z</time></trkpt><trkpt lat="42.6974861" lon="13.6318651"><ele>835.0</ele><time>2026-05-02T10:26:22.454Z</time></trkpt><trkpt lat="42.6975469" lon="13.6319024"><ele>835.0000000000001</ele><time>2026-05-02T10:26:23.453Z</time></trkpt><trkpt lat="42.6976083" lon="13.6319414"><ele>835.0</ele><time>2026-05-02T10:26:24.453Z</time></trkpt><trkpt lat="42.697672" lon="13.6319784"><ele>835.0</ele><time>2026-05-02T10:26:25.452Z</time></trkpt><trkpt lat="42.6977374" lon="13.6320089"><ele>835.0</ele><time>2026-05-02T10:26:26.453Z</time></trkpt><trkpt lat="42.6978062" lon="13.6320361"><ele>835.0</ele><time>2026-05-02T10:26:27.453Z</time></trkpt><trkpt lat="42.6978798" lon="13.6320194"><ele>835.0000000000001</ele><time>2026-05-02T10:26:28.454Z</time></trkpt><trkpt lat="42.6979475" lon="13.6319726"><ele>835.0</ele><time>2026-05-02T10:26:29.452Z</time></trkpt><trkpt lat="42.6980081" lon="13.6319091"><ele>833.3333333333333</ele><time>2026-05-02T10:26:30.453Z</time></trkpt><trkpt lat="42.6980679" lon="13.6318351"><ele>831.6666666666666</ele><time>2026-05-02T10:26:31.453Z</time></trkpt><trkpt lat="42.6981434" lon="13.6317817"><ele>830.0</ele><time>2026-05-02T10:26:32.453Z</time></trkpt><trkpt lat="42.6982305" lon="13.6317771"><ele>828.3333333333333</ele><time>2026-05-02T10:26:33.453Z</time></trkpt><trkpt lat="42.6983136" lon="13.6317739"><ele>826.6666666666666</ele><time>2026-05-02T10:26:34.452Z</time></trkpt><trkpt lat="42.6984128" lon="13.631806"><ele>825.0</ele><time>2026-05-02T10:26:35.454Z</time></trkpt><trkpt lat="42.6984983" lon="13.6317656"><ele>825.0</ele><time>2026-05-02T10:26:36.453Z</time></trkpt><trkpt lat="42.6985678" lon="13.6317391"><ele>825.0</ele><time>2026-05-02T10:26:37.453Z</time></trkpt><trkpt lat="42.6986094" lon="13.6316668"><ele>825.0</ele><time>2026-05-02T10:26:38.452Z</time></trkpt><trkpt lat="42.6986592" lon="13.6315458"><ele>825.0</ele><time>2026-05-02T10:26:39.453Z</time></trkpt><trkpt lat="42.6987147" lon="13.6314218"><ele>825.0</ele><time>2026-05-02T10:26:40.452Z</time></trkpt><trkpt lat="42.6987877" lon="13.6313425"><ele>825.0</ele><time>2026-05-02T10:26:41.452Z</time></trkpt><trkpt lat="42.6988826" lon="13.6313067"><ele>822.0</ele><time>2026-05-02T10:26:42.451Z</time></trkpt><trkpt lat="42.6989823" lon="13.6312608"><ele>819.0</ele><time>2026-05-02T10:26:43.453Z</time></trkpt><trkpt lat="42.6990888" lon="13.6312579"><ele>816.0</ele><time>2026-05-02T10:26:44.452Z</time></trkpt><trkpt lat="42.6991878" lon="13.6313471"><ele>813.0</ele><time>2026-05-02T10:26:45.453Z</time></trkpt><trkpt lat="42.6992452" lon="13.6314848"><ele>810.0</ele><time>2026-05-02T10:26:46.452Z</time></trkpt><trkpt lat="42.6993232" lon="13.6315578"><ele>810.0</ele><time>2026-05-02T10:26:47.452Z</time></trkpt><trkpt lat="42.6993994" lon="13.6316083"><ele>810.0</ele><time>2026-05-02T10:26:48.453Z</time></trkpt><trkpt lat="42.6994656" lon="13.6316317"><ele>810.0</ele><time>2026-05-02T10:26:49.452Z</time></trkpt><trkpt lat="42.6995389" lon="13.6315999"><ele>810.0</ele><time>2026-05-02T10:26:50.452Z</time></trkpt><trkpt lat="42.699584" lon="13.6315272"><ele>810.0</ele><time>2026-05-02T10:26:51.452Z</time></trkpt><trkpt lat="42.6996075" lon="13.6313711"><ele>810.0</ele><time>2026-05-02T10:26:52.451Z</time></trkpt><trkpt lat="42.6996545" lon="13.6312738"><ele>811.0</ele><time>2026-05-02T10:26:53.452Z</time></trkpt><trkpt lat="42.6997026" lon="13.6311683"><ele>812.0</ele><time>2026-05-02T10:26:54.451Z</time></trkpt><trkpt lat="42.6997511" lon="13.6310657"><ele>813.0</ele><time>2026-05-02T10:26:55.451Z</time></trkpt><trkpt lat="42.6998616" lon="13.6310576"><ele>814.0</ele><time>2026-05-02T10:26:56.451Z</time></trkpt><trkpt lat="42.6999527" lon="13.6310254"><ele>815.0</ele><time>2026-05-02T10:26:57.453Z</time></trkpt><trkpt lat="42.7000474" lon="13.6309872"><ele>815.0</ele><time>2026-05-02T10:26:58.453Z</time></trkpt><trkpt lat="42.7001385" lon="13.6309302"><ele>815.0</ele><time>2026-05-02T10:26:59.453Z</time></trkpt><trkpt lat="42.7002245" lon="13.6308786"><ele>815.0</ele><time>2026-05-02T10:27:00.452Z</time></trkpt><trkpt lat="42.7002863" lon="13.6307512"><ele>815.0</ele><time>2026-05-02T10:27:01.451Z</time></trkpt><trkpt lat="42.7003584" lon="13.6306567"><ele>815.0</ele><time>2026-05-02T10:27:02.452Z</time></trkpt><trkpt lat="42.7004248" lon="13.6305518"><ele>812.2</ele><time>2026-05-02T10:27:03.452Z</time></trkpt><trkpt lat="42.7004983" lon="13.6304569"><ele>809.4</ele><time>2026-05-02T10:27:04.452Z</time></trkpt><trkpt lat="42.7005863" lon="13.6304184"><ele>806.5999999999999</ele><time>2026-05-02T10:27:05.453Z</time></trkpt><trkpt lat="42.7006959" lon="13.6303813"><ele>803.8</ele><time>2026-05-02T10:27:06.453Z</time></trkpt><trkpt lat="42.7008026" lon="13.6303779"><ele>801.0</ele><time>2026-05-02T10:27:07.452Z</time></trkpt><trkpt lat="42.7008695" lon="13.6304887"><ele>801.0</ele><time>2026-05-02T10:27:08.451Z</time></trkpt><trkpt lat="42.7009494" lon="13.6305596"><ele>801.0</ele><time>2026-05-02T10:27:09.451Z</time></trkpt><trkpt lat="42.7009973" lon="13.6306816"><ele>801.0</ele><time>2026-05-02T10:27:10.451Z</time></trkpt><trkpt lat="42.7010274" lon="13.6308072"><ele>801.0</ele><time>2026-05-02T10:27:11.452Z</time></trkpt><trkpt lat="42.701057" lon="13.630944"><ele>801.0</ele><time>2026-05-02T10:27:12.451Z</time></trkpt><trkpt lat="42.7010654" lon="13.6310868"><ele>797.5999999999999</ele><time>2026-05-02T10:27:13.452Z</time></trkpt><trkpt lat="42.7010588" lon="13.6312284"><ele>794.2</ele><time>2026-05-02T10:27:14.453Z</time></trkpt><trkpt lat="42.7010512" lon="13.6313585"><ele>790.8</ele><time>2026-05-02T10:27:15.452Z</time></trkpt><trkpt lat="42.7010865" lon="13.6314791"><ele>787.4000000000001</ele><time>2026-05-02T10:27:16.452Z</time></trkpt><trkpt lat="42.7011456" lon="13.6315476"><ele>784.0</ele><time>2026-05-02T10:27:17.452Z</time></trkpt><trkpt lat="42.7012153" lon="13.6316295"><ele>783.6</ele><time>2026-05-02T10:27:18.452Z</time></trkpt><trkpt lat="42.7012863" lon="13.6316194"><ele>783.2</ele><time>2026-05-02T10:27:19.451Z</time></trkpt><trkpt lat="42.7013879" lon="13.6315481"><ele>782.8000000000001</ele><time>2026-05-02T10:27:20.451Z</time></trkpt><trkpt lat="42.7014484" lon="13.6314226"><ele>782.4000000000001</ele><time>2026-05-02T10:27:21.451Z</time></trkpt><trkpt lat="42.7015214" lon="13.6313443"><ele>782.0</ele><time>2026-05-02T10:27:22.453Z</time></trkpt><trkpt lat="42.7016053" lon="13.6312704"><ele>782.0</ele><time>2026-05-02T10:27:23.452Z</time></trkpt><trkpt lat="42.7017016" lon="13.6312486"><ele>782.0</ele><time>2026-05-02T10:27:24.452Z</time></trkpt><trkpt lat="42.7018038" lon="13.6312404"><ele>782.0</ele><time>2026-05-02T10:27:25.453Z</time></trkpt><trkpt lat="42.7019039" lon="13.6312369"><ele>782.0</ele><time>2026-05-02T10:27:26.452Z</time></trkpt><trkpt lat="42.7019997" lon="13.6312333"><ele>782.0</ele><time>2026-05-02T10:27:27.452Z</time></trkpt><trkpt lat="42.7021054" lon="13.6312427"><ele>781.4000000000001</ele><time>2026-05-02T10:27:28.452Z</time></trkpt><trkpt lat="42.7022056" lon="13.6312468"><ele>780.8000000000001</ele><time>2026-05-02T10:27:29.452Z</time></trkpt><trkpt lat="42.7023094" lon="13.6312708"><ele>780.2</ele><time>2026-05-02T10:27:30.451Z</time></trkpt><trkpt lat="42.7024125" lon="13.6312969"><ele>779.6</ele><time>2026-05-02T10:27:31.451Z</time></trkpt><trkpt lat="42.7025121" lon="13.6313248"><ele>779.0</ele><time>2026-05-02T10:27:32.452Z</time></trkpt><trkpt lat="42.7026044" lon="13.6313614"><ele>779.0</ele><time>2026-05-02T10:27:33.452Z</time></trkpt><trkpt lat="42.7026975" lon="13.6314018"><ele>779.0</ele><time>2026-05-02T10:27:34.452Z</time></trkpt><trkpt lat="42.7027978" lon="13.6314386"><ele>779.0</ele><time>2026-05-02T10:27:35.453Z</time></trkpt><trkpt lat="42.7028924" lon="13.6314942"><ele>779.0</ele><time>2026-05-02T10:27:36.451Z</time></trkpt><trkpt lat="42.7029925" lon="13.6315468"><ele>779.0</ele><time>2026-05-02T10:27:37.452Z</time></trkpt><trkpt lat="42.7030891" lon="13.6316038"><ele>779.2</ele><time>2026-05-02T10:27:38.452Z</time></trkpt><trkpt lat="42.7031745" lon="13.6316688"><ele>779.4000000000001</ele><time>2026-05-02T10:27:39.452Z</time></trkpt><trkpt lat="42.7032688" lon="13.6317388"><ele>779.6</ele><time>2026-05-02T10:27:40.452Z</time></trkpt><trkpt lat="42.7033538" lon="13.6318011"><ele>779.8</ele><time>2026-05-02T10:27:41.452Z</time></trkpt><trkpt lat="42.7034321" lon="13.6318593"><ele>780.0</ele><time>2026-05-02T10:27:42.452Z</time></trkpt><trkpt lat="42.7035139" lon="13.6318927"><ele>777.6666666666666</ele><time>2026-05-02T10:27:43.452Z</time></trkpt><trkpt lat="42.7035934" lon="13.631892"><ele>775.3333333333334</ele><time>2026-05-02T10:27:44.452Z</time></trkpt><trkpt lat="42.7036736" lon="13.6318751"><ele>773.0</ele><time>2026-05-02T10:27:45.452Z</time></trkpt><trkpt lat="42.7037573" lon="13.6318533"><ele>770.6666666666667</ele><time>2026-05-02T10:27:46.453Z</time></trkpt><trkpt lat="42.7037836" lon="13.6317154"><ele>768.3333333333334</ele><time>2026-05-02T10:27:47.453Z</time></trkpt><trkpt lat="42.7038482" lon="13.6316325"><ele>766.0</ele><time>2026-05-02T10:27:48.452Z</time></trkpt><trkpt lat="42.7039094" lon="13.6315362"><ele>766.0</ele><time>2026-05-02T10:27:49.452Z</time></trkpt><trkpt lat="42.7039739" lon="13.6314465"><ele>766.0</ele><time>2026-05-02T10:27:50.453Z</time></trkpt><trkpt lat="42.7040387" lon="13.6313602"><ele>766.0</ele><time>2026-05-02T10:27:51.452Z</time></trkpt><trkpt lat="42.7041032" lon="13.6312669"><ele>766.0</ele><time>2026-05-02T10:27:52.453Z</time></trkpt><trkpt lat="42.7041788" lon="13.6311894"><ele>766.0</ele><time>2026-05-02T10:27:53.453Z</time></trkpt><trkpt lat="42.7042643" lon="13.6311424"><ele>766.1999999999999</ele><time>2026-05-02T10:27:54.451Z</time></trkpt><trkpt lat="42.7043573" lon="13.6310976"><ele>766.4</ele><time>2026-05-02T10:27:55.452Z</time></trkpt><trkpt lat="42.7044411" lon="13.6310463"><ele>766.6</ele><time>2026-05-02T10:27:56.451Z</time></trkpt><trkpt lat="42.7045286" lon="13.6309918"><ele>766.8</ele><time>2026-05-02T10:27:57.452Z</time></trkpt><trkpt lat="42.7046171" lon="13.6309495"><ele>767.0</ele><time>2026-05-02T10:27:58.452Z</time></trkpt><trkpt lat="42.7047091" lon="13.6309144"><ele>767.0</ele><time>2026-05-02T10:27:59.452Z</time></trkpt><trkpt lat="42.7047991" lon="13.6308662"><ele>767.0</ele><time>2026-05-02T10:28:00.451Z</time></trkpt><trkpt lat="42.7048925" lon="13.6308259"><ele>767.0</ele><time>2026-05-02T10:28:01.452Z</time></trkpt><trkpt lat="42.7049838" lon="13.6307784"><ele>767.0</ele><time>2026-05-02T10:28:02.452Z</time></trkpt><trkpt lat="42.7050706" lon="13.6307287"><ele>767.0</ele><time>2026-05-02T10:28:03.452Z</time></trkpt><trkpt lat="42.7051641" lon="13.6306941"><ele>767.0</ele><time>2026-05-02T10:28:04.452Z</time></trkpt><trkpt lat="42.7052399" lon="13.6307641"><ele>767.0</ele><time>2026-05-02T10:28:05.452Z</time></trkpt><trkpt lat="42.7053081" lon="13.6308318"><ele>767.0</ele><time>2026-05-02T10:28:06.451Z</time></trkpt><trkpt lat="42.7053395" lon="13.6309421"><ele>767.0</ele><time>2026-05-02T10:28:07.451Z</time></trkpt><trkpt lat="42.7053367" lon="13.6310688"><ele>767.0</ele><time>2026-05-02T10:28:08.451Z</time></trkpt><trkpt lat="42.7053232" lon="13.6311902"><ele>767.0</ele><time>2026-05-02T10:28:09.452Z</time></trkpt><trkpt lat="42.7052794" lon="13.6313329"><ele>763.8</ele><time>2026-05-02T10:28:10.451Z</time></trkpt><trkpt lat="42.7051863" lon="13.6313987"><ele>760.6</ele><time>2026-05-02T10:28:11.453Z</time></trkpt><trkpt lat="42.7051057" lon="13.6314729"><ele>757.4</ele><time>2026-05-02T10:28:12.453Z</time></trkpt><trkpt lat="42.705043" lon="13.6315631"><ele>754.1999999999999</ele><time>2026-05-02T10:28:13.453Z</time></trkpt><trkpt lat="42.7049714" lon="13.6316564"><ele>751.0</ele><time>2026-05-02T10:28:14.452Z</time></trkpt><trkpt lat="42.7048961" lon="13.6317383"><ele>751.0</ele><time>2026-05-02T10:28:15.452Z</time></trkpt><trkpt lat="42.7048231" lon="13.6318256"><ele>751.0</ele><time>2026-05-02T10:28:16.451Z</time></trkpt><trkpt lat="42.7047533" lon="13.6319151"><ele>751.0</ele><time>2026-05-02T10:28:17.451Z</time></trkpt><trkpt lat="42.7046792" lon="13.6320024"><ele>751.0</ele><time>2026-05-02T10:28:18.452Z</time></trkpt><trkpt lat="42.7046104" lon="13.6320955"><ele>751.0</ele><time>2026-05-02T10:28:19.452Z</time></trkpt><trkpt lat="42.7045409" lon="13.6321923"><ele>751.4</ele><time>2026-05-02T10:28:20.452Z</time></trkpt><trkpt lat="42.7044636" lon="13.632281"><ele>751.8</ele><time>2026-05-02T10:28:21.451Z</time></trkpt><trkpt lat="42.7044024" lon="13.6323843"><ele>752.1999999999999</ele><time>2026-05-02T10:28:22.452Z</time></trkpt><trkpt lat="42.7043581" lon="13.6325097"><ele>752.5999999999999</ele><time>2026-05-02T10:28:23.452Z</time></trkpt><trkpt lat="42.7043218" lon="13.6326391"><ele>753.0</ele><time>2026-05-02T10:28:24.451Z</time></trkpt><trkpt lat="42.7043477" lon="13.6327787"><ele>750.8</ele><time>2026-05-02T10:28:25.452Z</time></trkpt><trkpt lat="42.7043412" lon="13.6329118"><ele>748.5999999999999</ele><time>2026-05-02T10:28:26.453Z</time></trkpt><trkpt lat="42.7043537" lon="13.6330445"><ele>746.4000000000001</ele><time>2026-05-02T10:28:27.453Z</time></trkpt><trkpt lat="42.7043564" lon="13.6331661"><ele>744.2</ele><time>2026-05-02T10:28:28.452Z</time></trkpt><trkpt lat="42.7043327" lon="13.6332951"><ele>742.0</ele><time>2026-05-02T10:28:29.453Z</time></trkpt><trkpt lat="42.7042841" lon="13.6334097"><ele>742.0</ele><time>2026-05-02T10:28:30.453Z</time></trkpt><trkpt lat="42.7042413" lon="13.6335234"><ele>742.0</ele><time>2026-05-02T10:28:31.452Z</time></trkpt><trkpt lat="42.7041818" lon="13.6336042"><ele>742.0</ele><time>2026-05-02T10:28:32.452Z</time></trkpt><trkpt lat="42.7041434" lon="13.6336992"><ele>742.0</ele><time>2026-05-02T10:28:33.451Z</time></trkpt><trkpt lat="42.7042206" lon="13.6337932"><ele>742.0</ele><time>2026-05-02T10:28:34.452Z</time></trkpt><trkpt lat="42.7042709" lon="13.6338755"><ele>742.0</ele><time>2026-05-02T10:28:36.452Z</time></trkpt><trkpt lat="42.7043319" lon="13.6338414"><ele>738.2</ele><time>2026-05-02T10:28:37.453Z</time></trkpt><trkpt lat="42.704433" lon="13.633749"><ele>734.4000000000001</ele><time>2026-05-02T10:28:38.453Z</time></trkpt><trkpt lat="42.7044899" lon="13.6336215"><ele>730.5999999999999</ele><time>2026-05-02T10:28:39.452Z</time></trkpt><trkpt lat="42.7045343" lon="13.6334846"><ele>726.8</ele><time>2026-05-02T10:28:40.452Z</time></trkpt><trkpt lat="42.7045922" lon="13.6333898"><ele>723.0</ele><time>2026-05-02T10:28:41.452Z</time></trkpt><trkpt lat="42.7046717" lon="13.6332899"><ele>723.0</ele><time>2026-05-02T10:28:42.452Z</time></trkpt><trkpt lat="42.7047611" lon="13.6332215"><ele>723.0</ele><time>2026-05-02T10:28:43.452Z</time></trkpt><trkpt lat="42.7048422" lon="13.6331365"><ele>723.0</ele><time>2026-05-02T10:28:44.452Z</time></trkpt><trkpt lat="42.7049164" lon="13.633042"><ele>723.0</ele><time>2026-05-02T10:28:45.451Z</time></trkpt><trkpt lat="42.704983" lon="13.6329225"><ele>723.0</ele><time>2026-05-02T10:28:46.451Z</time></trkpt><trkpt lat="42.705045" lon="13.632802"><ele>721.5999999999999</ele><time>2026-05-02T10:28:47.452Z</time></trkpt><trkpt lat="42.7051054" lon="13.6326894"><ele>720.1999999999999</ele><time>2026-05-02T10:28:48.453Z</time></trkpt><trkpt lat="42.7051974" lon="13.6326036"><ele>718.8</ele><time>2026-05-02T10:28:49.453Z</time></trkpt><trkpt lat="42.7052717" lon="13.6325333"><ele>717.4</ele><time>2026-05-02T10:28:50.452Z</time></trkpt><trkpt lat="42.7053538" lon="13.6324564"><ele>716.0</ele><time>2026-05-02T10:28:51.452Z</time></trkpt><trkpt lat="42.7054221" lon="13.6323957"><ele>716.0</ele><time>2026-05-02T10:28:52.453Z</time></trkpt><trkpt lat="42.7054952" lon="13.6323037"><ele>716.0</ele><time>2026-05-02T10:28:53.453Z</time></trkpt><trkpt lat="42.7055865" lon="13.6322857"><ele>716.0</ele><time>2026-05-02T10:28:54.453Z</time></trkpt><trkpt lat="42.7056639" lon="13.6322594"><ele>716.0</ele><time>2026-05-02T10:28:55.451Z</time></trkpt><trkpt lat="42.7057494" lon="13.6323319"><ele>716.0</ele><time>2026-05-02T10:28:56.452Z</time></trkpt><trkpt lat="42.705811" lon="13.6324092"><ele>716.0</ele><time>2026-05-02T10:28:57.451Z</time></trkpt><trkpt lat="42.7058676" lon="13.6325113"><ele>716.0</ele><time>2026-05-02T10:28:58.451Z</time></trkpt><trkpt lat="42.7058876" lon="13.6326423"><ele>716.0</ele><time>2026-05-02T10:28:59.451Z</time></trkpt><trkpt lat="42.7057938" lon="13.6327435"><ele>716.0</ele><time>2026-05-02T10:29:00.451Z</time></trkpt><trkpt lat="42.70564" lon="13.632805"><ele>713.5999999999999</ele><time>2026-05-02T10:29:01.451Z</time></trkpt><trkpt lat="42.7055648" lon="13.6328878"><ele>711.2</ele><time>2026-05-02T10:29:02.451Z</time></trkpt><trkpt lat="42.7054884" lon="13.6329872"><ele>708.8</ele><time>2026-05-02T10:29:03.452Z</time></trkpt><trkpt lat="42.7054143" lon="13.6330959"><ele>706.4000000000001</ele><time>2026-05-02T10:29:04.453Z</time></trkpt><trkpt lat="42.7053579" lon="13.6332193"><ele>704.0</ele><time>2026-05-02T10:29:05.453Z</time></trkpt><trkpt lat="42.7053164" lon="13.6333606"><ele>704.0</ele><time>2026-05-02T10:29:06.453Z</time></trkpt><trkpt lat="42.7053069" lon="13.633532"><ele>704.0</ele><time>2026-05-02T10:29:07.453Z</time></trkpt><trkpt lat="42.7052615" lon="13.6336623"><ele>704.0</ele><time>2026-05-02T10:29:08.452Z</time></trkpt><trkpt lat="42.7051764" lon="13.6337711"><ele>704.0</ele><time>2026-05-02T10:29:09.453Z</time></trkpt><trkpt lat="42.7051021" lon="13.6338446"><ele>704.0</ele><time>2026-05-02T10:29:10.452Z</time></trkpt><trkpt lat="42.7050033" lon="13.6339416"><ele>704.0</ele><time>2026-05-02T10:29:11.451Z</time></trkpt><trkpt lat="42.7049333" lon="13.634038"><ele>704.0</ele><time>2026-05-02T10:29:12.453Z</time></trkpt><trkpt lat="42.7048745" lon="13.6341386"><ele>704.0</ele><time>2026-05-02T10:29:13.452Z</time></trkpt><trkpt lat="42.7048212" lon="13.6342698"><ele>704.0</ele><time>2026-05-02T10:29:14.453Z</time></trkpt><trkpt lat="42.7048004" lon="13.6344032"><ele>704.0</ele><time>2026-05-02T10:29:15.452Z</time></trkpt><trkpt lat="42.7047642" lon="13.6345405"><ele>698.75</ele><time>2026-05-02T10:29:16.452Z</time></trkpt><trkpt lat="42.7047216" lon="13.634665"><ele>693.5</ele><time>2026-05-02T10:29:17.451Z</time></trkpt><trkpt lat="42.7046737" lon="13.6347951"><ele>688.25</ele><time>2026-05-02T10:29:18.452Z</time></trkpt><trkpt lat="42.704581" lon="13.6349119"><ele>683.0</ele><time>2026-05-02T10:29:19.451Z</time></trkpt><trkpt lat="42.7044386" lon="13.6349648"><ele>687.25</ele><time>2026-05-02T10:29:20.451Z</time></trkpt><trkpt lat="42.7043177" lon="13.6348345"><ele>691.5</ele><time>2026-05-02T10:29:21.452Z</time></trkpt><trkpt lat="42.7042124" lon="13.6348437"><ele>695.75</ele><time>2026-05-02T10:29:22.451Z</time></trkpt><trkpt lat="42.7041136" lon="13.6348423"><ele>700.0</ele><time>2026-05-02T10:29:23.452Z</time></trkpt><trkpt lat="42.7040137" lon="13.6348261"><ele>700.0</ele><time>2026-05-02T10:29:24.452Z</time></trkpt><trkpt lat="42.7039259" lon="13.6348604"><ele>700.0</ele><time>2026-05-02T10:29:25.452Z</time></trkpt><trkpt lat="42.7038545" lon="13.634901"><ele>700.0</ele><time>2026-05-02T10:29:26.452Z</time></trkpt><trkpt lat="42.7037935" lon="13.635035"><ele>700.0</ele><time>2026-05-02T10:29:27.453Z</time></trkpt><trkpt lat="42.7037359" lon="13.6351349"><ele>700.0</ele><time>2026-05-02T10:29:28.452Z</time></trkpt><trkpt lat="42.7036674" lon="13.6352161"><ele>700.0</ele><time>2026-05-02T10:29:29.451Z</time></trkpt><trkpt lat="42.7036313" lon="13.6353146"><ele>682.0</ele><time>2026-05-02T10:29:30.452Z</time></trkpt><trkpt lat="42.703619" lon="13.6354091"><ele>682.0</ele><time>2026-05-02T10:29:31.453Z</time></trkpt><trkpt lat="42.7035895" lon="13.6355345"><ele>682.0</ele><time>2026-05-02T10:29:33.453Z</time></trkpt></trkseg></trk></gpx>